     2              OBSERVATION DATA    GPS                 RINEX VERSION / TYPE
teqc 2000Feb29 20031025 01:57:39UTC                         PGM / RUN BY / DATE
                                                            COMMENT
L2: 1 -> 1; 150 -> 5; 250 -> 9                              COMMENT
L2: 1 -> 1; 150 -> 5; 250 -> 9                              COMMENT
L2: 1 -> 1; 150 -> 5; 250 -> 9                              COMMENT
L2: 1 -> 1; 150 -> 5; 250 -> 9                              COMMENT
L2: 1 -> 1; 150 -> 5; 250 -> 9                              COMMENT
Original Marker Name: LUCS                                  COMMENT
Campaign Name: CSUSB 2002-2003                              COMMENT
4-Character Station Name: LUCS                              COMMENT
6-Character Antenna Code: DMRCHT                            COMMENT
Vertical Measurement Point: BPA                             COMMENT
Vertical Offset to Rinex Ref. Point: 0.0000                 COMMENT
Radial Measurement Point: RRP                               COMMENT
Radial Offset to Rinex Ref. Point: 0.0000                   COMMENT
Antenna Height from Field Measurement: 1.5000 m             COMMENT
Additional Antenna Identification Info.:                    COMMENT
Turborogue and Ashtech Choke Ring                           COMMENT
Original XYZ: -2424627.6247 -4692757.7948 3563607.5566      COMMENT
New XYZ position is based on association with SCEC monument COMMENT
E1F2D1A3+0011. Position of that monument is believed to be  COMMENT
valid to within 1 m horizontally; vertical accuracy         COMMENT
should be no worse than 3-times this value.                 COMMENT
                                                            COMMENT
Revised Rinex header created by UCSD GPS archive for        COMMENT
GSAC on 09-Nov-2004 (2004:314) 22:54:44 GMT                 COMMENT
For assistance contact dagnew@ucsd.edu                      COMMENT
or anderson@python.ucsd.edu                                 COMMENT
                                                            COMMENT
LUCS                                                        MARKER NAME
JRN CAL STATE SAN BERNARDINO                                OBSERVER / AGENCY
2402 ASHTECH Z-XII3 CD00                                    REC # / TYPE / VERS
2409 DORNE-MARGOL. TYPE T                                   ANT # / TYPE
 -2381299.0000 -4697467.0000  3587259.0000                  APPROX POSITION XYZ
        1.5000        0.0000        0.0000                  ANTENNA: DELTA H/E/N
     1     1     0                                          WAVELENGTH FACT L1/2
     7    C1    L1    L2    P1    P2    S1    S2            # / TYPES OF OBSERV
     0                                                      INTERVAL
  2003     6    25    14    55   30.000000                  TIME OF FIRST OBS
  2003     6    26     1     7   30.000000                  TIME OF LAST OBS
                                                            END OF HEADER
 03  6 25 14 55 30.0000000  0  1G 6
                    -12594.94149     -5441.52046                  19344813.427
       246.000         171.000
 03  6 25 14 56  0.0000000  0 10G21G18G17G 6G15G30G29G26G10G 5
                    -42377.76249    -27834.03343
       241.000          74.000
                   -102137.40749    -68268.06443
       216.000          74.000
                    -12383.38349     -7296.84547                  19825453.748
       242.000         198.000
  19339806.914      -38884.67449    -25927.11747  19339806.511    19339810.804
       246.000         207.000
                    -77047.16149    -50886.68743
       211.000          74.000
                     95840.31449     63510.07646                  20914247.054
       235.000         175.000
                    -23489.63049     -9100.28643
       222.000          74.000
                    -86459.20849    -55917.90043
       217.000          74.000
                     95166.44349     57294.29646                  20746660.384
       235.000         182.000
                    113166.18449     75324.51943
       210.000          74.000
 03  6 25 14 56 30.0000000  0  1G 6
  20534093.584      -64546.68449    -45923.54647  20534093.113    20534097.362
       246.000         211.000
 03  6 25 14 57  0.0000000  0  9G21G18G17G 6G30G29G26G10G 5
                   -121886.87049    -90681.11643
       240.000          74.000
  23786126.226     -301541.17549   -223647.63645  23786125.318    23786131.416
       219.000         151.000
  21020771.767      -32602.75649    -23052.27047  21020770.883    21020776.302
       241.000         207.000
  20529287.585      -89801.12049    -65602.37047  20529287.320    20529291.731
       245.000         212.000
  22149169.169      283747.34349    209930.95646  22149169.189    22149174.868
       235.000         184.000
  23255374.790     -107668.13249    -74693.65045  23255375.089    23255380.989
       222.000         161.000
                   -249481.31849   -182969.32743
       216.000          74.000
  21978149.576      265030.43849    189655.66847  21978148.444    21978154.659
       235.000         191.000
                    335031.75149    248208.79443
       209.000          74.000
 03  6 25 14 57 30.0000000  0  9G21G18G17G 6G30G29G26G10G 5
                   -402769.25949   -212459.72846                  21621816.707
       240.000         184.000
  23721258.526     -642429.73949   -489275.07445  23721256.826    23721264.394
       217.000         154.000
  20972966.643     -283823.98249   -218809.09647  20972965.228    20972970.491
       241.000         208.000
  20478600.831     -356161.89249   -273156.26147  20478600.630    20478604.965
       245.000         212.000
  22121191.948      136723.12249     95366.54146  22121191.598    22121197.240
       234.000         184.000
  23201531.562     -390614.42449   -295171.26946  23201530.984    23201538.252
       223.000         164.000
                   -572121.92349   -238204.83543
       215.000          74.000
  21948478.333      109108.68149     68158.10247  21948477.625    21948484.057
       235.000         191.000
                    204588.46349   -119693.07143
       209.000          74.000
 03  6 25 14 58  0.0000000  0  9G21G18G17G 6G30G29G26G10G 5
  21613264.507     -447697.69649   -247468.91947  21613263.639    21613267.419
       240.000         193.000
  23701283.503     -747397.08349   -571067.79145  23701282.793    23701288.752
       218.000         156.000
  20970062.761     -299082.49549   -230698.86947  20970061.738    20970066.977
       243.000         208.000
  20472843.703     -386416.52349   -296731.33347  20472843.625    20472848.006
       246.000         212.000
  22138131.556      225742.48149    164732.18446  22138131.550    22138137.059
       234.000         184.000
  23192624.394     -437422.11749   -331644.78446  23192624.360    23192630.722
       223.000         165.000
                   -658802.23649   -305747.93645                  23166096.355
       217.000         144.000
  21963741.176      189313.94549    130655.62147  21963740.629    21963746.837
       235.000         191.000
                    309922.60549    -37611.77643
       209.000          74.000
 03  6 25 14 58 30.0000000  0 10G21G18G17G 6G15G30G29G26G10G 5
  21604751.722     -492432.87749   -282327.51647  21604751.092    21604754.137
       241.000         195.000
  23681339.582     -852201.88549   -652733.85545  23681338.770    23681346.073
       216.000         154.000
  20967197.532     -314138.97249   -242431.21147  20967196.682    20967201.666
       242.000         208.000
  20467152.646     -416323.66449   -320035.63347  20467152.335    20467156.669
       245.000         212.000
  24740197.269     -700641.13549   -536804.38444  24740199.586    24740204.130
       207.000         131.000
  22155124.721      315042.68749    234316.67546  22155124.327    22155129.821
       233.000         183.000
  23183789.651     -483849.46649   -367821.91946  23183789.686    23183796.816
       223.000         165.000
  23149633.138     -745279.42149   -373132.68245  23149632.293    23149639.883
       216.000         154.000
  21979073.145      269883.45349    193436.96747  21979072.285    21979078.556
       235.000         191.000
                    415271.85849     44480.20043
       209.000          74.000
 03  6 25 14 59  0.0000000  0 10G21G18G17G 6G15G30G29G26G10G 5
  21596275.871     -536973.81149   -317034.75147  21596275.030    21596278.502
       241.000         195.000
  23661427.282     -956840.81949   -734270.66945  23661426.285    23661432.346
       218.000         154.000
  20964370.884     -328992.97849   -254005.78447  20964369.759    20964375.171
       242.000         208.000
  20461528.214     -445880.44149   -343066.92348  20461527.959    20461532.204
       245.000         213.000
  24725055.141     -780216.69549   -598811.32444  24725055.031    24725063.088
       207.000         130.000
  22172171.118      404621.86949    304118.54646  22172170.526    22172176.949
       231.000         183.000
  23175027.951     -529892.62149   -403699.69246  23175028.192    23175034.375
       222.000         165.000
  23133216.451     -831548.79849   -440355.48345  23133217.037    23133223.335
       216.000         157.000
  21994474.035      350815.37049    256500.70747  21994473.433    21994479.260
       235.000         191.000
                    520634.63549   -139463.46243
       211.000          74.000
 03  6 25 14 59 30.0000000  0 10G21G18G17G 6G15G30G29G26G10G 5
  21587837.384     -581318.55649   -351589.10847  21587836.652    21587840.092
       241.000         196.000
  23641547.402    -1061309.94849   -815675.15545  23641546.238    23641553.322
       216.000         154.000
  20961583.103     -343642.84549   -265421.28147  20961582.049    20961587.588
       242.000         208.000
  20455971.128     -475083.38949   -365822.49548  20455970.766    20455975.306
       245.000         213.000
  24709929.586     -859704.28449   -660749.72845  24709931.041    24709935.449
       211.000         132.000
  22189270.357      494478.98449    374136.98446  22189270.478    22189276.080
       233.000         182.000
  23166340.184     -575547.54349   -439274.93346  23166339.637    23166346.082
       221.000         164.000
  23116840.510     -917604.93749   -507412.12045  23116840.304    23116847.326
       218.000         157.000
  22009943.759      432108.81649    319846.16447  22009943.563    22009949.185
       236.000         191.000
                    626010.38449    -57352.32343
       215.000          74.000
 03  6 25 15  0  0.0000000  0 10G21G18G17G 6G15G30G29G26G10G 5
  21579435.809     -625469.32349   -385992.32047  21579435.028    21579438.651
       241.000         197.000
  23621700.077    -1165608.55949   -896946.76445  23621699.288    23621704.774
       217.000         154.000
  20958833.804     -358090.52249   -276679.23447  20958832.892    20958838.138
       242.000         208.000
  20450481.427     -503932.14649   -388302.07948  20450481.176    20450485.600
       245.000         213.000
  24694820.382     -939105.40249   -722620.74645  24694820.991    24694827.839
       211.000         132.000
  22206421.775      584609.57449    444368.52346  22206422.144    22206427.364
       231.000         182.000
  23157726.429     -620813.25349   -474546.88746  23157725.520    23157732.622
       221.000         165.000
  23100505.606    -1003445.75449   -574301.01645  23100505.543    23100513.467
       218.000         157.000
  22025481.499      513759.69749    383470.14547  22025480.967    22025486.774
       235.000         191.000
                    731394.89149     24765.32144                  24088076.730
       213.000         128.000
 03  6 25 15  0 30.0000000  0 10G21G18G17G 6G15G30G29G26G10G 5
  21571071.256     -669425.54049   -420243.93147  21571070.459    21571073.991
       241.000         197.000
  23601885.740    -1269734.02549   -978083.47445  23601885.555    23601891.267
       219.000         155.000
  20956122.888     -372336.49349   -287780.01447  20956122.049    20956127.444
       242.000         208.000
  20445059.599     -532424.49649   -410503.94648  20445059.370    20445063.697
       245.000         213.000
  24679727.636    -1018419.49549   -784423.92844  24679725.362    24679734.012
       207.000         128.000
  22223624.671      675011.16249    514811.23546  22223625.134    22223629.669
       232.000         181.000
  23149187.223     -665686.67749   -509513.17746  23149186.202    23149193.295
       222.000         164.000
  23084212.363    -1089067.10549   -641018.85745  23084212.992    23084219.130
       221.000         157.000
  22041086.805      595765.80649    447370.92747  22041085.974    22041092.301
       235.000         190.000
  24108124.753      836786.04249    106888.18945  24108125.292    24108132.253
       216.000         149.000
 03  6 25 15  1  0.0000000  0 10G21G18G17G 6G15G30G29G26G10G 5
  21562743.776     -713187.07049   -454343.84047  21562743.094    21562746.643
       241.000         197.000
  23582104.767    -1373684.29349  -1059083.66145  23582104.229    23582111.237
       217.000         155.000
  20953450.322     -386381.18049   -298723.95047  20953449.489    20953454.743
       242.000         208.000
  20439705.843     -560558.83149   -432426.83748  20439705.556    20439709.990
       245.000         213.000
  24664651.395    -1097646.52149   -846159.30944  24664649.878    24664657.881
       207.000         129.000
  22240878.634      765680.90449    585462.88846  22240879.090    22240883.860
       231.000         181.000
  23140723.184     -710165.40549   -544171.91046  23140722.911    23140729.909
       222.000         164.000
  23067961.635    -1174465.49149   -707563.01245  23067960.134    23067968.854
       219.000         156.000
  22056759.169      678124.20949    511546.22047  22056758.404    22056764.645
       234.000         190.000
  24128180.962      942181.32349    189014.28445  24128180.268    24128188.906
       215.000         150.000
 03  6 25 15  1 30.0000000  0 10G21G18G17G 6G15G30G29G26G10G 5
  21554453.198     -756754.55249   -488292.54247  21554452.393    21554456.119
       242.000         197.000
  23562357.434    -1477456.84549  -1139945.34545  23562355.880    23562362.793
       217.000         155.000
  20950816.029     -400224.55949   -309511.02247  20950815.182    20950820.442
       243.000         208.000
  20434420.591     -588333.23649   -454069.26048  20434420.275    20434424.823
       246.000         213.000
  24649591.622    -1176786.27749   -907826.65144  24649590.284    24649597.366
       205.000         128.000
  22258183.117      856615.92949    656321.26046  22258183.860    22258188.715
       233.000         180.000
  23132334.737     -754246.94749   -578521.14646  23132334.868    23132341.464
       223.000         165.000
  23051754.078    -1259637.08949   -773930.42445  23051754.193    23051760.277
       219.000         156.000
  22072498.073      760832.20149    575993.92347  22072497.568    22072503.137
       234.000         190.000
  24148237.452     1047578.26649    271141.68845  24148236.923    24148244.955
       213.000         148.000
 03  6 25 15  2  0.0000000  0 10G21G18G17G 6G15G30G29G26G10G 5
  21546199.638     -800127.33149   -522089.52247  21546199.017    21546202.539
       241.000         198.000
  23542644.279    -1581049.05549  -1220666.50445  23542643.417    23542650.035
       219.000         156.000
  20948220.119     -413866.36449   -320141.02147  20948219.280    20948224.719
       242.000         208.000
  20429204.289     -615745.25249   -475429.30648  20429203.886    20429208.720
       245.000         213.000
  24634548.626    -1255837.83149   -969425.24044  24634548.707    24634555.381
       206.000         129.000
  22275537.700      947814.01349    727384.62046  22275537.017    22275542.413
       232.000         180.000
  23124022.485     -797928.12149   -612558.41546  23124022.402    23124028.255
       222.000         165.000
  23035590.329    -1344577.66849   -840117.82745  23035589.563    23035597.661
       219.000         155.000
  22088303.032      843887.54549    640712.29347  22088302.297    22088308.847
       234.000         189.000
  24168294.046     1152975.04949    353268.94345  24168293.339    24168300.518
       213.000         148.000
 03  6 25 15  2 30.0000000  0 10G21G18G17G 6G15G30G29G26G10G 5
  21537982.948     -843306.47249   -555735.61547  21537982.485    21537985.696
       242.000         198.000
  23522966.000    -1684459.60849  -1301246.11145  23522965.730    23522972.395
       219.000         157.000
  20945662.211     -427308.44149   -330615.38947  20945661.330    20945666.825
       242.000         208.000
  20424057.069     -642794.16449   -496506.40848  20424056.630    20424061.350
       245.000         213.000
  24619522.360    -1334802.18249  -1030955.92344  24619521.760    24619530.046
       205.000         130.000
  22292941.423     1039271.18949    798649.85946  22292941.138    22292947.214
       232.000         179.000
  23115786.591     -841207.68049   -646282.73746  23115785.814    23115793.212
       224.000         165.000
  23019471.152    -1429284.65249   -906123.22045  23019470.052    23019477.390
       216.000         155.000
  22104173.463      927286.68949    705698.54847  22104172.710    22104179.459
       234.000         188.000
  24188349.809     1258368.11749    435393.30945  24188349.424    24188356.703
       214.000         145.000
 03  6 25 15  3  0.0000000  0 11G21G18G17G16G 6G15G30G29G26G10G 5
  21529803.065     -886292.34349   -589231.10547  21529802.078    21529805.780
       242.000         198.000
  23503322.475    -1787686.80449  -1381682.86645  23503322.099    23503328.231
       220.000         157.000
  20943142.205     -440551.30349   -340934.52247  20943141.485    20943146.810
       243.000         208.000
  24747541.748     -521983.82049   -398875.67544  24747539.195    24747543.543
       202.000         127.000
  20418979.256     -669478.45049   -517299.38548  20418978.865    20418983.299
       246.000         213.000
  24604512.606    -1413679.51149  -1092418.75044  24604512.620    24604519.280
       203.000         130.000
  22310393.881     1130984.51149    870114.70246  22310393.886    22310399.462
       232.000         179.000
  23107627.612     -884083.30749   -679692.29946  23107626.453    23107633.768
       222.000         165.000
  23003396.994    -1513754.65549   -971943.96345  23003397.249    23003404.682
       218.000         155.000
  22120108.674     1011026.36549    770950.15447  22120107.848    22120114.129
       233.000         188.000
  24208404.514     1363754.72149    517512.63745  24208403.141    24208410.955
       209.000         143.000
 03  6 25 15  3 30.0000000  0 11G21G18G17G16G 6G15G30G29G26G10G 5
  21521659.929     -929084.75949   -622575.85547  21521658.816    21521662.589
       241.000         198.000
  23483714.433    -1890727.97049  -1461974.64345  23483714.473    23483720.178
       222.000         159.000
  20940660.153     -453594.83549   -351098.34547  20940659.443    20940664.572
       243.000         208.000
  24732048.709     -603415.18449   -462328.70244  24732045.531    24732051.355
       204.000         131.000
  20413971.283     -695795.89649   -537806.52348  20413971.132    20413975.501
       245.000         213.000
  24589519.134    -1492469.34349  -1153813.44244  24589518.561    24589526.918
       207.000         131.000
  22327894.657     1222951.34149    941777.07246  22327894.750    22327900.648
       231.000         179.000
  23099546.014     -926552.20949   -712784.95346  23099545.787    23099552.347
       224.000         165.000
  22987368.774    -1597983.43649  -1037576.73345  22987369.086    22987374.810
       219.000         156.000
  22136108.358     1095104.42549    836465.43947  22136107.502    22136113.704
       233.000         188.000
  24228457.265     1469132.63449    599625.20445  24228455.239    24228464.312
       207.000         138.000
 03  6 25 15  4  0.0000000  0 11G21G18G17G16G 6G15G30G29G26G10G 5
  21513553.474     -971684.34249   -655770.34547  21513552.697    21513556.434
       241.000         197.000
  23464142.175    -1993581.06749  -1542119.89545  23464141.263    23464148.234
       223.000         159.000
  20938215.836     -466440.00449   -361107.59047  20938215.295    20938220.377
       242.000         208.000
  24716615.774     -684505.50549   -525515.94845  24716612.965    24716620.490
       204.000         133.000
  20409033.343     -721745.23549   -558026.81748  20409032.950    20409037.455
       245.000         213.000
  24574542.592    -1571171.83749  -1215140.05945  24574541.949    24574549.305
       206.000         132.000
  22345443.078     1315168.39249   1013634.42346  22345443.341    22345449.488
       232.000         179.000
  23091542.177     -968612.34449   -745559.06346  23091542.618    23091548.149
       225.000         166.000
  22971387.020    -1681967.87649  -1103019.10445  22971387.210    22971393.548
       219.000         156.000
  22152171.842     1179517.95049    902242.13046  22152170.981    22152177.141
       233.000         187.000
  24248507.792     1574499.17549    681728.89845  24248507.278    24248515.134
       206.000         133.000
 03  6 25 15  4 30.0000000  0 11G21G18G17G16G 6G15G30G29G26G10G 5
  21505483.857    -1014090.64149   -688814.22047  21505483.244    21505486.917
       242.000         197.000
  23444606.061    -2096244.01349  -1622116.96245  23444606.187    23444611.222
       221.000         158.000
  20935809.198     -479087.17249   -370962.55047  20935808.321    20935813.581
       243.000         208.000
  24701249.745     -765251.76949   -588435.11645  24701248.961    24701253.853
       208.000         135.000
  20404165.873     -747324.31349   -577958.59248  20404165.520    20404170.230
       245.000         213.000
  24559582.800    -1649786.35949  -1276398.14345  24559581.765    24559588.359
       207.000         133.000
  22363038.629     1407633.06249   1085684.72946  22363038.730    22363045.092
       231.000         180.000
  23083616.764    -1010261.02549   -778012.57346  23083616.255    23083623.402
       224.000         166.000
  22955452.601    -1765703.92949  -1168267.93245  22955451.472    22955459.099
       218.000         157.000
  22168298.599     1264264.36949    968278.22546  22168297.747    22168304.245
       233.000         187.000
  24268555.963     1679852.04049    763821.95744  24268553.710    24268561.908
       204.000         131.000
 03  6 25 15  5  0.0000000  0 11G21G18G17G16G 6G15G30G29G26G10G 5
  21497450.860    -1056304.49249   -721708.14447  21497450.185    21497453.724
       241.000         198.000
  23425106.443    -2198715.08749  -1701964.52745  23425106.456    23425111.760
       221.000         157.000
  20933440.167     -491536.50149   -380663.35147  20933439.302    20933444.716
       242.000         208.000
  24685949.901     -845652.28049   -651084.88045  24685949.383    24685953.825
       209.000         137.000
  20399369.101     -772531.86149   -597600.86248  20399368.691    20399373.582
       245.000         213.000
  24544639.566    -1728313.56949  -1337588.19945  24544639.480    24544646.359
       209.000         136.000
  22380680.592     1500342.14149   1157925.47646  22380680.947    22380686.848
       230.000         179.000
  23075770.059    -1051496.14749   -810143.84046  23075770.237    23075776.578
       224.000         166.000
  22939565.931    -1849188.40349  -1233320.73545  22939565.559    22939573.170
       219.000         158.000
  22184488.122     1349340.62649   1034571.33246  22184486.929    22184493.458
       233.000         187.000
  24288600.790     1785188.58049    845902.28244  24288600.352    24288607.998
       201.000         129.000
 03  6 25 15  5 30.0000000  0 11G21G18G17G16G 6G15G30G29G26G10G 5
  21489454.581    -1098325.49149   -754451.78547  21489453.671    21489456.941
       241.000         198.000
  23405643.872    -2300991.55149  -1781660.44145  23405642.941    23405649.118
       220.000         157.000
  20931108.715     -503788.57749   -390210.45047  20931107.936    20931113.108
       242.000         208.000
  24670716.385     -925704.23349   -713463.02245  24670715.669    24670721.278
       209.000         140.000
  20394643.429     -797365.63749   -616951.88348  20394643.152    20394647.519
       245.000         213.000
  24529713.147    -1806753.07849  -1398709.87245  24529711.374    24529720.435
       208.000         138.000
  22398368.660     1593292.98549   1230354.61046  22398368.942    22398375.034
       230.000         179.000
  23068002.471    -1092315.15049   -841950.85346  23068002.284    23068008.295
       225.000         166.000
  22923727.952    -1932417.26049  -1298174.34945  22923727.554    22923734.535
       218.000         158.000
  22200739.963     1434744.10249   1101119.41546  22200739.158    22200745.777
       233.000         187.000
  24308641.995     1890506.38749    927967.99244  24308640.159    24308648.694
       201.000         128.000
 03  6 25 15  6  0.0000000  0 11G21G18G17G16G 6G15G30G29G26G10G 5
  21481494.952    -1140153.82049   -787045.29947  21481494.121    21481497.523
       241.000         198.000
  23386218.614    -2403071.60249  -1861203.32345  23386217.319    23386223.002
       220.000         157.000
  20928814.655     -515844.03649   -399604.33747  20928813.774    20928819.324
       242.000         208.000
  24655549.769    -1005405.28849   -775567.72545  24655549.738    24655554.434
       209.000         141.000
  20389989.133     -821824.21349   -636010.54348  20389988.605    20389993.438
       246.000         213.000
  24514803.423    -1885104.92449  -1459763.24145  24514803.145    24514811.212
       211.000         140.000
  22416102.161     1686482.44249   1302969.67746  22416102.595    22416108.496
       230.000         179.000
  23060314.440    -1132716.03349   -873432.07546  23060313.897    23060320.900
       224.000         166.000
  22907939.273    -2015387.12649  -1362826.15145  22907938.234    22907945.898
       218.000         159.000
  22217053.563     1520471.83749   1167920.15746  22217052.305    22217059.205
       233.000         187.000
  24328679.302     1995802.83449   1010017.06545  24328679.276    24328687.211
       205.000         133.000
 03  6 25 15  6 30.0000000  0 11G21G18G17G16G 6G15G30G29G26G10G 5
  21473571.790    -1181790.38649   -819489.38147  21473571.026    21473574.334
       242.000         198.000
  23366831.166    -2504953.17949  -1940591.52545  23366829.890    23366836.329
       219.000         158.000
  20926557.880     -527703.49849   -408845.49647  20926557.086    20926562.295
       242.000         208.000
  24640450.361    -1084753.27749   -837397.30445  24640449.132    24640454.596
       209.000         142.000
  20385406.555     -845906.09449   -654775.66648  20385406.007    20385410.790
       246.000         213.000
  24499910.341    -1963369.42249  -1520748.58045  24499909.366    24499917.313
       209.000         142.000
  22433880.431     1779907.27549   1375768.16446  22433880.498    22433886.604
       230.000         178.000
  23052706.436    -1172696.63049   -904585.77746  23052706.184    23052713.107
       225.000         167.000
  22892200.459    -2098094.82549  -1427273.67745  22892200.329    22892207.329
       217.000         159.000
  22233428.198     1606520.75549   1234971.19246  22233427.059    22233433.801
       233.000         187.000
  24348712.274     2101075.13749   1092047.28745  24348712.097    24348719.566
       208.000         139.000
 03  6 25 15  7  0.0000000  0 11G21G18G17G16G 6G15G30G29G26G10G 5
  21465685.110    -1223235.24349   -851784.09047  21465684.416    21465687.756
       241.000         198.000
  23347481.939    -2606634.16049  -2019823.43845  23347480.596    23347487.281
       219.000         158.000
  20924338.378     -539367.30649   -417934.20547  20924337.603    20924342.819
       242.000         208.000
  24625418.364    -1163745.87049   -898949.97345  24625418.138    24625422.649
       210.000         143.000
  20380895.930     -869609.66149   -673246.00948  20380895.360    20380900.201
       245.000         213.000
  24485033.615    -2041546.25349  -1581665.58745  24485032.435    24485040.342
       210.000         142.000
  22451702.824     1873564.54649   1448747.76146  22451703.339    22451709.472
       229.000         178.000
  23045178.837    -1212254.74849   -935410.28846  23045178.335    23045185.503
       224.000         168.000
  22876512.294    -2180536.60149  -1491513.95245  22876512.190    22876520.249
       219.000         159.000
  22249863.488     1692888.25349   1302270.45746  22249862.970    22249869.304
       232.000         186.000
  24368739.972     2206320.75549   1174056.74745  24368739.373    24368747.307
       211.000         142.000
 03  6 25 15  7 30.0000000  0 11G21G18G17G16G 6G15G30G29G26G10G 5
  21457835.016    -1264488.01749   -883929.11147  21457834.320    21457837.273
       242.000         198.000
  23328171.245    -2708112.56749  -2098897.47445  23328169.854    23328176.226
       221.000         158.000
  20922155.955     -550836.17749   -426871.01047  20922155.383    20922160.389
       242.000         208.000
  24610454.629    -1242380.62449   -960223.79545  24610452.498    24610458.212
       207.000         141.000
  20376457.630     -892933.22649   -691420.24148  20376457.112    20376462.029
       245.000         213.000
  24470173.971    -2119635.19049  -1642514.13245  24470173.401    24470180.135
       211.000         143.000
  22469568.999     1967451.40949   1521906.26446  22469569.111    22469575.756
       229.000         177.000
  23037732.045    -1251387.97149   -965903.70246  23037731.760    23037739.026
       224.000         167.000
  22860875.365    -2262708.76949  -1555544.20245  22860874.476    22860882.555
       218.000         160.000
  22266358.834     1779571.41049   1369815.69746  22266357.731    22266363.969
       232.000         186.000
  24388762.143     2311537.30549   1256043.54945  24388762.661    24388770.653
       211.000         146.000
 03  6 25 15  8  0.0000000  0 11G21G18G17G16G 6G15G30G29G26G10G 5
  21450021.404    -1305549.15749   -915924.81447  21450020.650    21450023.849
       241.000         198.000
  23308899.530    -2809386.15849  -2177811.92745  23308898.985    23308905.030
       224.000         160.000
  20920010.656     -562110.23349   -435656.01247  20920009.829    20920015.254
       242.000         208.000
  24595559.318    -1320655.24249  -1021216.96745  24595558.389    24595564.968
       206.000         140.000
  20372091.950     -915875.10849   -709297.06048  20372091.505    20372096.345
       245.000         213.000
  24455330.863    -2197636.21249  -1703294.18245  24455329.777    24455337.153
       211.000         143.000
  22487478.306     2061565.02749   1595241.45846  22487478.862    22487484.882
       229.000         177.000
  23030366.535    -1290094.03649   -996064.24746  23030365.620    23030372.498
       224.000         167.000
  22845290.353    -2344607.65649  -1619361.46045  22845290.245    22845297.597
       218.000         160.000
  22282913.742     1866567.61649   1437604.87046  22282912.601    22282918.908
       232.000         185.000
  24408778.235     2416722.44249   1338005.89145  24408777.855    24408786.011
       211.000         149.000
 03  6 25 15  8 30.0000000  0 11G21G18G17G16G 6G15G30G29G26G10G 5
  21442244.192    -1346418.75849   -947771.26647  21442243.644    21442246.862
       241.000         198.000
  23289667.171    -2910453.02049  -2256565.29545  23289666.369    23289673.019
       223.000         161.000
  20917902.274     -573190.10049   -444289.69947  20917901.538    20917906.701
       243.000         208.000
  24580733.047    -1398567.36049  -1081927.72545  24580732.663    24580737.252
       206.000         140.000
  20367799.263     -938433.69949   -726875.20848  20367798.836    20367803.568
       245.000         213.000
  24440504.475    -2275549.41249  -1764005.79345  24440503.691    24440509.923
       212.000         143.000
  22505430.140     2155902.24449   1668750.89046  22505430.495    22505436.222
       229.000         177.000
  23023082.709    -1328370.79549  -1025890.28346  23023082.012    23023089.283
       224.000         167.000
  22829758.189    -2426229.80549  -1682963.09945  22829758.627    22829765.648
       221.000         160.000
  22299527.673     1953874.12449   1505635.84146  22299526.679    22299532.914
       231.000         185.000
  24428787.980     2521873.51249   1419941.67545  24428787.742    24428795.209
       215.000         150.000
 03  6 25 15  9  0.0000000  0 11G21G18G17G16G 6G15G30G29G26G10G 5
  21434503.278    -1387097.85849   -979469.27847  21434502.553    21434505.720
       241.000         198.000
  23270474.449    -3011311.58449  -2335156.35045  23270474.256    23270480.121
       223.000         162.000
  20915830.702     -584076.28249   -452772.46547  20915829.972    20915835.366
       242.000         208.000
  24565976.258    -1476115.03149  -1142354.47545  24565976.458    24565980.925
       206.000         139.000
  20363579.714     -960607.66349   -744153.65348  20363579.407    20363583.902
       245.000         213.000
  24425694.798    -2353375.22649  -1824649.30745  24425693.944    24425701.906
       209.000         143.000
  22523423.838     2250459.69949   1742431.92546  22523424.907    22523429.711
       230.000         177.000
  23015880.946    -1366216.48949  -1055380.40846  23015880.458    23015886.937
       225.000         167.000
  22814279.324    -2507571.98549  -1746346.56745  22814279.143    22814286.411
       219.000         160.000
  22316200.026     2041487.74249   1573906.11446  22316198.857    22316204.941
       231.000         184.000
  24448790.664     2626987.70049   1501848.71745  24448790.075    24448798.815
       211.000         150.000
 03  6 25 15  9 30.0000000  0 11G21G18G17G16G 6G15G30G29G26G10G 5
  21426798.643    -1427586.15849  -1011018.61347  21426797.707    21426801.198
       241.000         198.000
  23251321.810    -3111959.53149  -2413583.27646  23251321.415    23251327.629
       223.000         163.000
  20913795.884     -594769.69149   -461105.01747  20913795.041    20913800.456
       243.000         208.000
  24551289.327    -1553295.60849  -1202495.17945  24551288.756    24551294.583
       206.000         138.000
  20359433.708     -982395.23349   -761131.00748  20359433.338    20359438.069
       246.000         213.000
  24410901.667    -2431113.36849  -1885224.49745  24410901.285    24410908.466
       214.000         144.000
  22541459.096     2345234.70749   1816282.49946  22541459.312    22541464.817
       230.000         176.000
  23008761.632    -1403628.80349  -1084532.83746  23008761.226    23008768.691
       223.000         168.000
  22798854.349    -2588630.55149  -1809509.03245  22798853.742    22798861.080
       220.000         160.000
  22332930.313     2129405.62949   1642413.48546  22332929.135    22332935.665
       231.000         184.000
  24468785.830     2732062.49049   1583725.05845  24468785.512    24468793.350
       213.000         149.000
 03  6 25 15 10  0.0000000  0 11G21G18G17G16G 6G15G30G29G26G10G 5
  21419130.247    -1467883.86449  -1042419.43647  21419129.285    21419132.804
       241.000         198.000
  23232209.502    -3212394.47949  -2491844.23246  23232208.926    23232214.394
       223.000         163.000
  20911797.696     -605270.49649   -469287.48647  20911796.984    20911802.180
       243.000         208.000
  24536672.608    -1630106.80549  -1262348.08445  24536671.206    24536677.795
       205.000         137.000
  20355361.553    -1003794.70549   -777805.95048  20355361.197    20355365.919
       245.000         213.000
  24396125.432    -2508763.81649  -1945731.34645  24396125.174    24396132.167
       213.000         144.000
  22559535.145     2440224.22249   1890300.20846  22559535.569    22559540.999
       228.000         175.000
  23001725.220    -1440605.57849  -1113345.89846  23001723.898    23001731.249
       223.000         168.000
  22783484.117    -2669401.81849  -1872447.65445  22783483.832    22783491.094
       219.000         160.000
  22349717.926     2217625.07549   1711155.84446  22349716.823    22349723.784
       231.000         184.000
  24488773.387     2837095.74349   1665569.02245  24488772.945    24488781.090
       211.000         148.000
 03  6 25 15 10 30.0000000  0 11G21G18G17G16G 6G15G30G29G26G10G 5
  21411498.079    -1507991.09749  -1073671.83447  21411497.319    21411501.015
       242.000         199.000
  23213138.166    -3312614.72649  -2569937.89546  23213137.449    23213143.666
       223.000         163.000
  20909836.110     -615578.89849   -477320.03847  20909835.112    20909840.689
       242.000         208.000
  24522126.568    -1706546.45249  -1321911.44845  24522126.445    24522129.214
       206.000         137.000
  20351363.573    -1024804.53149   -794177.27648  20351363.164    20351367.861
       245.000         213.000
  24381365.841    -2586326.44849  -2006169.81545  24381365.402    24381372.097
       208.000         142.000
  22577651.296     2535425.23449   1964482.72546  22577651.877    22577657.693
       229.000         174.000
  22994772.114    -1477144.64049  -1141817.87146  22994772.071    22994777.893
       223.000         168.000
  22768169.039    -2749882.34449  -1935159.69945  22768169.444    22768176.476
       222.000         161.000
  22366562.485     2306143.26049   1780130.98146  22366561.502    22366568.128
       231.000         184.000
  24508752.315     2942084.61949   1747378.41345  24508752.044    24508760.397
       209.000         146.000
 03  6 25 15 11  0.0000000  0 11G21G18G17G16G 6G15G30G29G26G10G 5
  21403902.110    -1547908.20349  -1104776.08547  21403901.267    21403904.679
       241.000         199.000
  23194108.071    -3412618.26549  -2647862.70646  23194106.894    23194112.820
       225.000         164.000
  20907911.078     -625695.21049   -485202.90347  20907910.295    20907915.602
       242.000         208.000
  24507651.827    -1782612.29149  -1381183.54645  24507650.756    24507657.297
       207.000         138.000
  20347440.041    -1045423.10849   -810243.73548  20347439.661    20347444.471
       245.000         213.000
  24366622.834    -2663801.42149  -2066539.93945  24366621.819    24366628.734
       209.000         143.000
  22595807.221     2630834.73449   2038827.69346  22595807.458    22595813.275
       228.000         174.000
  22987902.644    -1513243.98249  -1169947.20946  22987902.326    22987909.388
       224.000         169.000
  22752910.133    -2830068.62449  -1997642.47745  22752909.349    22752916.596
       221.000         162.000
  22383463.295     2394957.35149   1849336.70046  22383462.212    22383469.182
       231.000         184.000
  24528722.266     3047026.84149   1829151.43745  24528722.149    24528730.377
       205.000         142.000
 03  6 25 15 11 30.0000000  0 11G21G18G17G16G 6G15G30G29G26G10G 5
  21396342.261    -1587635.49949  -1135732.42747  21396341.431    21396345.092
       241.000         199.000
  23175119.720    -3512403.07649  -2725617.06346  23175118.939    23175125.456
       224.000         165.000
  20906022.455     -635620.11349   -492936.61847  20906021.662    20906026.865
       242.000         208.000
  24493248.759    -1858301.84549  -1440162.43145  24493248.397    24493252.643
       207.000         139.000
  20343591.248    -1065648.97849   -826004.19048  20343590.835    20343595.395
       245.000         213.000
  24351896.567    -2741188.69649  -2126841.69845  24351895.144    24351904.067
       208.000         142.000
  22614002.212     2726449.62149   2113332.71146  22614002.372    22614009.148
       228.000         173.000
  22981117.322    -1548901.33549  -1197732.13746  22981116.584    22981124.189
       224.000         170.000
  22737707.931    -2909957.03949  -2059893.14146  22737707.742    22737714.464
       222.000         163.000
  22400419.878     2484064.54749   1918770.80746  22400418.563    22400425.990
       230.000         183.000
  24548682.569     3151919.83049   1910886.08845  24548680.682    24548690.427
       197.000         135.000
 03  6 25 15 12  0.0000000  0 11G21G18G17G16G 6G15G30G29G26G10G 5
  21388818.625    -1627172.51849  -1166540.50247  21388817.989    21388821.335
       241.000         199.000
  23156173.469    -3611966.49349  -2803198.91446  23156173.225    23156178.548
       226.000         165.000
  20904170.273     -645353.78549   -500521.32347  20904169.305    20904174.935
       243.000         208.000
  24478917.631    -1933612.52449  -1498846.09345  24478916.699    24478921.688
       208.000         139.000
  20339817.541    -1085480.11549   -841457.06448  20339817.287    20339821.736
       246.000         213.000
  24337187.124    -2818487.81749  -2187074.79445  24337186.037    24337193.577
       210.000         141.000
  22632235.928     2822267.64349   2187996.00646  22632236.529    22632242.120
       227.000         173.000
  22974416.560    -1584114.40149  -1225170.86846  22974416.462    22974422.798
       224.000         170.000
  22722563.146    -2989543.60149  -2121908.57746  22722561.658    22722569.680
       220.000         164.000
  22417431.719     2573462.63149   1988431.58046  22417430.945    22417438.095
       229.000         183.000
  24568632.907     3256761.62249   1992580.86744  24568631.181    24568640.232
       201.000         131.000
 03  6 25 15 12 30.0000000  0 11G21G18G17G16G 6G15G30G29G26G10G 5
  21381331.114    -1666520.05149  -1197200.92847  21381330.133    21381333.835
       242.000         200.000
  23137269.512    -3711307.65349  -2880607.55846  23137268.672    23137275.717
       227.000         165.000
  20902354.133     -654897.64949   -507958.12247  20902353.282    20902358.836
       242.000         208.000
  24464658.746    -2008542.85749  -1557233.37045  24464657.250    24464663.741
       207.000         140.000
  20336119.075    -1104915.93749   -856601.89648  20336118.748    20336123.361
       245.000         213.000
  24322494.310    -2895699.65449  -2247239.83645  24322493.148    24322500.803
       209.000         140.000
  22650507.470     2918284.65449   2262814.35546  22650507.650    22650514.515
       228.000         173.000
  22967800.472    -1618881.91949  -1252262.42646  22967799.683    22967806.714
       224.000         169.000
  22707476.239    -3068825.66249  -2183686.76946  22707475.142    22707482.378
       221.000         163.000
  22434498.269     2663147.85449   2058316.10146  22434497.441    22434504.320
       230.000         182.000
  24588573.356     3361548.81249   2074233.08744  24588571.906    24588579.431
       202.000         128.000
 03  6 25 15 13  0.0000000  0 11G21G18G17G16G 6G15G30G29G26G10G 5
  21373879.546    -1705678.21349  -1227713.79847  21373878.822    21373882.311
       242.000         200.000
  23118408.327    -3810423.58949  -2957840.71146  23118408.429    23118413.510
       227.000         165.000
  20900574.238     -664251.21549   -515246.64247  20900573.684    20900578.824
       243.000         208.000
  24450472.890    -2083090.09449  -1615322.13645  24450472.720    24450477.522
       210.000         143.000
  20332496.293    -1123954.04449   -871436.82648  20332495.816    20332500.418
       246.000         213.000
  24307818.288    -2972823.31449  -2307336.16545  24307818.068    24307823.639
       209.000         140.000
  22668816.474     3014498.43849   2337786.03346  22668816.815    22668822.899
       228.000         173.000
  22961269.739    -1653201.09749  -1279004.62946  22961269.064    22961276.198
       224.000         169.000
  22692448.053    -3147799.04249  -2245224.40346  22692447.206    22692456.030
       222.000         163.000
  22451619.034     2753117.94349   2128422.59846  22451617.509    22451624.573
       229.000         182.000
  24608503.079     3466279.58449   2155841.37944  24608503.398    24608507.779
       201.000         125.000
 03  6 25 15 13 30.0000000  0 11G21G18G17G16G 6G15G30G29G26G10G 5
  21366463.909    -1744647.81049  -1258079.72847  21366462.945    21366466.637
       243.000         200.000
  23099590.188    -3909313.59349  -3034897.83446  23099588.538    23099594.840
       224.000         165.000
  20898830.318     -673415.95449   -522388.02447  20898829.551    20898834.769
       243.000         209.000
  24436360.340    -2157252.87449  -1673111.33545  24436359.360    24436364.532
       209.000         144.000
  20328949.292    -1142593.88449   -885961.41948  20328948.762    20328953.453
       246.000         213.000
  24293158.512    -3049860.11849  -2367364.83245  24293157.587    24293165.582
       204.000         136.000
  22687162.092     3110904.85249   2412907.81746  22687162.284    22687168.425
       227.000         173.000
  22954824.538    -1687071.03049  -1305396.76646  22954823.676    22954829.481
       225.000         170.000
  22677479.136    -3226461.15449  -2306519.51546  22677478.718    22677486.167
       224.000         163.000
  22468793.375     2843369.31949   2198748.28346  22468792.469    22468799.352
       229.000         182.000
  24628421.146     3570950.50849   2237403.00944  24628420.289    24628427.793
       203.000         123.000
 03  6 25 15 14  0.0000000  0 11G21G18G17G16G 6G15G30G29G26G10G 5
  21359084.349    -1783427.72249  -1288297.85547  21359083.794    21359086.765
       242.000         200.000
  23080815.789    -4007973.94849  -3111775.98046  23080816.014    23080820.850
       227.000         164.000
  20897122.537     -682390.70849   -529381.36647  20897121.754    20897127.012
       243.000         209.000
  24422321.499    -2231027.50749  -1730598.06745  24422321.549    24422326.584
       210.000         145.000
  20325478.630    -1160832.47149   -900173.34748  20325478.304    20325482.829
       246.000         213.000
  24278515.748    -3126808.47749  -2427324.54945  24278515.933    24278522.468
       210.000         137.000
  22705544.102     3207502.68549   2488178.75946  22705544.449    22705550.211
       227.000         173.000
  22948465.559    -1720488.04449  -1331435.97146  22948464.479    22948471.370
       225.000         170.000
  22662570.448    -3304807.07849  -2367568.25245  22662570.969    22662577.503
       221.000         162.000
  22486020.940     2933900.41049   2269291.91946  22486019.892    22486027.126
       231.000         182.000
  24648327.810     3675560.62349   2318917.30444  24648325.789    24648337.359
       204.000         123.000
 03  6 25 15 14 30.0000000  0 11G21G18G17G16G 6G15G30G29G26G10G 5
  21351740.643    -1822019.25649  -1318369.19447  21351739.598    21351743.343
       242.000         200.000
  23062085.122    -4106403.93249  -3188474.61846  23062082.912    23062089.718
       224.000         164.000
  20895450.572     -691177.18249   -536227.99147  20895449.631    20895455.072
       243.000         209.000
  24408356.804    -2304412.96349  -1787781.54245  24408356.197    24408362.234
       212.000         146.000
  20322084.392    -1178669.53149   -914072.39648  20322084.024    20322088.600
       246.000         213.000
  24263889.593    -3203669.59249  -2487216.27745  24263887.650    24263895.781
       209.000         137.000
  22723961.685     3304287.56449   2563595.44746  22723961.149    22723967.954
       226.000         173.000
  22942192.763    -1753451.53949  -1357121.79846  22942192.251    22942199.359
       224.000         170.000
  22647722.355    -3382834.40549  -2428368.71045  22647721.948    22647728.445
       221.000         162.000
  22503300.996     3024707.29749   2340050.47246  22503300.529    22503307.814
       229.000         182.000
  24668222.460     3780106.34349   2400381.40144  24668223.075    24668231.295
       210.000         127.000
 03  6 25 15 15  0.0000000  0 11G21G18G17G16G 6G15G30G29G26G10G 5
  21344432.842    -1860422.27249  -1348293.63947  21344432.337    21344435.639
       242.000         200.000
  23043398.818    -4204601.12849  -3264991.86846  23043398.047    23043403.423
       225.000         164.000
  20893814.340     -699775.76949   -542928.21247  20893813.304    20893818.956
       243.000         208.000
  24394466.628    -2377406.63549  -1844659.74245  24394466.123    24394470.231
       212.000         146.000
  20318766.973    -1196102.96649   -927656.93148  20318766.551    20318771.342
       246.000         214.000
  24249279.941    -3280442.94949  -2547039.67945  24249278.674    24249285.120
       209.000         137.000
  22742414.412     3401256.83449   2639155.81046  22742414.844    22742421.169
       227.000         173.000
  22936006.678    -1785959.08049  -1382452.32546  22936006.633    22936013.377
       223.000         169.000
  22632935.574    -3460539.10249  -2488917.76745  22632935.675    22632942.093
       220.000         162.000
  22520633.123     3115787.60949   2411022.08146  22520631.861    22520639.187
       230.000         181.000
  24688104.364     3884585.43949   2481793.58745  24688103.392    24688112.340
       210.000         132.000
 03  6 25 15 15 30.0000000  0 11G21G18G17G16G 6G15G30G29G26G10G 5
  21337160.872    -1898636.82349  -1378071.22747  21337159.792    21337163.558
       242.000         200.000
  23024757.144    -4302563.51749  -3341326.14546  23024756.503    23024762.295
       225.000         165.000
  20892213.869     -708186.53149   -549482.07547  20892212.832    20892218.417
       243.000         208.000
  24380651.450    -2450006.21849  -1901230.84145  24380650.787    24380656.665
       210.000         146.000
  20315526.656    -1213131.34949   -940925.84148  20315526.424    20315530.945
       246.000         214.000
  24234687.113    -3357128.54549  -2606794.64745  24234685.107    24234693.819
       207.000         138.000
  22760901.787     3498407.73049   2714857.70346  22760901.606    22760907.996
       227.000         172.000
  22929907.844    -1818008.56249  -1407425.91746  22929907.985    22929914.845
       225.000         169.000
  22618210.938    -3537917.76349  -2549212.78545  22618210.259    22618217.636
       221.000         162.000
  22538016.685     3207138.53149   2482204.55046  22538016.016    22538023.290
       230.000         181.000
  24707973.233     3988995.80449   2563152.18645  24707972.766    24707980.837
       211.000         137.000
 03  6 25 15 16  0.0000000  0 11G21G18G17G16G 6G15G30G29G26G10G 5
  21329924.757    -1936662.96349  -1407701.99747  21329923.911    21329927.669
       243.000         201.000
  23006160.593    -4400289.39349  -3417476.12246  23006159.687    23006165.101
       227.000         166.000
  20890648.950     -716410.33949   -555890.25747  20890648.005    20890653.442
       244.000         208.000
  24366911.650    -2522209.68949  -1957493.29345  24366910.849    24366915.666
       213.000         147.000
  20312363.649    -1229753.23549   -953877.99948  20312363.194    20312367.848
       246.000         214.000
  24220110.940    -3433726.46449  -2666481.31845  24220110.007    24220117.571
       212.000         140.000
  22779423.036     3595737.05349   2790698.63846  22779422.874    22779430.342
       226.000         172.000
  22923896.526    -1849598.33749  -1432041.29746  22923895.977    22923902.926
       224.000         169.000
  22603548.955    -3614967.06449  -2609251.14045  22603548.099    22603555.324
       221.000         162.000
  22555451.264     3298757.09149   2553595.56546  22555450.447    22555457.446
       231.000         181.000
  24727828.564     4093334.68749   2644455.09145  24727827.122    24727837.456
       208.000         139.000
 03  6 25 15 16 30.0000000  0 11G21G18G17G16G 6G15G30G29G26G10G 5
  21322724.329    -1974501.49549  -1437186.58747  21322723.496    21322727.028
       242.000         201.000
  22987609.347    -4497777.10249  -3493440.53046  22987608.590    22987614.313
       225.000         167.000
  20889119.572     -724447.37149   -562152.90847  20889118.764    20889124.048
       243.000         208.000
  24353247.526    -2594015.14749  -2013445.60445  24353247.268    24353251.861
       210.000         147.000
  20309278.203    -1245967.54549   -966512.56248  20309277.730    20309282.431
       246.000         214.000
  24205551.526    -3510237.20049  -2726100.04945  24205550.676    24205557.311
       216.000         142.000
  22797977.535     3693241.44449   2866675.98746  22797977.958    22797983.165
       227.000         171.000
  22917972.939    -1880726.79949  -1456297.22846  22917973.037    22917979.292
       224.000         170.000
  22588950.181    -3691683.85949  -2669030.41846  22588950.365    22588956.779
       224.000         163.000
  22572936.180     3390640.40949   2625192.89146  22572935.482    22572941.948
       230.000         181.000
  24747669.689     4197599.45049   2725700.24845  24747669.305    24747677.938
       210.000         141.000
 03  6 25 15 17  0.0000000  0 11G21G18G17G16G 6G15G30G29G26G10G 5
  21315559.738    -2012151.91649  -1466524.59247  21315559.056    21315562.634
       242.000         201.000
  22969103.909    -4595024.09649  -3569217.36246  22969103.451    22969108.618
       226.000         167.000
  20887625.780     -732297.66649   -568270.04547  20887624.898    20887630.420
       243.000         208.000
  24339659.648    -2665419.91749  -2069085.67345  24339659.624    24339664.934
       211.000         148.000
  20306270.697    -1261772.16349   -978827.88148  20306270.392    20306274.922
       245.000         214.000
  24191008.651    -3586660.04249  -2785650.28645  24191008.343    24191014.312
       213.000         145.000
  22816565.009     3790918.64049   2942787.99746  22816565.151    22816571.761
       226.000         171.000
  22912137.633    -1911391.47549  -1480191.76446  22912136.738    22912143.844
       224.000         169.000
  22574415.540    -3768063.93849  -2728547.31946  22574415.407    22574422.403
       222.000         164.000
  22590470.956     3482786.24249   2696994.77246  22590469.863    22590476.801
       229.000         180.000
  24767496.283     4301788.23849   2806886.17945  24767495.690    24767504.251
       204.000         142.000
 03  6 25 15 17 30.0000000  0 11G21G18G17G16G 6G15G30G29G26G10G 5
  21308430.833    -2049614.78549  -1495716.45247  21308429.961    21308433.590
       242.000         201.000
  22950644.625    -4692028.37549  -3644805.05446  22950643.070    22950649.504
       226.000         168.000
  20886167.323     -739962.06949   -574242.33147  20886166.468    20886172.014
       242.000         208.000
  24326148.330    -2736422.01549  -2124411.97345  24326146.929    24326153.061
       210.000         147.000
  20303341.449    -1277165.74049   -990822.91348  20303341.059    20303345.907
       246.000         214.000
  24176482.404    -3662995.33149  -2845132.28845  24176482.529    24176488.383
       215.000         146.000
  22835184.714     3888765.23549   3019031.99846  22835185.230    22835190.984
       226.000         169.000
  22906390.891    -1941590.54449  -1503723.48346  22906391.455    22906396.957
       223.000         169.000
  22559945.550    -3844104.00749  -2787799.25246  22559944.366    22559951.492
       222.000         164.000
  22608055.181     3575191.65649   2768998.93346  22608054.190    22608060.650
       229.000         179.000
  24787307.736     4405898.39949   2888010.86445  24787306.994    24787316.075
       204.000         140.000
 03  6 25 15 18  0.0000000  0 11G21G18G17G16G 6G15G30G29G26G10G 5
  21301337.564    -2086890.28449  -1524762.31547  21301336.901    21301340.521
       242.000         202.000
  22932231.766    -4788788.33849  -3720202.37546  22932230.957    22932236.532
       227.000         168.000
  20884744.238     -747440.43449   -580069.65447  20884743.443    20884748.909
       243.000         208.000
  24312714.075    -2807019.41749  -2179422.90545  24312713.079    24312718.238
       209.000         145.000
  20300490.661    -1292147.05249  -1002496.70148  20300490.303    20300495.066
       246.000         214.000
  24161973.033    -3739243.16849  -2904546.20145  24161971.525    24161978.930
       215.000         148.000
  22853836.098     3986778.20649   3095405.65246  22853835.799    22853842.816
       225.000         169.000
  22900733.055    -1971322.46549  -1526891.18546  22900732.213    22900739.242
       224.000         169.000
  22545540.853    -3919800.80149  -2846783.70646  22545540.747    22545547.221
       223.000         165.000
  22625688.236     3667853.71249   2841203.07546  22625687.742    22625694.507
       229.000         179.000
  24807103.953     4509927.45049   2969072.34045  24807103.430    24807110.522
       201.000         135.000
 03  6 25 15 18 30.0000000  0 10G21G18G17G16G 6G15G30G29G26G10
  21294280.086    -2123977.70549  -1553661.61447  21294279.307    21294282.861
       243.000         202.000
  22913865.890    -4885301.00649  -3795406.98246  22913864.891    22913870.228
       225.000         169.000
  20883356.647     -754732.61249   -585751.89047  20883355.824    20883361.239
       243.000         209.000
  24299357.360    -2877209.27449  -2234116.28145  24299357.775    24299362.102
       210.000         145.000
  20297718.767    -1306713.60149  -1013847.29248  20297718.512    20297723.218
       246.000         214.000
  24147480.294    -3815402.69849  -2963891.30245  24147479.228    24147486.993
       217.000         148.000
  22872518.649     4084955.43849   3171907.30146  22872519.674    22872524.187
       225.000         169.000
  22895164.688    -2000584.47349  -1549692.73046  22895164.348    22895170.312
       224.000         169.000
  22531202.361    -3995149.97549  -2905497.29346  22531201.824    22531208.549
       223.000         165.000
  22643369.769     3760770.20049   2913605.46746  22643368.692    22643375.721
       229.000         179.000
 03  6 25 15 19  0.0000000  0 10G21G18G17G16G 6G15G30G29G26G10
  21287258.384    -2160876.95349  -1582414.28847  21287257.418    21287261.159
       242.000         202.000
  22895547.434    -4981564.58049  -3870417.49946  22895546.073    22895551.837
       226.000         169.000
  20882004.312     -761839.24349   -591289.53847  20882003.430    20882008.885
       242.000         209.000
  24286078.684    -2946989.23649  -2288490.23845  24286078.318    24286082.781
       210.000         144.000
  20295026.128    -1320863.83249  -1024873.48348  20295025.596    20295030.586
       246.000         214.000
  24133004.616    -3891473.73349  -3023167.45245  24133003.779    24133010.325
       216.000         149.000
  22891231.817     4183293.88949   3248534.56646  22891230.711    22891239.108
       223.000         168.000
  22889686.048    -2029374.72449  -1572126.66846  22889685.670    22889692.267
       225.000         169.000
  22516930.749    -4070147.98149  -2963937.23646  22516930.533    22516936.728
       223.000         166.000
  22661099.206     3853938.68349   2986204.21746  22661098.628    22661104.624
       227.000         179.000
 03  6 25 15 19 30.0000000  0 10G21G18G17G16G 6G15G30G29G26G10
  21280272.130    -2197590.24949  -1611022.07047  21280271.355    21280274.821
       242.000         202.000
  22877276.352    -5077579.18849  -3945234.01146  22877276.001    22877280.997
       226.000         169.000
  20880686.879     -768762.32849   -596684.16847  20880686.052    20880691.497
       242.000         209.000
  24272878.041    -3016358.86249  -2342544.49745  24272879.055    24272882.713
       212.000         144.000
  20292412.590    -1334598.11049  -1035575.55848  20292412.245    20292417.054
       246.000         214.000
  24118545.335    -3967458.17549  -3082376.08445  24118544.249    24118551.507
       214.000         149.000
  22909974.847     4281789.07449   3325283.97246  22909975.174    22909981.810
       225.000         168.000
  22884297.315    -2057693.12749  -1594192.93946  22884297.650    22884304.673
       225.000         170.000
  22502726.307    -4144793.19849  -3022102.28146  22502725.797    22502732.213
       224.000         166.000
  22678875.744     3947354.58349   3058995.75446  22678874.822    22678881.583
       227.000         178.000
 03  6 25 15 20  0.0000000  0 10G21G18G17G16G 6G15G30G29G26G10
  21273321.236    -2234117.38949  -1639484.79247  21273320.487    21273324.004
       242.000         201.000
  22859053.207    -5173342.14149  -4019854.43646  22859052.487    22859058.431
       226.000         170.000
  20879404.441     -775501.91249   -601935.81147  20879403.720    20879408.871
       243.000         209.000
  24259756.144    -3085315.61049  -2396277.00545  24259755.551    24259760.550
       209.000         143.000
  20289878.594    -1347914.49049  -1045951.99848  20289878.369    20289883.136
       246.000         214.000
  24104102.685    -4043355.55449  -3141516.85545  24104101.808    24104108.845
       212.000         148.000
  22928747.325     4380438.32849   3402153.41946  22928747.219    22928754.144
       225.000         168.000
  22878998.757    -2085537.45549  -1615889.80846  22878998.639    22879005.398
       225.000         171.000
  22488589.659    -4219081.55049  -3079989.26546  22488588.484    22488596.964
       222.000         167.000
  22696698.913     4041015.69049   3131978.33546  22696697.813    22696704.819
       226.000         178.000
 03  6 25 15 20 30.0000000  0 10G21G18G17G16G 6G15G30G29G26G10
  21266405.861    -2270457.83649  -1667802.02947  21266405.084    21266408.551
       242.000         201.000
  22840878.492    -5268850.69949  -4094276.61446  22840877.240    22840883.363
       227.000         170.000
  20878156.934     -782057.90149   -607044.38847  20878156.073    20878161.383
       243.000         209.000
  24246713.083    -3153857.19949  -2449686.00645  24246712.240    24246717.766
       209.000         144.000
  20287424.480    -1360811.26449  -1056001.46148  20287424.029    20287429.091
       246.000         214.000
  24089676.355    -4119165.53649  -3200589.52945  24089674.835    24089682.786
       212.000         147.000
  22947548.565     4479239.05949   3479140.92046  22947548.553    22947555.063
       225.000         168.000
  22873790.830    -2112905.55049  -1637215.56946  22873790.734    22873796.160
       226.000         171.000
  22474521.485    -4293009.39949  -3137595.31946  22474520.903    22474528.117
       223.000         166.000
  22714568.279     4134919.62049   3205150.17246  22714567.332    22714573.420
       227.000         177.000
 03  6 25 15 21  0.0000000  0 10G21G18G17G16G 6G15G30G29G26G10
  21259526.058    -2306611.37549  -1695973.62947  21259525.267    21259528.801
       242.000         202.000
  22822752.514    -5364103.37449  -4168499.41746  22822751.548    22822757.168
       227.000         170.000
  20876944.307     -788430.51549   -612010.08147  20876943.293    20876948.682
       243.000         209.000
  24233749.361    -3221981.12849  -2502769.57945  24233748.645    24233754.322
       208.000         142.000
  20285050.534    -1373286.71149  -1065722.62648  20285050.032    20285055.095
       246.000         214.000
  24075266.858    -4194887.75449  -3259593.81845  24075265.940    24075272.360
       211.000         146.000
  22966378.023     4578188.52149   3556244.31146  22966377.048    22966384.746
       224.000         167.000
  22868673.886    -2139795.39849  -1658168.69246  22868672.827    22868680.457
       226.000         171.000
  22460522.760    -4366572.90649  -3194917.48646  22460522.274    22460529.632
       224.000         167.000
  22732483.436     4229063.85749   3278509.24646  22732482.840    22732489.513
       228.000         177.000
 03  6 25 15 21 30.0000000  0 10G21G18G17G16G 6G15G30G29G26G10
  21252681.640    -2342579.17849  -1724000.49947  21252680.825    21252684.392
       242.000         202.000
  22804675.532    -5459098.51349  -4242521.54146  22804674.842    22804681.152
       228.000         170.000
  20875766.477     -794620.13149   -616833.17447  20875765.468    20875770.928
       243.000         208.000
  24220865.422    -3289685.91949  -2555526.54945  24220864.135    24220870.403
       209.000         143.000
  20282756.909    -1385340.03549  -1075114.85548  20282756.380    20282761.327
       246.000         214.000
  24060873.913    -4270522.80449  -3318530.18745  24060871.855    24060879.846
       210.000         146.000
  22985235.142     4677283.15349   3633460.82546  22985236.212    22985242.282
       226.000         167.000
  22863648.124    -2166205.78649  -1678748.20346  22863647.346    22863654.540
       226.000         171.000
  22446594.083    -4439769.14449  -3251953.47846  22446593.107    22446600.423
       225.000         168.000
  22750443.623     4323444.98449   3352052.90746  22750442.476    22750449.564
       227.000         177.000
 03  6 25 15 22  0.0000000  0 10G21G18G17G16G 6G15G30G29G26G10
  21245872.649    -2378360.67549  -1751882.19647  21245871.849    21245875.558
       242.000         202.000
  22786647.935    -5553834.00049  -4316341.33946  22786646.823    22786652.589
       227.000         170.000
  20874623.341     -800627.36249   -621514.15047  20874622.480    20874627.738
       242.000         208.000
  24208061.878    -3356969.05149  -2607954.94845  24208061.708    24208066.442
       211.000         144.000
  20280543.919    -1396969.46049  -1084176.77648  20280543.552    20280548.295
       246.000         214.000
  24046497.606    -4346070.40249  -3377398.39845  24046495.458    24046504.045
       212.000         145.000
  23004119.399     4776520.33849   3710788.42846  23004120.559    23004126.052
       225.000         166.000
  22858714.043    -2192134.73149  -1698952.56446  22858713.542    22858719.874
       226.000         171.000
  22432735.889    -4512594.51249  -3308700.49346  22432735.890    22432741.884
       225.000         169.000
  22768448.457     4418060.75749   3425779.40746  22768446.842    22768453.682
       228.000         176.000
 03  6 25 15 22 30.0000000  0 10G21G18G17G16G 6G15G30G29G26G10
  21239098.991    -2413956.40449  -1779619.14347  21239098.218    21239101.791
       242.000         202.000
  22768669.997    -5648308.22949  -4389957.56046  22768668.209    22768675.209
       227.000         170.000
  20873514.816     -806452.65249   -626053.35247  20873513.907    20873519.457
       242.000         208.000
  24195338.776    -3423828.89949  -2660053.51145  24195338.576    24195343.219
       211.000         145.000
  20278411.792    -1408173.89149  -1092907.53348  20278411.488    20278416.399
       246.000         214.000
  24032138.000    -4421530.96849  -3436198.79245  24032137.318    24032143.256
       212.000         147.000
  23023030.239     4875896.85549   3788224.59546  23023031.047    23023037.221
       225.000         165.000
  22853871.811    -2217580.91449  -1718780.74146  22853872.253    22853877.916
       225.000         171.000
  22418948.773    -4585045.78649  -3365156.00946  22418948.765    22418955.334
       225.000         169.000
  22786497.361     4512908.06149   3499686.33146  22786496.207    22786503.558
       226.000         176.000
 03  6 25 15 23  0.0000000  0 10G21G18G17G16G 6G15G30G29G26G10
  21232360.618    -2449367.02149  -1807211.84347  21232359.783    21232363.596
       243.000         202.000
  22750742.163    -5742519.27049  -4463368.70246  22750741.399    22750747.505
       227.000         170.000
  20872440.794     -812096.57949   -630451.23347  20872440.020    20872445.469
       243.000         208.000
  24182696.680    -3490263.58949  -2711820.80445  24182695.818    24182700.322
       214.000         145.000
  20276360.867    -1418952.05049  -1101306.12948  20276360.518    20276365.163
       246.000         214.000
  24017794.944    -4496904.57249  -3494931.45345  24017794.767    24017801.536
       212.000         146.000
  23041967.012     4975409.65249   3865766.93946  23041966.628    23041972.646
       225.000         166.000
  22849121.804    -2242542.54349  -1738231.34846  22849121.083    22849127.940
       224.000         170.000
  22405233.486    -4657119.66949  -3421317.45846  22405232.181    22405239.976
       225.000         169.000
  22804589.767     4607984.17749   3573771.53446  22804589.131    22804595.832
       228.000         175.000
 03  6 25 15 23 30.0000000  0 10G21G18G17G16G 6G15G30G29G26G10
  21225657.656    -2484591.47549  -1834659.48347  21225656.694    21225660.342
       242.000         202.000
  22732864.810    -5836464.78049  -4536572.93246  22732863.426    22732869.835
       228.000         171.000
  20871401.464     -817558.55649   -634707.33447  20871400.850    20871406.130
       243.000         209.000
  24170136.241    -3556270.32749  -2763254.64545  24170136.253    24170140.063
       212.000         145.000
  20274391.371    -1429301.91849  -1109370.99248  20274390.881    20274395.737
       246.000         214.000
  24003468.417    -4572190.41449  -3553595.68245  24003466.966    24003475.677
       214.000         145.000
  23060929.378     5075056.50349   3943413.73446  23060929.761    23060935.402
       225.000         165.000
  22844464.346    -2267017.40949  -1757302.66446  22844463.957    22844470.555
       225.000         170.000
  22391590.885    -4728812.01649  -3477181.60246  22391590.245    22391596.791
       226.000         169.000
  22822725.334     4703286.81249   3648033.25346  22822724.027    22822730.968
       227.000         176.000
 03  6 25 15 24  0.0000000  0 10G21G18G17G16G 6G15G30G29G26G10
  21218989.884    -2519630.84049  -1861962.89447  21218988.950    21218992.632
       243.000         202.000
  22715038.282    -5930143.48149  -4609569.26346  22715037.137    22715043.765
       228.000         172.000
  20870396.541     -822839.74649   -638822.56247  20870395.766    20870401.149
       244.000         209.000
  24157657.283    -3621847.74849  -2814353.93345  24157657.452    24157662.688
       215.000         146.000
  20272503.536    -1439222.79449  -1117101.57548  20272503.208    20272507.895
       246.000         214.000
  23989158.536    -4647389.13349  -3612192.10945  23989158.741    23989164.488
       213.000         143.000
  23079916.523     5174833.65449   4021162.08646  23079916.426    23079923.467
       224.000         166.000
  22839899.742    -2291004.52349  -1775993.90846  22839899.287    22839906.739
       224.000         171.000
  22378021.397    -4800120.09549  -3532746.30146  22378020.319    22378027.574
       223.000         169.000
  22840903.417     4798812.80449   3722469.01046  22840902.362    22840909.725
       228.000         175.000
 03  6 25 15 24 30.0000000  0 10G21G18G17G16G 6G15G30G29G26G10
  21212357.454    -2554484.70549  -1889121.75647  21212356.341    21212360.474
       242.000         202.000
  22697263.047    -6023553.00749  -4682355.83646  22697261.813    22697267.776
       229.000         173.000
  20869426.022     -827940.08249   -642796.86747  20869425.218    20869430.639
       243.000         209.000
  24145260.574    -3686993.58049  -2865116.91845  24145260.194    24145264.479
       215.000         147.000
  20270697.660    -1448712.82849  -1124496.43948  20270697.198    20270702.184
       247.000         214.000
  23974865.327    -4722500.43649  -3670720.38645  23974864.277    23974871.404
       213.000         142.000
  23098927.805     5274738.58749   4099009.99846  23098928.245    23098934.763
       224.000         166.000
  22835428.286    -2314501.99649  -1794303.60546  22835427.552    22835434.909
       225.000         171.000
  22364525.650    -4871040.25949  -3588008.75546  22364524.922    22364531.647
       223.000         168.000
  22859123.440     4894559.60849   3797076.82846  22859122.699    22859129.609
       226.000         174.000
 03  6 25 15 25  0.0000000  0 10G21G18G17G16G 6G15G30G29G26G10
  21205760.200    -2589153.53249  -1916136.43747  21205759.588    21205763.107
       242.000         202.000
  22679539.231    -6116692.20149  -4754931.75846  22679538.142    22679544.432
       228.000         173.000
  20868489.738     -832860.20749   -646630.74547  20868488.846    20868494.364
       243.000         208.000
  24132946.340    -3751706.22249  -2915542.37745  24132946.099    24132950.025
       214.000         147.000
  20268973.996    -1457771.01849  -1131554.79748  20268973.602    20268978.559
       246.000         214.000
  23960588.612    -4797524.86949  -3729180.92245  23960588.130    23960595.173
       212.000         142.000
  23117962.801     5374767.86549   4176954.78546  23117962.488    23117969.390
       225.000         167.000
  22831050.171    -2337508.65149  -1812230.85046  22831049.234    22831057.205
       225.000         171.000
  22351104.384    -4941569.41649  -3642966.52546  22351104.203    22351110.746
       224.000         169.000
  22877384.886     4990524.36249   3871854.48746  22877383.387    22877390.678
       225.000         172.000
 03  6 25 15 25 30.0000000  0 10G21G18G17G16G 6G15G30G29G26G10
  21199198.139    -2623637.71149  -1943007.23747  21199197.371    21199201.091
       242.000         202.000
  22661867.346    -6209558.50849  -4827295.04646  22661866.486    22661871.786
       229.000         174.000
  20867587.684     -837600.46749   -650324.47147  20867586.680    20867592.269
       243.000         208.000
  24120714.851    -3815983.17149  -2965628.32045  24120713.577    24120718.490
       214.000         147.000
  20267332.767    -1466395.85049  -1138275.47948  20267332.358    20267337.112
       246.000         214.000
  23946328.537    -4872461.98749  -3787573.47645  23946326.493    23946334.576
       211.000         141.000
  23137021.129     5474919.07349   4254994.60546  23137020.834    23137027.804
       225.000         167.000
  22826765.930    -2360022.43649  -1829774.04346  22826766.039    22826771.904
       224.000         171.000
  22337758.308    -5011703.92349  -3697616.75146  22337758.282    22337764.492
       224.000         169.000
  22895687.369     5086704.45549   3946799.92846  22895686.526    22895693.232
       224.000         171.000
 03  6 25 15 26  0.0000000  0 10G21G18G17G16G 6G15G30G29G26G10
  21192671.350    -2657936.42649  -1969733.51947  21192670.709    21192674.351
       244.000         203.000
  22644247.644    -6302150.59449  -4899444.66146  22644246.394    22644252.386
       229.000         174.000
  20866719.833     -842161.09849   -653878.22647  20866718.931    20866724.441
       244.000         208.000
  24108566.617    -3879822.58949  -3015373.33745  24108566.437    24108570.715
       215.000         149.000
  20265774.248    -1474586.09549  -1144657.52048  20265773.827    20265778.699
       246.000         214.000
  23932084.930    -4947312.01749  -3845898.13445  23932083.743    23932090.052
       212.000         141.000
  23156101.981     5575189.08849   4333127.01246  23156101.514    23156108.829
       224.000         166.000
  22822575.729    -2382041.89149  -1846932.05846  22822575.989    22822582.028
       225.000         171.000
  22324487.896    -5081440.41649  -3751956.83546  22324487.339    22324494.196
       224.000         169.000
  22914030.351     5183097.36149   4021911.20546  22914029.537    22914035.958
       224.000         170.000
 03  6 25 15 26 30.0000000  0 10G21G18G17G16G 6G15G30G29G26G10
  21186179.691    -2692050.59249  -1996315.99747  21186178.884    21186182.477
       243.000         203.000
  22626680.476    -6394466.43649  -4971379.01046  22626679.606    22626684.641
       230.000         174.000
  20865886.113     -846542.37449   -657292.22747  20865885.238    20865890.573
       243.000         208.000
  24096501.919    -3943222.77949  -3064776.09745  24096501.499    24096505.599
       215.000         150.000
  20264298.610    -1482340.66649  -1150700.07348  20264298.188    20264303.201
       246.000         214.000
  23917858.098    -5022075.08349  -3904155.06345  23917856.373    23917863.997
       215.000         142.000
  23175204.725     5675574.79549   4411349.57346  23175204.140    23175212.849
       223.000         165.000
  22818479.934    -2403565.68049  -1863703.82146  22818480.195    22818485.536
       225.000         172.000
  22311293.768    -5150775.70649  -3805984.30046  22311293.203    22311300.988
       224.000         169.000
  22932413.232     5279700.08849   4097185.97546  22932412.361    22932419.071
       224.000         169.000
 03  6 25 15 27  0.0000000  0 10G21G18G17G16G 6G15G30G29G26G10
  21179723.079    -2725980.41249  -2022754.82547  21179722.163    21179725.740
       243.000         203.000
  22609166.175    -6486504.34349  -5043096.81846  22609165.850    22609170.518
       229.000         173.000
  20865086.421     -850744.88749   -660566.93247  20865085.812    20865090.936
       243.000         208.000
  24084521.114    -4006182.07649  -3113835.30845  24084520.803    24084525.735
       212.000         150.000
  20262906.116    -1489658.33649  -1156402.18748  20262905.742    20262910.471
       246.000         214.000
  23903647.781    -5096750.96449  -3962344.05145  23903647.229    23903654.025
       216.000         145.000
  23194328.840     5776072.98949   4489659.76646  23194328.560    23194335.948
       222.000         163.000
  22814478.693    -2424592.37949  -1880088.24346  22814477.966    22814485.132
       225.000         172.000
  22298176.640    -5219706.68149  -3859696.71846  22298176.264    22298183.834
       225.000         169.000
  22950835.611     5376509.94649   4172622.16046  22950834.998    22950841.560
       225.000         170.000
 03  6 25 15 27 30.0000000  0 10G21G18G17G16G 6G15G30G29G26G10
  21173301.611    -2759725.34949  -2049049.59047  21173300.999    21173304.447
       243.000         203.000
  22591705.112    -6578262.27849  -5114596.43446  22591704.528    22591710.137
       228.000         174.000
  20864320.752     -854768.77849   -663702.45547  20864319.962    20864325.445
       243.000         208.000
  24072624.791    -4068698.23649  -3162549.19945  24072623.869    24072629.062
       215.000         151.000
  20261597.122    -1496537.55249  -1161762.65048  20261596.818    20261601.848
       247.000         214.000
  23889454.003    -5171339.78949  -4020465.18045  23889453.406    23889460.402
       216.000         147.000
  23213473.852     5876681.22049   4568055.71745  23213473.487    23213481.670
       221.000         161.000
  22810572.390    -2445120.20749  -1896083.94646  22810572.179    22810578.990
       226.000         172.000
  22285137.141    -5288229.67149  -3913091.22646  22285136.461    22285144.225
       226.000         169.000
  22969296.948     5473524.42749   4248217.76946  22969295.348    22969303.968
       226.000         171.000
 03  6 25 15 28  0.0000000  0 10G21G18G17G16G 6G15G30G29G26G10
  21166915.223    -2793286.25049  -2075200.94847  21166914.370    21166917.876
       243.000         203.000
  22574297.731    -6669738.72549  -5185876.72546  22574296.540    22574302.928
       229.000         174.000
  20863588.972     -858614.59049   -666699.21447  20863587.929    20863593.461
       243.000         208.000
  24060813.063    -4130769.45549  -3210916.39345  24060812.076    24060817.777
       215.000         152.000
  20260371.744    -1502977.17649  -1166780.57148  20260371.327    20260376.279
       246.000         214.000
  23875276.747    -5245841.56649  -4078518.48345  23875275.441    23875283.242
       216.000         150.000
  23232639.307     5977396.38349   4646534.98145  23232639.159    23232646.498
       220.000         161.000
  22806761.244    -2465147.93849  -1911689.95946  22806760.768    22806767.956
       225.000         172.000
  22272175.875    -5356341.60049  -3966165.43846  22272175.144    22272182.466
       224.000         170.000
  22987796.674     5570740.66749   4323970.58646  22987796.350    22987802.893
       227.000         172.000
 03  6 25 15 28 30.0000000  0 10G21G18G17G16G 6G15G30G29G26G10
  21160563.888    -2826662.85349  -2101208.70047  21160562.937    21160566.606
       243.000         203.000
  22556944.179    -6760932.09549  -5256936.42246  22556944.043    22556949.215
       229.000         175.000
  20862890.927     -862282.77449   -669557.55947  20862889.952    20862895.469
       243.000         208.000
  24049086.308    -4192393.91749  -3258935.46345  24049085.994    24049091.354
       214.000         152.000
  20259230.242    -1508976.12849  -1171455.11148  20259229.927    20259234.723
       246.000         214.000
  23861116.101    -5320256.54449  -4136504.16845  23861115.853    23861122.806
       217.000         151.000
  23251824.561     6078215.33249   4725095.13545  23251824.107    23251831.912
       220.000         160.000
  22803045.414    -2484674.37249  -1926905.34846  22803046.010    22803051.833
       226.000         173.000
  22259293.353    -5424039.30949  -4018916.86646  22259293.212    22259299.702
       225.000         169.000
  23006334.291     5668155.90349   4399878.48546  23006333.297    23006340.892
       227.000         173.000
 03  6 25 15 29  0.0000000  0 10G21G18G17G16G 6G15G30G29G26G10
  21154247.521    -2859855.68349  -2127073.25547  21154246.550    21154250.177
       244.000         203.000
  22539644.843    -6851840.63549  -5327774.17746  22539644.219    22539649.468
       230.000         175.000
  20862226.748     -865773.22549   -672277.41447  20862225.822    20862231.098
       243.000         208.000
  24037444.902    -4253569.77049  -3306604.97045  24037444.034    24037449.506
       211.000         152.000
  20258172.837    -1514533.03249  -1175785.20248  20258172.259    20258177.261
       246.000         214.000
  23846972.067    -5394584.72649  -4194422.20745  23846970.746    23846977.426
       217.000         152.000
  23271028.999     6179135.03549   4803733.78345  23271028.602    23271037.734
       221.000         161.000
  22799425.382    -2503697.88049  -1941728.84446  22799424.607    22799432.019
       226.000         173.000
  22246490.352    -5491319.24749  -4071342.76646  22246490.125    22246496.385
       227.000         170.000
  23024909.335     5765767.49749   4475939.38946  23024908.947    23024915.451
       228.000         173.000
 03  6 25 15 29 30.0000000  0 10G21G18G17G16G 6G15G30G29G26G10
  21147966.172    -2892864.51849  -2152794.43847  21147965.148    21147969.041
       243.000         203.000
  22522400.117    -6942462.16949  -5398388.29446  22522399.947    22522404.738
       230.000         176.000
  20861596.317     -869086.10549   -674858.89947  20861595.448    20861600.858
       243.000         208.000
  24025889.249    -4314295.17249  -3353923.48045  24025888.503    24025893.825
       214.000         153.000
  20257199.773    -1519646.70849  -1179769.91848  20257199.343    20257204.305
       246.000         214.000
  23832844.398    -5468825.97649  -4252272.52645  23832843.506    23832849.920
       215.000         152.000
  23290252.128     6280152.83449   4882448.87845  23290251.894    23290258.421
       221.000         161.000
  22795901.290    -2522217.14049  -1956159.43346  22795900.876    22795907.613
       226.000         173.000
  22233767.469    -5558178.26649  -4123440.67346  22233766.454    22233774.285
       225.000         170.000
  23043521.241     5863572.91849   4552151.31146  23043520.842    23043528.163
       226.000         173.000
 03  6 25 15 30  0.0000000  0 10G21G18G17G16G 6G15G30G29G26G10
  21141719.806    -2925689.53249  -2178372.38547  21141718.943    21141722.516
       243.000         203.000
  22505210.323    -7032795.10649  -5468777.53546  22505209.817    22505215.156
       230.000         176.000
  20860999.605     -872222.01449   -677302.49047  20860998.861    20861004.118
       243.000         208.000
  24014419.674    -4374568.12749  -3400889.43045  24014419.074    24014424.369
       215.000         153.000
  20256311.307    -1524315.84949  -1183408.24548  20256310.788    20256315.734
       246.000         214.000
  23818733.220    -5542980.28149  -4310055.05745  23818731.225    23818738.846
       214.000         151.000
  23309493.283     6381265.66949   4961238.03745  23309493.893    23309501.430
       222.000         161.000
  22792473.441    -2540230.52549  -1970195.83046  22792472.510    22792479.407
       226.000         173.000
  22221125.252    -5624613.05349  -4175208.01046  22221125.555    22221131.150
       226.000         170.000
  23062169.502     5961569.62749   4628512.29046  23062168.323    23062176.235
       226.000         172.000
 03  6 25 15 30 30.0000000  0 10G21G18G17G16G 6G15G30G29G26G10
  21135508.397    -2958330.87249  -2203807.21047  21135507.573    21135511.212
       242.000         203.000
  22488075.782    -7122837.94549  -5538940.72646  22488075.060    22488080.534
       231.000         176.000
  20860436.501     -875181.37649   -679608.51047  20860435.701    20860441.095
       243.000         208.000
  24003036.553    -4434387.13449  -3447501.66245  24003035.864    24003041.067
       213.000         154.000
  20255507.575    -1528539.47049  -1186699.41348  20255506.984    20255512.195
       246.000         214.000
  23804638.612    -5617047.72249  -4367769.93545  23804638.102    23804645.905
       213.000         151.000
  23328752.076     6482470.42349   5040098.81845  23328752.231    23328759.445
       222.000         161.000
  22789142.125    -2557737.10749  -1983837.31946  22789141.755    22789148.342
       226.000         173.000
  22208564.453    -5690620.58549  -4226642.42046  22208564.461    22208571.568
       227.000         172.000
  23080853.508     6059754.53149   4705019.91746  23080852.738    23080859.425
       226.000         172.000
 03  6 25 15 31  0.0000000  0 10G21G18G17G16G 6G15G30G29G26G10
  21129331.869    -2990788.69749  -2229099.04147  21129331.068    21129334.702
       243.000         203.000
  22470996.719    -7212588.80749  -5608876.41346  22470996.183    22471001.291
       232.000         176.000
  20859906.955     -877964.17949   -681776.95547  20859906.147    20859911.549
       243.000         208.000
  23991740.045    -4493750.21249  -3493758.61445  23991739.175    23991746.132
       214.000         153.000
  20254788.899    -1532316.19649  -1189642.35548  20254788.472    20254793.683
       246.000         214.000
  23790560.476    -5691028.44249  -4425417.20945  23790558.919    23790565.579
       212.000         150.000
  23348027.952     6583764.45249   5119029.17345  23348028.346    23348034.960
       222.000         161.000
  22785907.461    -2574735.47249  -1997082.80146  22785906.335    22785913.402
       226.000         173.000
  22196085.581    -5756197.37449  -4277741.18146  22196085.450    22196092.377
       226.000         173.000
  23099572.895     6158125.12549   4781672.23446  23099572.079    23099579.562
       226.000         171.000
 03  6 25 15 31 30.0000000  0 10G21G18G17G16G 6G15G30G29G26G10
  21123190.248    -3023063.08849  -2254247.93347  21123189.490    21123193.160
       244.000         204.000
  22453973.559    -7302045.92049  -5678583.19546  22453973.008    22453978.633
       231.000         177.000
  20859410.908     -880571.07049   -683808.32347  20859410.201    20859415.474
       243.000         208.000
  23980530.710    -4552655.57949  -3539658.89245  23980530.264    23980536.184
       212.000         152.000
  20254155.466    -1535645.09649  -1192236.33148  20254154.980    20254160.016
       246.000         214.000
  23776498.783    -5764922.72349  -4482997.12445  23776497.813    23776504.758
       209.000         149.000
  23367320.159     6685144.68749   5198026.68545  23367320.051    23367326.870
       220.000         160.000
  22782769.773    -2591224.25049  -2009931.18646  22782769.577    22782776.431
       227.000         174.000
  22183689.376    -5821340.32749  -4328501.89646  22183688.852    22183696.428
       228.000         174.000
  23118327.141     6256678.73349   4858467.17046  23118326.286    23118333.696
       227.000         171.000
 03  6 25 15 32  0.0000000  0 10G21G18G17G16G 6G15G30G29G26G10
  21117083.649    -3055153.73949  -2279253.65547  21117082.838    21117086.258
       243.000         204.000
  22437006.600    -7391207.51249  -5748059.71146  22437005.774    22437010.654
       231.000         177.000
  20858948.379     -883001.89649   -685702.50247  20858947.381    20858953.070
       244.000         208.000
  23969408.764    -4611101.31849  -3585201.03345  23969408.923    23969413.953
       211.000         150.000
  20253607.550    -1538524.61349  -1194480.14348  20253607.170    20253612.054
       246.000         214.000
  23762453.617    -5838730.02649  -4540509.25845  23762452.207    23762460.304
       211.000         149.000
  23386628.095     6786608.47849   5277089.31945  23386628.454    23386634.869
       217.000         159.000
  22779729.412    -2607201.75249  -2022381.18446  22779728.992    22779735.141
       226.000         174.000
  22171376.319    -5886045.84349  -4378921.75246  22171376.226    22171383.133
       227.000         174.000
  23137115.790     6355413.13849   4935402.98046  23137114.519    23137122.578
       224.000         170.000
 03  6 25 15 32 30.0000000  0 10G21G18G17G16G 6G15G30G29G26G10
  21111011.785    -3087061.74849  -2304117.05447  21111011.021    21111014.721
       243.000         204.000
  22420096.401    -7480071.36349  -5817304.21746  22420095.771    22420100.458
       231.000         177.000
  20858519.252     -885257.23449   -687459.93847  20858518.438    20858523.981
       243.000         208.000
  23958374.624    -4669085.59449  -3630383.58645  23958373.803    23958379.904
       211.000         149.000
  20253145.349    -1540953.62149  -1196372.90948  20253144.800    20253149.887
       247.000         214.000
  23748424.939    -5912450.51349  -4597953.74145  23748424.918    23748431.586
       209.000         150.000
  23405951.305     6888152.84049   5356214.71045  23405951.547    23405959.162
       219.000         158.000
  22776786.457    -2622667.00549  -2034432.02946  22776785.150    22776792.964
       225.000         174.000
  22159147.121    -5950310.99849  -4428998.48146  22159147.122    22159153.351
       228.000         176.000
  23155938.252     6454325.65149   5012477.56546  23155938.697    23155944.183
       225.000         168.000
 03  6 25 15 33  0.0000000  0 10G21G18G17G16G 6G15G30G29G26G10
  21104974.811    -3118786.48149  -2328837.63847  21104973.981    21104977.467
       245.000         204.000
  22403242.980    -7568636.61049  -5886316.03946  22403241.858    22403247.820
       230.000         177.000
  20858123.391     -887337.68749   -689081.09847  20858122.502    20858128.144
       243.000         208.000
  23947428.822    -4726607.14949  -3675205.58745  23947428.560    23947433.881
       213.000         150.000
  20252768.964    -1542931.58549  -1197914.20448  20252768.560    20252773.636
       246.000         214.000
  23734412.878    -5986084.71749  -4655330.99545  23734412.768    23734419.416
       214.000         151.000
  23425289.344     6989774.41249   5435400.29645  23425289.899    23425295.828
       219.000         158.000
  22773941.174    -2637619.19549  -2046083.07846  22773940.779    22773947.436
       226.000         173.000
  22147002.237    -6014132.89349  -4478729.79246  22147002.050    22147008.554
       227.000         176.000
  23174794.038     6553413.06549   5089688.45246  23174792.555    23174800.831
       224.000         167.000
 03  6 25 15 33 30.0000000  0 10G21G18G17G16G 6G15G30G29G26G10
  21098972.674    -3150328.11149  -2353415.54547  21098971.896    21098975.496
       244.000         205.000
  22386446.604    -7656901.61549  -5955093.90746  22386445.326    22386450.855
       231.000         178.000
  20857760.830     -889243.12749   -690565.89147  20857759.933    20857765.363
       243.000         208.000
  23936571.306    -4783664.20049  -3719665.63845  23936570.467    23936575.307
       214.000         151.000
  20252478.690    -1544457.28549  -1199103.08848  20252478.331    20252483.135
       246.000         214.000
  23720417.227    -6059632.60049  -4712640.99245  23720416.507    23720423.823
       215.000         153.000
  23444641.705     7091470.26349   5514643.73045  23444642.312    23444648.780
       221.000         161.000
  22771193.686    -2652057.08049  -2057333.36346  22771193.031    22771199.024
       225.000         173.000
  22134942.190    -6077508.44449  -4528113.30746  22134941.999    22134948.534
       226.000         175.000
  23193682.626     6652672.72449   5167033.55246  23193680.289    23193689.197
       222.000         166.000
 03  6 25 15 34  0.0000000  0 10G21G18G17G16G 6G15G30G29G26G10
  21093005.343    -3181686.68049  -2377850.81247  21093004.407    21093007.875
       244.000         205.000
  22369707.753    -7744864.47149  -6023636.34346  22369706.654    22369712.523
       230.000         178.000
  20857431.567     -890973.60049   -691914.34647  20857430.761    20857436.132
       243.000         208.000
  23925802.405    -4840254.87749  -3763762.28245  23925802.102    23925805.914
       214.000         151.000
  20252274.718    -1545529.23449  -1199938.40248  20252274.352    20252279.108
       246.000         214.000
  23706438.168    -6133093.82349  -4769883.43045  23706437.755    23706444.535
       213.000         153.000
  23464007.574     7193237.79049   5593943.01945  23464007.406    23464013.495
       220.000         160.000
  22768544.395    -2665979.11849  -2068181.71046  22768544.455    22768550.979
       226.000         172.000
  22122967.840    -6140434.05149  -4577146.21646  22122968.198    22122973.933
       225.000         174.000
  23212603.547     6752102.52749   5244511.21846  23212602.740    23212610.545
       223.000         165.000
 03  6 25 15 34 30.0000000  0 10G21G18G17G16G 6G15G30G29G26G10
  21087072.843    -3212862.29849  -2402143.51147  21087071.874    21087075.441
       244.000         205.000
  22353026.694    -7832523.57049  -6091942.08546  22353025.363    22353030.920
       232.000         179.000
  20857135.488     -892529.36749   -693126.66347  20857134.536    20857140.260
       243.000         208.000
  23915122.634    -4896377.52249  -3807494.18945  23915122.115    23915127.061
       213.000         151.000
  20252157.325    -1546146.50349  -1200419.41348  20252156.774    20252161.769
       246.000         214.000
  23692475.369    -6206468.48549  -4827058.44745  23692473.752    23692480.893
       215.000         153.000
  23483386.499     7295074.11949   5673295.93645  23483387.609    23483392.894
       222.000         161.000
  22765993.509    -2679384.10049  -2078627.14346  22765993.910    22765999.505
       226.000         173.000
  22111079.552    -6202906.71849  -4625826.17146  22111078.879    22111086.159
       225.000         173.000
  23231556.329     6851699.69049   5322119.30746  23231554.869    23231562.656
       224.000         166.000
 03  6 25 15 35  0.0000000  0 10G21G18G17G16G 6G15G30G29G26G10
  21081175.167    -3243854.96749  -2426293.66347  21081174.177    21081177.822
       243.000         204.000
  22336403.942    -7919876.67149  -6160009.38346  22336402.830    22336408.576
       232.000         179.000
  20856872.691     -893910.61549   -694202.99447  20856871.588    20856877.517
       243.000         208.000
  23904532.330    -4952029.96949  -3850859.74745  23904532.696    23904536.416
       214.000         151.000
  20252126.656    -1546307.77449  -1200545.10348  20252126.105    20252131.136
       246.000         214.000
  23678529.103    -6279756.14249  -4884165.66045  23678529.055    23678535.105
       216.000         153.000
  23502778.004     7396976.63649   5752700.43245  23502777.466    23502784.688
       220.000         160.000
  22763541.329    -2692270.68849  -2088668.63146  22763540.979    22763548.207
       226.000         173.000
  22099278.174    -6264922.92449  -4674150.45446  22099277.219    22099285.099
       226.000         174.000
  23250540.539     6951461.97349   5399856.07146  23250539.946    23250546.453
       223.000         167.000
 03  6 25 15 35 30.0000000  0 11G23G21G18G17G16G 6G15G30G29G26G10
  24511618.668    -3050419.03949  -2353259.76545  24511618.090    24511627.562
       208.000         136.000
  21075311.616    -3274667.89149  -2450303.74447  21075310.896    21075314.420
       244.000         204.000
  22319839.115    -8006925.15549  -6227839.32946  22319838.248    22319843.521
       233.000         179.000
  20856642.502     -895120.41349   -695145.72347  20856641.528    20856647.225
       243.000         208.000
  23894031.281    -5007213.68749  -3893860.05845  23894029.737    23894036.520
       214.000         152.000
  20252182.437    -1546014.69049  -1200316.75048  20252182.016    20252187.073
       246.000         214.000
  23664599.022    -6352959.67649  -4941207.29545  23664598.090    23664604.979
       217.000         154.000
  23522180.902     7498939.49349   5832151.95545  23522180.393    23522186.234
       219.000         158.000
  22761187.380    -2704640.70949  -2098307.59946  22761186.858    22761193.613
       225.000         173.000
  22087563.785    -6326482.53249  -4722118.93046  22087563.788    22087570.460
       226.000         174.000
  23269555.216     7051383.90949   5477717.23446  23269554.103    23269562.241
       223.000         167.000
 03  6 25 15 36  0.0000000  0 11G23G21G18G17G16G 6G15G30G29G26G10
  24492483.042    -3150978.16749  -2431617.54145  24492482.427    24492490.692
       209.000         136.000
  21069482.957    -3305297.75949  -2474171.18647  21069481.971    21069485.824
       243.000         204.000
  22303333.160    -8093664.48349  -6295428.37346  22303332.214    22303337.368
       232.000         180.000
  20856445.381     -896156.48749   -695953.08947  20856444.564    20856450.137
       244.000         208.000
  23883620.096    -5061924.34549  -3936491.73445  23883619.564    23883624.402
       214.000         152.000
  20252325.356    -1545263.65549  -1199731.54548  20252324.837    20252330.018
       246.000         214.000
  23650685.258    -6426076.65149  -4998181.52645  23650684.272    23650691.654
       218.000         153.000
  23541595.288     7600962.65649   5911650.43945  23541594.173    23541602.369
       218.000         157.000
  22758932.500    -2716490.21049  -2107540.96346  22758932.179    22758938.377
       226.000         173.000
  22075937.413    -6387579.69149  -4769727.07846  22075937.237    22075943.685
       227.000         174.000
  23288600.220     7151465.62349   5555702.90446  23288598.689    23288606.105
       222.000         166.000
 03  6 25 15 36 30.0000000  0 11G23G21G18G17G16G 6G15G30G29G26G10
  24473378.669    -3251372.89549  -2509847.23745  24473378.573    24473388.055
       208.000         135.000
  21063689.160    -3335744.28249  -2497895.75547  21063688.242    21063692.029
       244.000         205.000
  22286886.354    -8180092.98449  -6362775.19346  22286885.360    22286890.956
       232.000         180.000
  20856281.348     -897018.82249   -696625.07247  20856280.487    20856285.982
       243.000         208.000
  23873299.455    -5116159.76449  -3978753.10545  23873298.399    23873303.744
       215.000         151.000
  20252555.704    -1544053.27249  -1198788.41248  20252555.288    20252560.185
       246.000         214.000
  23636788.101    -6499106.83749  -5055088.13645  23636787.003    23636794.463
       219.000         154.000
  23561020.493     7703043.38949   5991193.79245  23561020.605    23561026.790
       217.000         155.000
  22756776.856    -2727817.93449  -2116367.74046  22756776.342    22756782.684
       226.000         173.000
  22064399.672    -6448211.06149  -4816972.26546  22064398.885    22064405.438
       227.000         174.000
  23307675.140     7251704.84949   5633811.30246  23307674.033    23307681.601
       223.000         167.000
 03  6 25 15 37  0.0000000  0 11G23G21G18G17G16G 6G15G30G29G26G10
  24454305.970    -3351601.20549  -2587947.23445  24454304.727    24454313.438
       209.000         134.000
  21057930.297    -3366007.59049  -2521477.55947  21057929.709    21057933.063
       244.000         205.000
  22270499.011    -8266208.68749  -6429878.28446  22270498.255    22270503.760
       232.000         180.000
  20856150.343     -897707.31449   -697161.59147  20856149.508    20856155.030
       243.000         208.000
  23863069.583    -5169918.22449  -4020642.82545  23863068.611    23863073.731
       215.000         152.000
  20252873.647    -1542382.39849  -1197486.45148  20252873.128    20252878.341
       245.000         214.000
  23622907.475    -6572050.01749  -5111926.94345  23622906.912    23622913.624
       219.000         153.000
  23580456.266     7805179.10449   6070779.99145  23580456.390    23580462.049
       217.000         155.000
  22754720.762    -2738622.59849  -2124786.93146  22754719.675    22754726.278
       225.000         173.000
  22052951.109    -6508373.29249  -4863851.88046  22052951.339    22052957.090
       227.000         174.000
  23326779.578     7352098.87149   5712040.32046  23326779.057    23326786.283
       223.000         167.000
 03  6 25 15 37 30.0000000  0 11G23G21G18G17G16G 6G15G30G29G26G10
  24435265.276    -3451661.59849  -2665916.40445  24435265.358    24435273.172
       206.000         133.000
  21052206.223    -3396088.02649  -2544916.86947  21052205.471    21052209.387
       244.000         206.000
  22254171.515    -8352010.31549  -6496736.64746  22254170.448    22254175.957
       232.000         180.000
  20856052.399     -898222.11149   -697562.77047  20856051.506    20856057.172
       243.000         208.000
  23852930.782    -5223198.48249  -4062159.90245  23852929.900    23852935.853
       216.000         152.000
  20253279.411    -1540250.23449  -1195825.04248  20253278.747    20253284.270
       245.000         214.000
  23609043.382    -6644906.31249  -5168698.02845  23609042.740    23609049.416
       221.000         153.000
  23599901.917     7907366.62849   6150406.56345  23599902.158    23599909.705
       218.000         156.000
  22752764.262    -2748903.37449  -2132797.88846  22752763.829    22752770.945
       226.000         173.000
  22041592.449    -6568063.66849  -4910363.81946  22041592.473    22041599.213
       228.000         175.000
  23345913.085     7452645.16249   5790387.96946  23345912.201    23345920.051
       222.000         167.000
 03  6 25 15 38  0.0000000  0 11G23G21G18G17G16G 6G15G30G29G26G10
  24416256.589    -3551552.82949  -2743753.74345  24416257.497    24416265.391
       206.000         132.000
  21046516.792    -3425986.68549  -2568214.53547  21046515.950    21046519.515
       244.000         206.000
  22237903.830    -8437497.21749  -6563349.75846  22237902.840    22237908.414
       233.000         181.000
  20855987.336     -898564.19949   -697829.37247  20855986.481    20855992.090
       242.000         208.000
  23842883.060    -5275999.86749  -4103303.84045  23842882.026    23842888.598
       216.000         152.000
  20253772.966    -1537656.66049  -1193804.08848  20253772.445    20253777.670
       245.000         214.000
  23595195.648    -6717676.68249  -5225402.16045  23595193.647    23595201.070
       219.000         153.000
  23619356.741     8009602.38649   6230070.71945  23619357.189    23619364.528
       217.000         156.000
  22750907.691    -2758659.99049  -2140400.41246  22750906.315    22750914.418
       226.000         172.000
  22030324.023    -6627279.82549  -4956506.23146  22030323.754    22030330.084
       229.000         176.000
  23365074.777     7553340.47549   5868851.76646  23365074.126    23365081.936
       221.000         166.000
 03  6 25 15 38 30.0000000  0 11G23G21G18G17G16G 6G15G30G29G26G10
  24397280.705    -3651272.08449  -2821457.09444  24397278.985    24397286.591
       203.000         128.000
  21040862.043    -3455702.60449  -2591369.80647  21040860.965    21040864.619
       243.000         206.000
  22221696.533    -8522666.75549  -6629715.57346  22221695.730    22221701.274
       233.000         181.000
  20855955.107     -898733.60549   -697961.41247  20855954.223    20855959.667
       243.000         208.000
  23832926.903    -5328319.58049  -4144072.44745  23832925.649    23832931.754
       217.000         152.000
  20254354.732    -1534599.55449  -1191421.94648  20254354.222    20254359.323
       246.000         214.000
  23581364.365    -6790360.19949  -5282038.63645  23581363.412    23581369.491
       219.000         152.000
  23638820.429     8111884.34549   6309770.86745  23638820.705    23638827.069
       219.000         156.000
  22749151.057    -2767890.51049  -2147592.98146  22749150.341    22749157.054
       225.000         172.000
  22019146.521    -6686017.95849  -5002276.15946  22019146.412    22019152.856
       229.000         176.000
  23384264.617     7654183.03849   5947430.28846  23384263.661    23384271.749
       222.000         167.000
 03  6 25 15 39  0.0000000  0 11G23G21G18G17G16G 6G15G30G29G26G10
  24378337.493    -3750818.50049  -2899025.70644  24378335.669    24378346.377
       201.000         127.000
  21035241.988    -3485236.03949  -2614382.88447  21035241.086    21035244.629
       243.000         205.000
  22205549.998    -8607517.31149  -6695832.83246  22205548.788    22205554.172
       233.000         181.000
  20855955.689     -898730.68049   -697959.17347  20855954.913    20855960.414
       243.000         208.000
  23823062.641    -5380156.81549  -4184465.12145  23823061.038    23823066.668
       219.000         153.000
  20255024.712    -1531078.69649  -1188678.43648  20255024.229    20255029.309
       246.000         214.000
  23567549.569    -6862957.21049  -5338607.71345  23567548.346    23567554.268
       218.000         152.000
  23658292.362     8214209.11849   6389504.38745  23658291.775    23658298.629
       218.000         156.000
  22747494.586    -2776594.86649  -2154375.56746  22747494.317    22747500.494
       226.000         172.000
  22008060.412    -6744275.54249  -5047671.63546  22008060.027    22008067.013
       229.000         176.000
  23403481.890     7755169.89349   6026121.25146  23403481.017    23403488.683
       223.000         167.000
 03  6 25 15 39 30.0000000  0 11G23G21G18G17G16G 6G15G30G29G26G10
  24359427.464    -3850190.12749  -2976458.07444  24359427.309    24359436.804
       203.000         128.000
  21029656.614    -3514587.11249  -2637253.85647  21029655.652    21029659.376
       243.000         205.000
  22189464.296    -8692047.91549  -6761700.77146  22189463.064    22189468.679
       233.000         181.000
  20855989.059     -898555.68949   -697822.84647  20855988.310    20855993.842
       243.000         208.000
  23813290.407    -5431510.25949  -4224480.78245  23813289.872    23813295.280
       217.000         153.000
  20255783.147    -1527093.16349  -1185572.83948  20255782.673    20255787.922
       245.000         214.000
  23553751.224    -6935468.32449  -5395109.83245  23553750.308    23553757.260
       216.000         152.000
  23677771.736     8316573.75349   6469268.96545  23677772.050    23677779.254
       217.000         155.000
  22745938.546    -2784771.91949  -2160747.26146  22745938.125    22745944.561
       225.000         173.000
  21997066.355    -6802049.77249  -5092690.46646  21997067.027    21997072.845
       230.000         177.000
  23422726.187     7856298.35749   6104922.56246  23422724.815    23422733.318
       222.000         167.000
 03  6 25 15 40  0.0000000  0 11G23G21G18G17G16G 6G15G30G29G26G10
  24340551.224    -3949384.81949  -3053752.62244  24340550.308    24340559.022
       198.000         128.000
  21024105.952    -3543755.96349  -2659982.83847  21024104.995    21024108.872
       243.000         205.000
  22173439.799    -8776256.88849  -6827318.09146  22173438.888    22173444.237
       233.000         182.000
  20856055.190     -898208.45049   -697552.30447  20856054.444    20856059.955
       243.000         208.000
  23803610.517    -5482378.17349  -4264118.13945  23803610.833    23803616.117
       218.000         154.000
  20256630.253    -1522641.75349  -1182104.21948  20256629.737    20256634.850
       245.000         214.000
  23539969.066    -7007893.02149  -5451544.59945  23539968.099    23539974.046
       218.000         151.000
  23697258.141     8418975.71449   6549062.60845  23697257.570    23697265.222
       215.000         153.000
  22744483.060    -2792420.62749  -2166707.26946  22744483.322    22744488.838
       226.000         173.000
  21986164.966    -6859337.22549  -5137330.00946  21986163.995    21986171.019
       230.000         177.000
  23441996.866     7957566.14949   6183832.44046  23441995.234    23442003.585
       221.000         165.000
 03  6 25 15 40 30.0000000  0 11G23G21G18G17G16G 6G15G30G29G26G10
  24321709.024    -4048401.12849  -3130908.18544  24321709.941    24321717.641
       196.000         128.000
  21018589.960    -3572742.91249  -2682570.08347  21018589.114    21018592.902
       244.000         205.000
  22157476.809    -8860142.93749  -6892683.79646  22157475.629    22157481.303
       234.000         182.000
  20856154.003     -897689.56149   -697148.01047  20856153.256    20856158.813
       243.000         208.000
  23794023.494    -5532759.17049  -4303376.06745  23794022.151    23794029.239
       217.000         154.000
  20257566.138    -1517723.79249  -1178272.05448  20257565.809    20257570.891
       246.000         214.000
  23526203.659    -7080231.18749  -5507911.94545  23526201.929    23526208.749
       217.000         151.000
  23716751.070     8521411.84249   6628882.88245  23716750.945    23716758.758
       214.000         153.000
  22743128.354    -2799540.14049  -2172254.90346  22743127.540    22743134.440
       226.000         173.000
  21975356.606    -6916135.19749  -5181588.11946  21975356.297    21975363.122
       230.000         177.000
  23461293.479     8058970.55849   6262848.74846  23461292.725    23461300.230
       221.000         164.000
 03  6 25 15 41  0.0000000  0 11G23G21G18G17G16G 6G15G30G29G26G10
  24302900.897    -4147237.08249  -3207923.20744  24302899.733    24302909.287
       197.000         128.000
  21013108.601    -3601547.65849  -2705015.34947  21013107.828    21013111.299
       244.000         205.000
  22141575.502    -8943704.60349  -6957796.73746  22141574.157    22141579.986
       233.000         183.000
  20856285.406     -896999.12949   -696610.04747  20856284.475    20856290.190
       243.000         208.000
  23784529.232    -5582651.56749  -4342253.26845  23784528.114    23784534.577
       217.000         154.000
  20258590.976    -1512338.34549  -1174075.61748  20258590.470    20258595.777
       245.000         214.000
  23512454.398    -7152483.18649  -5564212.18345  23512452.758    23512458.965
       217.000         151.000
  23736250.066     8623879.28649   6708727.56145  23736251.125    23736257.813
       215.000         153.000
  22741874.444    -2806129.68249  -2177389.58246  22741874.108    22741880.660
       226.000         173.000
  21964641.957    -6972440.83549  -5225462.59446  21964641.325    21964648.026
       228.000         177.000
  23480615.623     8160508.94449   6341969.46546  23480614.349    23480622.074
       221.000         163.000
 03  6 25 15 41 30.0000000  0 11G23G21G18G17G16G 6G15G30G29G26G10
  24284127.694    -4245891.15449  -3284796.47544  24284128.108    24284138.242
       202.000         131.000
  21007661.875    -3630170.57349  -2727318.92847  21007661.199    21007664.542
       244.000         205.000
  22125736.260    -9026940.28949  -7022655.65546  22125735.762    22125740.550
       234.000         183.000
  20856449.394     -896137.37249   -695938.57947  20856448.521    20856454.141
       243.000         207.000
  23775128.213    -5632054.24749  -4380748.85845  23775128.421    23775132.660
       217.000         155.000
  20259704.900    -1506484.67549  -1169514.32648  20259704.408    20259709.717
       246.000         214.000
  23498721.495    -7224649.24949  -5620445.42445  23498720.075    23498726.597
       217.000         152.000
  23755754.554     8726375.15149   6788594.38445  23755754.333    23755760.966
       215.000         153.000
  22740721.498    -2812188.74249  -2182110.89446  22740719.967    22740727.061
       226.000         173.000
  21954021.546    -7028251.26649  -5268951.19146  21954021.028    21954027.678
       228.000         177.000
  23499962.802     8262178.89749   6421192.74345  23499961.875    23499970.066
       221.000         162.000
 03  6 25 15 42  0.0000000  0 11G23G21G18G17G16G 6G15G30G29G26G10
  24265389.491    -4344361.64449  -3361526.64445  24265388.711    24265398.198
       208.000         136.000
  21002249.818    -3658611.32549  -2749480.56647  21002248.566    21002252.823
       243.000         206.000
  22109959.422    -9109848.31249  -7087259.25346  22109958.284    22109964.023
       234.000         183.000
  20856645.918     -895104.78649   -695133.99947  20856644.945    20856650.844
       243.000         207.000
  23765820.802    -5680965.76049  -4418861.74245  23765820.675    23765824.785
       217.000         156.000
  20260908.138    -1500161.83249  -1164587.44748  20260907.775    20260912.914
       246.000         214.000
  23485005.087    -7296729.25549  -5676611.62445  23485003.760    23485009.883
       217.000         153.000
  23775263.744     8828896.66349   6868481.18845  23775263.088    23775270.640
       214.000         151.000
  22739669.646    -2817716.10349  -2186417.89646  22739668.805    22739676.483
       226.000         173.000
  21943495.877    -7083563.57149  -5312051.64846  21943495.284    21943501.680
       229.000         177.000
  23519334.603     8363977.84349   6500516.51645  23519332.335    23519340.027
       219.000         161.000
 03  6 25 15 42 30.0000000  0 11G23G21G18G17G16G 6G15G30G29G26G10
  24246686.736    -4442646.67149  -3438112.34345  24246686.518    24246694.388
       208.000         139.000
  20996872.267    -3686870.41749  -2771500.65647  20996871.278    20996874.983
       243.000         205.000
  22094245.200    -9192427.15849  -7151606.35546  22094244.573    22094249.582
       235.000         183.000
  20856874.959     -893901.40849   -694196.33647  20856874.166    20856879.882
       243.000         208.000
  23756606.912    -5729384.86749  -4456590.93445  23756606.194    23756611.786
       216.000         156.000
  20262200.766    -1493369.14049  -1159294.45348  20262200.331    20262205.255
       246.000         214.000
  23471305.059    -7368723.37949  -5732710.90345  23471303.874    23471311.362
       217.000         154.000
  23794777.317     8931440.71049   6948385.55045  23794778.168    23794784.489
       215.000         151.000
  22738719.053    -2822711.29549  -2190310.23346  22738718.643    22738725.010
       226.000         173.000
  21933065.573    -7138375.13049  -5354761.90346  21933065.325    21933071.834
       229.000         177.000
  23538730.350     8465903.18149   6579938.78645  23538728.787    23538736.850
       220.000         160.000
 03  6 25 15 43  0.0000000  0 11G23G21G18G17G16G 6G15G30G29G26G10
  24228019.491    -4540743.91049  -3514551.68245  24228019.011    24228028.460
       207.000         139.000
  20991529.370    -3714947.47749  -2793378.90147  20991528.437    20991532.299
       243.000         205.000
  22078593.876    -9274674.97049  -7215695.50346  22078592.828    22078598.217
       235.000         184.000
  20857136.576     -892526.80449   -693125.24847  20857135.795    20857141.406
       243.000         208.000
  23747487.094    -5777309.62449  -4493934.91445  23747486.087    23747492.307
       217.000         156.000
  20263583.034    -1486105.18549  -1153634.23848  20263582.374    20263587.678
       245.000         214.000
  23457621.360    -7440631.17449  -5788742.92445  23457620.177    23457627.841
       217.000         154.000
  23814294.778     9034005.24149   7028305.87645  23814294.747    23814301.746
       217.000         151.000
  22737870.004    -2827172.90349  -2193786.79546  22737869.870    22737875.767
       226.000         173.000
  21922731.222    -7192682.28649  -5397079.12746  21922730.759    21922737.447
       229.000         178.000
  23558149.814     8567953.12749   6659458.14545  23558149.313    23558155.997
       221.000         161.000
 03  6 25 15 43 30.0000000  0 11G23G21G18G17G16G 6G15G30G29G26G10
  24209388.096    -4638651.89149  -3590843.57645  24209387.090    24209396.562
       208.000         139.000
  20986221.180    -3742842.32649  -2815115.16447  20986220.282    20986224.009
       243.000         205.000
  22063005.841    -9356590.60449  -7279525.81646  22063005.029    22063010.016
       235.000         184.000
  20857430.716     -890981.35349   -691921.03047  20857429.862    20857435.493
       243.000         208.000
  23738461.659    -5824738.94249  -4530892.83645  23738460.566    23738466.507
       216.000         156.000
  20265055.110    -1478369.43849  -1147606.39448  20265054.535    20265059.767
       246.000         214.000
  23443954.045    -7512452.90749  -5844707.84045  23443953.089    23443960.211
       215.000         154.000
  23833815.580     9136587.07749   7108239.66245  23833815.043    23833824.326
       214.000         150.000
  22737122.535    -2831100.60149  -2196847.32546  22737121.978    22737128.346
       226.000         173.000
  21912493.349    -7246482.54049  -5439001.34246  21912492.907    21912499.516
       230.000         178.000
  23577592.479     8670124.99749   6739072.52045  23577591.423    23577599.756
       221.000         161.000
 03  6 25 15 44  0.0000000  0 11G23G21G18G17G16G 6G15G30G29G26G10
  24190793.369    -4736368.46349  -3666986.29345  24190792.823    24190801.960
       208.000         141.000
  20980947.634    -3770554.86849  -2836709.37247  20980946.663    20980950.663
       243.000         205.000
  22047481.247    -9438172.49949  -7343096.07446  22047480.667    22047485.401
       234.000         185.000
  20857757.365     -889264.93449   -690583.58847  20857756.576    20857762.155
       243.000         208.000
  23729530.672    -5871670.95649  -4567463.24745  23729529.718    23729536.306
       216.000         156.000
  20266617.175    -1470160.81149  -1141210.08048  20266616.543    20266621.870
       246.000         214.000
  23430303.245    -7584188.15649  -5900605.39345  23430302.069    23430308.075
       217.000         156.000
  23853339.079     9239183.68849   7188185.01245  23853338.877    23853346.720
       215.000         150.000
  22736476.976    -2834493.14849  -2199490.86646  22736475.895    22736483.014
       226.000         173.000
  21902352.560    -7299772.83949  -5480526.19646  21902352.397    21902358.823
       230.000         178.000
  23597057.962     8772416.68149   6818780.25745  23597056.648    23597064.956
       221.000         162.000
 03  6 25 15 44 30.0000000  0 11G23G21G18G17G16G 6G15G30G29G26G10
  24172235.223    -4833893.15849  -3742979.48745  24172234.111    24172243.408
       209.000         143.000
  20975708.639    -3798086.05549  -2858162.26447  20975707.820    20975711.466
       244.000         205.000
  22032020.374    -9519419.66549  -7406405.50646  22032019.410    22032024.649
       235.000         185.000
  20858116.267     -887379.02049   -689114.07247  20858115.427    20858121.175
       243.000         208.000
  23720694.453    -5918105.54449  -4603646.04545  23720694.295    23720699.369
       215.000         156.000
  20268269.166    -1461479.62649  -1134445.52948  20268268.760    20268273.851
       246.000         214.000
  23416668.707    -7655837.95149  -5956436.36345  23416668.138    23416675.070
       219.000         157.000
  23872864.494     9341791.32549   7268138.91445  23872864.360    23872871.254
       213.000         147.000
  22735933.152    -2837351.13849  -2201717.86046  22735932.372    22735939.249
       226.000         173.000
  21892309.130    -7352551.19249  -5521652.14246  21892308.540    21892315.532
       229.000         178.000
  23616545.574     8874824.38349   6898578.39945  23616543.667    23616552.744
       221.000         162.000
 03  6 25 15 45  0.0000000  0 11G23G21G18G17G16G 6G15G30G29G26G10
  24153713.915    -4931223.71349  -3818821.38845  24153713.352    24153721.316
       210.000         144.000
  20970504.237    -3825435.55449  -2879473.57647  20970503.333    20970507.106
       243.000         205.000
  22016623.521    -9600330.51349  -7469452.87346  22016622.220    22016627.885
       235.000         185.000
  20858507.533     -885322.91649   -687511.94047  20858506.806    20858512.375
       243.000         207.000
  23711953.156    -5964041.09249  -4639439.99845  23711952.707    23711958.518
       215.000         155.000
  20270011.327    -1452324.63249  -1127311.77948  20270010.824    20270016.002
       246.000         214.000
  23403050.625    -7727401.84449  -6012200.37245  23403050.515    23403056.155
       218.000         157.000
  23892391.692     9444407.52349   7348099.46945  23892391.581    23892399.417
       213.000         148.000
  22735491.239    -2839673.26049  -2203527.28946  22735491.317    22735497.026
       225.000         173.000
  21882363.601    -7404814.68949  -5562376.89446  21882363.585    21882369.512
       230.000         178.000
  23636054.750     8977346.19349   6978465.44846  23636053.860    23636061.785
       220.000         163.000
 03  6 25 15 45 30.0000000  0 11G23G21G18G17G16G 6G15G30G29G26G10
  24135229.979    -5028357.95349  -3894510.29945  24135228.509    24135237.755
       210.000         143.000
  20965334.475    -3852603.14049  -2900643.14647  20965333.652    20965337.242
       243.000         206.000
  22001291.001    -9680903.33949  -7532236.85446  22001290.174    22001295.327
       236.000         186.000
  20858931.248     -883096.46249   -685777.07447  20858930.293    20858935.959
       243.000         207.000
  23703307.205    -6009475.75949  -4674843.63545  23703307.412    23703311.006
       215.000         156.000
  20271843.859    -1442694.62649  -1119807.89248  20271843.365    20271848.583
       246.000         214.000
  23389448.884    -7798879.47549  -6067897.15245  23389447.223    23389454.494
       218.000         157.000
  23911920.212     9547029.87749   7428064.85645  23911920.992    23911928.026
       216.000         150.000
  22735151.468    -2841458.68749  -2204918.52146  22735150.933    22735157.570
       226.000         173.000
  21872516.906    -7456559.76749  -5602697.67046  21872515.792    21872523.059
       229.000         179.000
  23655585.365     9079980.13649   7058439.87045  23655584.260    23655593.542
       219.000         162.000
 03  6 25 15 46  0.0000000  0 11G23G21G18G17G16G 6G15G30G29G26G10
  24116783.462    -5125294.84449  -3970045.44245  24116782.639    24116789.825
       208.000         141.000
  20960199.187    -3879589.35449  -2921671.37447  20960198.237    20960202.054
       243.000         206.000
  21986022.989    -9761137.18049  -7594756.68346  21986022.134    21986027.347
       235.000         186.000
  20859387.201     -880700.64849   -683910.23547  20859386.517    20859391.955
       243.000         208.000
  23694756.791    -6054408.84849  -4709856.43645  23694756.342    23694761.244
       216.000         156.000
  20273766.842    -1432589.40949  -1111933.70748  20273766.354    20273771.412
       246.000         214.000
  23375863.358    -7870271.41349  -6123527.15945  23375862.397    23375868.169
       216.000         157.000
  23931449.417     9649655.16249   7508032.52145  23931450.012    23931457.488
       212.000         149.000
  22734913.922    -2842707.11749  -2205891.32146  22734913.437    22734919.230
       226.000         173.000
  21862769.031    -7507784.61049  -5642613.07446  21862768.041    21862774.443
       230.000         178.000
  23675136.801     9182723.30949   7138499.40645  23675136.244    23675144.292
       217.000         160.000
 03  6 25 15 46 30.0000000  0 11G23G21G18G17G16G 6G15G30G29G26G10
  24098374.815    -5222032.25849  -4045425.16045  24098372.294    24098381.618
       207.000         136.000
  20955098.462    -3906393.72449  -2942557.91647  20955097.658    20955101.344
       242.000         205.000
  21970819.719    -9841030.25049  -7657010.98146  21970819.028    21970823.796
       235.000         187.000
  20859875.452     -878135.02149   -681911.08047  20859874.579    20859880.196
       243.000         208.000
  23686302.037    -6098838.80949  -4744477.18545  23686301.445    23686306.963
       217.000         156.000
  20275780.480    -1422007.76449  -1103688.27948  20275780.209    20275785.182
       246.000         214.000
  23362294.271    -7941577.20549  -6179090.06745  23362293.701    23362300.471
       218.000         157.000
  23950978.491     9752280.99849   7588000.59845  23950979.092    23950986.846
       212.000         148.000
  22734778.770    -2843417.58149  -2206444.94046  22734778.470    22734784.760
       227.000         173.000
  21853120.751    -7558485.92849  -5682120.55146  21853120.539    21853126.937
       229.000         178.000
  23694708.542     9285573.70749   7218642.48745  23694708.135    23694715.228
       215.000         158.000
 03  6 25 15 47  0.0000000  0 11G23G21G18G17G16G 6G15G30G29G26G10
  24080004.437    -5318568.48049  -4120648.05845  24080003.800    24080012.373
       204.000         133.000
  20950032.395    -3933015.91049  -2963302.48247  20950031.345    20950035.202
       243.000         205.000
  21955681.647    -9920581.26349  -7718998.74246  21955680.828    21955686.044
       236.000         187.000
  20860395.959     -875399.94649   -679779.88047  20860395.049    20860400.686
       243.000         208.000
  23677943.417    -6142764.35149  -4778704.89045  23677943.051    23677949.102
       216.000         157.000
  20277884.884    -1410949.23849  -1095071.25548  20277884.273    20277889.622
       246.000         214.000
  23348741.614    -8012797.11649  -6234586.04245  23348740.054    23348746.606
       220.000         158.000
  23970507.046     9854904.32749   7667966.72045  23970507.873    23970514.701
       214.000         147.000
  22734746.060    -2843589.53149  -2206578.92046  22734745.673    22734751.305
       226.000         173.000
  21843572.634    -7608661.10649  -5721218.04646  21843572.090    21843578.637
       229.000         179.000
  23714300.263     9388528.67849   7298867.06545  23714299.302    23714306.992
       218.000         158.000
 03  6 25 15 47 30.0000000  0 11G23G21G18G17G16G 6G15G30G29G26G10
  24061672.549    -5414901.70349  -4195712.78645  24061671.431    24061680.937
       209.000         133.000
  20945000.951    -3959456.24449  -2983905.34647  20944999.958    20945003.833
       243.000         205.000
  21940609.017    -9999788.59549  -7780718.70246  21940608.193    21940613.311
       236.000         187.000
  20860948.728     -872495.16349   -677516.43947  20860947.896    20860953.667
       243.000         207.000
  23669680.860    -6186184.20949  -4812538.56045  23669680.141    23669685.321
       216.000         158.000
  20280080.161    -1399413.00449  -1086081.99348  20280079.683    20280084.886
       246.000         214.000
  23335205.448    -8083930.93749  -6290014.95045  23335203.225    23335211.068
       219.000         158.000
  23990034.834     9957522.78849   7747929.04245  23990034.705    23990043.560
       211.000         147.000
  22734815.888    -2843222.31849  -2206292.77046  22734815.675    22734821.847
       227.000         174.000
  21834125.207    -7658307.27949  -5759903.32046  21834124.880    21834131.785
       229.000         179.000
  23733911.519     9491585.83749   7379171.26845  23733910.646    23733919.432
       219.000         158.000
 03  6 25 15 48  0.0000000  0 11G23G21G18G17G16G 6G15G30G29G26G10
  24043379.910    -5511030.51749  -4270618.27645  24043379.834    24043386.466
       209.000         134.000
  20940004.100    -3985714.88549  -3004366.63747  20940003.287    20940007.138
       244.000         205.000
  21925601.978   -10078651.01349  -7842169.90846  21925600.882    21925606.434
       235.000         187.000
  20861533.699     -869421.15049   -675121.13447  20861532.671    20861538.819
       243.000         207.000
  23661514.604    -6229097.46649  -4845977.48445  23661513.825    23661519.562
       217.000         157.000
  20282366.406    -1387398.72949  -1076720.22748  20282365.840    20282371.147
       245.000         214.000
  23321685.415    -8154978.87249  -6345376.94945  23321684.264    23321691.590
       220.000         158.000
  24009560.997    10060133.09149   7827885.02445  24009561.476    24009568.769
       212.000         147.000
  22734988.353    -2842315.76949  -2205586.37046  22734987.995    22734994.346
       227.000         174.000
  21824778.906    -7707422.25649  -5798174.67646  21824778.880    21824785.249
       228.000         179.000
  23753541.698     9594742.51849   7459553.03045  23753540.786    23753548.741
       218.000         159.000
 03  6 25 15 48 30.0000000  0 11G23G21G18G17G16G 6G15G30G29G26G10
  24025126.425    -5606953.00049  -4345362.96645  24025125.142    24025132.102
       207.000         134.000
  20935041.873    -4011791.92649  -3024686.42047  20935041.003    20935044.892
       243.000         206.000
  21910660.763   -10157167.21049  -7903351.32146  21910659.706    21910665.103
       236.000         187.000
  20862150.899     -866177.85549   -672593.91847  20862150.064    20862155.809
       243.000         207.000
  23653445.297    -6271502.73549  -4879020.55945  23653444.551    23653450.696
       218.000         158.000
  20284743.756    -1374905.65849  -1066985.37348  20284743.374    20284748.353
       246.000         214.000
  23308181.626    -8225940.96549  -6400672.04145  23308180.952    23308186.614
       220.000         159.000
  24029085.272    10162732.72949   7907832.67945  24029085.850    24029093.577
       214.000         148.000
  22735263.552    -2840869.35649  -2204459.28646  22735263.355    22735270.172
       226.000         174.000
  21815534.264    -7756002.95049  -5836029.72546  21815533.760    21815540.352
       229.000         179.000
  23773190.370     9697996.37549   7540010.51545  23773189.603    23773197.428
       220.000         159.000
 03  6 25 15 49  0.0000000  0 11G23G21G18G17G16G 6G15G30G29G26G10
  24006912.492    -5702667.59349  -4419945.67045  24006910.322    24006919.665
       206.000         135.000
  20930114.146    -4037687.28449  -3044864.63247  20930113.164    20930117.145
       244.000         206.000
  21895785.732   -10235335.96949  -7964261.99746  21895784.904    21895789.766
       236.000         187.000
  20862800.316     -862765.55449   -669935.00847  20862799.504    20862805.242
       243.000         207.000
  23645472.805    -6313399.12349  -4911667.10445  23645472.620    23645477.496
       217.000         159.000
  20287212.391    -1361933.11549  -1056876.90948  20287211.865    20287217.066
       246.000         214.000
  23294694.394    -8296817.18849  -6455900.22145  23294693.499    23294699.369
       221.000         161.000
  24048607.085    10265318.68849   7987769.66345  24048607.825    24048614.411
       215.000         149.000
  22735641.592    -2838882.61149  -2202911.16946  22735641.423    22735647.874
       226.000         174.000
  21806391.708    -7804047.06949  -5873466.65546  21806391.469    21806398.143
       229.000         180.000
  23792857.094     9801345.32949   7620542.09445  23792855.659    23792864.609
       219.000         159.000
 03  6 25 15 49 30.0000000  0 11G23G21G18G17G16G 6G15G30G29G26G10
  23988738.259    -5798172.49049  -4494364.96645  23988737.982    23988746.396
       206.000         134.000
  20925221.104    -4063400.47849  -3064900.89447  20925220.132    20925223.926
       243.000         206.000
  21880977.085   -10313155.70049  -8024900.71047  21880975.846    21880981.558
       236.000         188.000
  20863481.852     -859184.19949   -667144.36747  20863481.113    20863486.934
       243.000         207.000
  23637597.344    -6354785.19749  -4943916.01445  23637596.832    23637602.054
       220.000         159.000
  20289772.357    -1348480.47649  -1046394.33948  20289771.913    20289776.846
       246.000         214.000
  23281223.409    -8367607.48949  -6511061.46445  23281222.685    23281229.784
       222.000         161.000
  24068125.572    10367888.59449   8067694.14545  24068126.323    24068134.092
       213.000         149.000
  22736122.646    -2836354.77649  -2200941.43546  22736121.720    22736127.904
       227.000         174.000
  21797351.746    -7851551.71949  -5910483.22546  21797350.568    21797358.319
       229.000         180.000
  23812541.443     9904787.00049   7701145.92545  23812540.751    23812548.479
       220.000         158.000
 03  6 25 15 50  0.0000000  0 11G23G21G18G17G16G 6G15G30G29G26G10
  23970604.394    -5893466.19349  -4568619.67445  23970602.757    23970611.717
       206.000         136.000
  20920362.686    -4088931.61949  -3084795.29647  20920361.815    20920365.646
       243.000         206.000
  21866235.025   -10390625.44849  -8085266.70547  21866234.271    21866239.885
       236.000         188.000
  20864195.492     -855434.08849   -664222.23147  20864194.559    20864200.061
       243.000         207.000
  23629819.291    -6395660.00649  -4975766.52245  23629819.017    23629823.419
       221.000         160.000
  20292423.792    -1334547.25149  -1035537.29148  20292423.278    20292428.230
       246.000         214.000
  23267768.790    -8438311.95849  -6566155.83045  23267767.370    23267773.653
       222.000         161.000
  24087640.449    10470439.45349   8147603.78645  24087639.634    24087647.337
       212.000         148.000
  22736706.723    -2833285.61849  -2198549.87546  22736706.016    22736712.568
       226.000         174.000
  21788414.966    -7898514.44249  -5947077.52646  21788415.404    21788421.137
       231.000         180.000
  23832242.959    10008319.02149   7781820.14345  23832242.272    23832250.388
       217.000         158.000
 03  6 25 15 50 30.0000000  0 11G23G21G18G17G16G 6G15G30G29G26G10
  23952511.030    -5988546.85549  -4642708.36945  23952510.282    23952519.209
       210.000         138.000
  20915538.932    -4114280.65149  -3104547.79347  20915538.124    20915541.670
       243.000         206.000
  21851559.980   -10467743.34949  -8145358.53647  21851559.580    21851563.927
       237.000         188.000
  20864941.247     -851515.01649   -661168.43547  20864940.562    20864946.169
       243.000         207.000
  23622138.723    -6436022.43549  -5007217.80045  23622138.274    23622142.277
       220.000         159.000
  20295166.833    -1320132.52849  -1024305.05348  20295166.199    20295171.296
       246.000         213.000
  23254330.552    -8508930.41249  -6621183.15545  23254329.023    23254335.809
       221.000         161.000
  24107151.129    10572968.62149   8227496.52545  24107150.727    24107158.448
       211.000         146.000
  22737393.932    -2829674.66849  -2195736.14546  22737393.650    22737399.863
       227.000         174.000
  21779581.908    -7944932.56349  -5983247.45446  21779581.569    21779588.558
       230.000         181.000
  23851961.317    10111939.11849   7862562.97445  23851961.361    23851968.381
       220.000         158.000
 03  6 25 15 51  0.0000000  0 11G23G21G18G17G16G 6G15G30G29G26G10
  23934458.679    -6083413.40649  -4716630.26945  23934459.239    23934465.424
       209.000         140.000
  20910749.810    -4139447.83149  -3124158.58647  20910749.090    20910752.766
       243.000         206.000
  21836952.041   -10544508.53849  -8205175.52047  21836951.023    21836956.044
       236.000         189.000
  20865719.115     -847427.44749   -657983.33947  20865718.344    20865724.045
       243.000         207.000
  23614555.541    -6475871.85549  -5038269.29745  23614554.304    23614559.667
       219.000         159.000
  20298001.525    -1305236.08449  -1012697.44148  20298001.066    20298006.077
       246.000         213.000
  23240908.593    -8579463.32049  -6676143.82545  23240908.244    23240913.365
       222.000         161.000
  24126657.240    10675473.23549   8307370.12245  24126657.443    24126665.595
       214.000         145.000
  22738184.252    -2825521.82449  -2192500.16446  22738184.203    22738189.692
       227.000         174.000
  21770852.883    -7990803.75849  -6018991.21346  21770852.512    21770859.504
       231.000         181.000
  23871695.872    10215644.52149   7943372.30445  23871694.959    23871702.740
       217.000         156.000
 03  6 25 15 51 30.0000000  0 11G23G21G18G17G16G 6G15G30G29G26G10
  23916447.245    -6178063.64049  -4790383.58845  23916446.119    23916455.131
       209.000         141.000
  20905995.339    -4164432.99249  -3143627.54947  20905994.441    20905998.157
       243.000         206.000
  21822411.481   -10620919.44049  -8264716.44047  21822410.609    21822415.525
       236.000         189.000
  20866529.105     -843171.14049   -654666.75647  20866528.323    20866534.039
       243.000         207.000
  23607070.349    -6515206.48349  -5068919.67645  23607069.656    23607074.735
       219.000         158.000
  20300928.112    -1289856.98249  -1000713.73648  20300927.640    20300932.656
       246.000         213.000
  23227502.973    -8649910.37049  -6731037.61145  23227501.555    23227508.022
       221.000         160.000
  24146158.288    10777950.80249   8387222.65645  24146158.103    24146166.238
       215.000         146.000
  22739077.786    -2820826.29249  -2188841.30046  22739077.704    22739083.099
       226.000         174.000
  21762228.512    -8036125.27849  -6054306.65446  21762228.203    21762235.301
       230.000         181.000
  23891446.400    10319433.44949   8024246.72445  23891445.317    23891452.336
       215.000         153.000
 03  6 25 15 52  0.0000000  0 11G23G21G18G17G16G 6G15G30G29G26G10
  23898477.218    -6272495.71149  -4863966.89645  23898476.169    23898483.839
       210.000         141.000
  20901275.531    -4189235.97149  -3162954.55147  20901274.719    20901278.423
       244.000         206.000
  21807938.727   -10696974.34049  -8323979.94447  21807938.189    21807942.910
       237.000         190.000
  20867371.211     -838746.07749   -651218.68047  20867370.320    20867375.915
       243.000         207.000
  23599683.355    -6554025.52849  -5099168.31045  23599683.039    23599687.864
       219.000         157.000
  20303946.630    -1273994.72049   -988353.54848  20303946.041    20303951.209
       246.000         213.000
  23214113.739    -8720271.27649  -6785864.26445  23214111.505    23214118.904
       221.000         160.000
  24165653.679    10880398.64449   8467052.03945  24165653.606    24165661.072
       213.000         145.000
  22740074.708    -2815587.72449  -2184759.27846  22740074.394    22740080.769
       226.000         173.000
  21753709.229    -8080894.44849  -6089191.69346  21753709.031    21753715.234
       230.000         182.000
  23911212.389    10423303.78949   8105184.57545  23911211.083    23911219.456
       216.000         152.000
 03  6 25 15 52 30.0000000  0 11G23G21G18G17G16G 6G15G30G29G26G10
  23880549.080    -6366708.29649  -4937379.20345  23880548.250    23880556.650
       211.000         143.000
  20896590.378    -4213856.50049  -3182139.38347  20896589.502    20896593.512
       243.000         206.000
  21793533.884   -10772672.37349  -8382965.37647  21793533.311    21793538.198
       237.000         190.000
  20868245.399     -834152.42449   -647639.23247  20868244.455    20868250.100
       243.000         207.000
  23592394.621    -6592327.94349  -5129014.35945  23592393.046    23592398.849
       219.000         157.000
  20307057.133    -1257649.08249   -975616.69648  20307056.777    20307061.689
       246.000         213.000
  23200740.787    -8790546.39549  -6840624.07745  23200739.802    23200746.711
       221.000         159.000
  24185142.691    10982813.98449   8546856.08545  24185143.264    24185149.957
       211.000         144.000
  22741174.907    -2809805.89849  -2180253.94446  22741174.483    22741180.224
       226.000         174.000
  21745295.527    -8125109.04149  -6123644.59046  21745295.475    21745301.532
       231.000         182.000
  23930993.223    10527252.75449   8186183.70945  23930992.649    23931000.065
       216.000         153.000
 03  6 25 15 53  0.0000000  0 11G23G21G18G17G16G 6G15G30G29G26G10
  23862662.999    -6460699.81849  -5010619.24245  23862661.613    23862670.309
       211.000         144.000
  20891939.921    -4238294.71249  -3201182.14747  20891939.151    20891942.835
       244.000         206.000
  21779197.119   -10848012.55549  -8441671.95447  21779196.456    21779201.027
       237.000         190.000
  20869151.582     -829390.32249   -643928.52147  20869150.608    20869156.393
       243.000         207.000
  23585204.428    -6630112.87149  -5158457.19245  23585203.663    23585207.890
       219.000         156.000
  20310259.738    -1240819.38749   -962502.65248  20310259.160    20310264.410
       246.000         213.000
  23187384.147    -8860735.55149  -6895316.89945  23187382.069    23187388.743
       222.000         159.000
  24204625.023    11085194.08949   8626632.67945  24204625.277    24204633.373
       211.000         142.000
  22742378.582    -2803480.75649  -2175325.24746  22742377.100    22742384.069
       227.000         174.000
  21736987.869    -8168766.42049  -6157663.30546  21736987.836    21736994.271
       231.000         183.000
  23950788.716    10631277.98149   8267242.27645  23950786.955    23950795.365
       216.000         154.000
 03  6 25 15 53 30.0000000  0 11G23G21G18G17G16G 6G15G30G29G26G10
  23844819.124    -6554469.10349  -5083686.12445  23844818.176    23844826.921
       209.000         143.000
  20887324.126    -4262550.96449  -3220083.13447  20887323.217    20887327.072
       243.000         206.000
  21764928.533   -10922994.12349  -8500099.09747  21764928.044    21764932.943
       237.000         191.000
  20870089.794     -824460.08149   -640086.80247  20870088.808    20870094.675
       243.000         207.000
  23578112.785    -6667379.69449  -5187496.28545  23578112.283    23578117.371
       218.000         156.000
  20313554.441    -1223505.52349   -949011.34548  20313553.849    20313559.067
       246.000         213.000
  23174043.897    -8930838.97149  -6949942.94345  23174043.044    23174049.017
       222.000         158.000
  24224100.073    11187535.92649   8706379.41245  24224099.525    24224106.621
       209.000         140.000
  22743685.654    -2796612.13649  -2169973.06246  22743685.154    22743690.476
       226.000         174.000
  21728786.613    -8211864.66349  -6191246.34046  21728786.714    21728792.782
       232.000         183.000
  23970598.131    10735376.86449   8348358.18045  23970596.461    23970605.271
       215.000         154.000
 03  6 25 15 54  0.0000000  0 11G23G21G18G17G16G 6G15G30G29G26G10
  23827018.149    -6648013.46049  -5156577.72345  23827016.889    23827025.215
       209.000         145.000
  20882743.174    -4286624.10149  -3238841.42647  20882742.538    20882746.204
       243.000         207.000
  21750728.764   -10997614.30349  -8558244.63047  21750727.804    21750732.735
       237.000         191.000
  20871060.248     -819360.43249   -636113.07147  20871059.386    20871065.142
       243.000         207.000
  23571120.141    -6704126.31149  -5216130.04345  23571120.223    23571124.765
       219.000         156.000
  20316941.608    -1205705.96149   -935141.56848  20316941.054    20316946.110
       246.000         213.000
  23160720.092    -9000855.59849  -7004501.34545  23160718.558    23160724.754
       222.000         158.000
  24243567.540    11289837.85749   8786095.08545  24243567.088    24243574.929
       208.000         141.000
  22745096.367    -2789198.69449  -2164196.34346  22745095.318    22745101.090
       226.000         174.000
  21720692.416    -8254400.25449  -6224390.93846  21720692.168    21720698.230
       232.000         183.000
  23990421.336    10839548.16249   8429530.55545  23990421.497    23990428.459
       213.000         153.000
 03  6 25 15 54 30.0000000  0 11G23G21G18G17G16G 6G15G30G29G26G10
  23809260.124    -6741332.12849  -5229293.45345  23809258.174    23809267.223
       210.000         145.000
  20878196.968    -4310514.71749  -3257457.50047  20878196.006    20878199.817
       244.000         207.000
  21736597.833   -11071872.84849  -8616108.36547  21736596.907    21736602.342
       237.000         191.000
  20872062.748     -814092.34449   -632008.09347  20872061.832    20872067.721
       243.000         207.000
  23564226.456    -6740352.86949  -5244358.54345  23564224.667    23564230.912
       219.000         156.000
  20320421.089    -1187421.20049   -920893.71848  20320420.656    20320425.564
       246.000         213.000
  23147412.701    -9070786.46549  -7058992.92045  23147411.760    23147417.236
       222.000         159.000
  24263026.821    11392096.38549   8865776.92245  24263025.747    24263034.111
       208.000         141.000
  22746610.589    -2781241.44749  -2157995.86646  22746610.139    22746616.187
       227.000         175.000
  21712705.510    -8296371.82949  -6257096.03646  21712705.337    21712711.387
       233.000         183.000
  24010257.510    10943788.74349   8510756.89045  24010256.755    24010264.921
       215.000         154.000
 03  6 25 15 55  0.0000000  0 11G23G21G18G17G16G 6G15G30G29G26G10
  23791545.378    -6834422.98449  -5301831.69545  23791543.887    23791552.642
       208.000         144.000
  20873685.497    -4334222.61849  -3275931.19747  20873684.549    20873688.220
       244.000         207.000
  21722535.989   -11145768.36249  -8673689.22247  21722535.352    21722540.073
       238.000         191.000
  20873097.314     -808655.76349   -627771.82547  20873096.596    20873102.194
       243.000         207.000
  23557431.921    -6776057.93649  -5272180.69345  23557431.999    23557437.261
       219.000         156.000
  20323993.106    -1168650.35149   -906267.09648  20323992.593    20323997.603
       246.000         213.000
  23134121.701    -9140630.92849  -7113417.14145  23134120.881    23134126.902
       222.000         160.000
  24282477.137    11494309.12849   8945423.09445  24282476.791    24282484.854
       209.000         141.000
  22748228.398    -2772739.55749  -2151371.02446  22748227.430    22748234.598
       226.000         174.000
  21704826.522    -8337776.46249  -6289359.38646  21704826.132    21704832.687
       233.000         183.000
  24030106.779    11048096.86049   8592035.87945  24030106.074    24030114.743
       215.000         154.000
 03  6 25 15 55 30.0000000  0 11G23G21G18G17G16G 6G15G30G29G26G10
  23773874.266    -6927284.68549  -5374191.34545  23773872.950    23773881.764
       211.000         144.000
  20869208.838    -4357747.68549  -3294262.42947  20869208.018    20869211.844
       244.000         207.000
  21708543.377   -11219299.77449  -8730986.37047  21708542.539    21708547.138
       238.000         191.000
  20874163.854     -803051.12349   -623404.59947  20874163.078    20874168.998
       243.000         207.000
  23550736.934    -6811240.85849  -5299595.96745  23550735.715    23550740.829
       220.000         157.000
  20327657.620    -1149393.19749   -891261.53548  20327657.106    20327662.307
       246.000         213.000
  23120847.100    -9210389.11149  -7167774.14645  23120846.011    23120852.235
       222.000         160.000
  24301918.381    11596473.10949   9025031.24845  24301918.452    24301926.348
       210.000         141.000
  22749949.836    -2763692.97749  -2144321.73246  22749948.868    22749955.955
       226.000         174.000
  21697055.781    -8378612.04249  -6321179.30246  21697055.241    21697062.034
       233.000         183.000
  24049968.639    11152470.30349   8673365.77245  24049966.425    24049975.012
       213.000         152.000
 03  6 25 15 56  0.0000000  0 11G23G21G18G17G16G 6G15G30G29G26G10
  23756247.069    -7019916.14249  -5446371.61145  23756245.963    23756254.937
       212.000         144.000
  20864766.886    -4381090.54449  -3312451.68047  20864765.903    20864769.990
       243.000         207.000
  21694620.263   -11292466.12649  -8787999.05247  21694619.248    21694623.845
       239.000         192.000
  20875262.343     -797278.56649   -618906.52847  20875261.307    20875267.544
       242.000         207.000
  23544141.204    -6845901.19749  -5326604.03345  23544139.232    23544145.267
       219.000         156.000
  20331414.703    -1129649.59849   -875876.92948  20331414.135    20331419.454
       246.000         213.000
  23107588.957    -9280061.46449  -7222064.27545  23107587.750    23107594.494
       223.000         161.000
  24321349.810    11698585.59849   9104599.30945  24321349.830    24321357.606
       209.000         141.000
  22751774.895    -2754102.08549  -2136848.30146  22751774.634    22751780.981
       226.000         174.000
  21689393.613    -8418876.49949  -6352554.18646  21689393.236    21689398.993
       232.000         183.000
  24069842.034    11256905.96349   8754744.14745  24069841.495    24069850.287
       212.000         150.000
 03  6 25 15 56 30.0000000  0 11G23G21G18G17G16G 6G15G30G29G26G10
  23738663.994    -7112315.18149  -5518370.77345  23738662.266    23738671.954
       213.000         146.000
  20860359.724    -4404250.19749  -3330498.17347  20860358.834    20860362.580
       243.000         207.000
  21680766.944   -11365265.47549  -8844725.76747  21680766.078    21680770.877
       238.000         192.000
  20876392.924     -791337.24649   -614276.95347  20876391.975    20876397.687
       242.000         206.000
  23537645.363    -6880037.13749  -5353203.49145  23537644.438    23537649.769
       219.000         157.000
  20335264.562    -1109418.47849   -860112.43948  20335264.010    20335269.077
       246.000         213.000
  23094347.137    -9349647.34649  -7276287.02745  23094346.696    23094352.359
       222.000         161.000
  24340771.031    11800644.50449   9184125.59845  24340770.775    24340779.573
       210.000         143.000
  22753703.758    -2743965.90349  -2128949.97146  22753703.169    22753710.046
       227.000         174.000
  21681840.777    -8458567.07249  -6383481.89346  21681840.324    21681847.007
       233.000         183.000
  24089727.026    11361402.64849   8836170.06745  24089725.740    24089733.842
       213.000         150.000
 03  6 25 15 57  0.0000000  0 11G23G21G18G17G16G 6G15G30G29G26G10
  23721125.424    -7204480.85849  -5590188.09945  23721125.067    23721132.734
       214.000         148.000
  20855987.363    -4427227.01549  -3348402.19247  20855986.511    20855990.348
       244.000         207.000
  21666983.595   -11437697.28649  -8901166.09047  21666982.430    21666987.157
       239.000         192.000
  20877555.543     -785227.79849   -609516.36847  20877554.810    20877560.358
       242.000         206.000
  23531249.277    -6913648.85649  -5379394.45845  23531248.456    23531253.678
       219.000         157.000
  20339207.165    -1088700.21549   -843968.35748  20339206.670    20339211.596
       246.000         213.000
  23081121.672    -9419147.41449  -7330442.89545  23081120.303    23081126.751
       224.000         162.000
  24360181.453    11902646.55049   9263607.56345  24360180.838    24360189.689
       212.000         144.000
  22755736.326    -2733285.15349  -2120627.30046  22755735.672    22755741.729
       226.000         174.000
  21674397.445    -8497681.77649  -6413960.87446  21674397.497    21674403.355
       233.000         183.000
  24109623.319    11465957.37949   8917641.22545  24109622.426    24109631.209
       215.000         152.000
 03  6 25 15 57 30.0000000  0 11G23G21G18G17G16G 6G15G30G29G26G10
  23703631.759    -7296411.13049  -5661822.02045  23703631.098    23703638.956
       215.000         148.000
  20851649.911    -4450020.63449  -3366163.46447  20851649.294    20851653.083
       244.000         207.000
  21653270.468   -11509760.14549  -8957318.91647  21653269.653    21653273.975
       238.000         192.000
  20878750.169     -778950.27849   -604624.81547  20878749.423    20878755.127
       243.000         207.000
  23524953.209    -6946735.01749  -5405175.90845  23524953.054    23524958.091
       220.000         157.000
  20343242.586    -1067494.06849   -827444.10448  20343242.206    20343247.192
       246.000         213.000
  23067912.697    -9488561.21349  -7384531.53245  23067912.287    23067918.549
       223.000         162.000
  24379580.692    12004589.56949   9343043.52545  24379580.797    24379588.514
       210.000         145.000
  22757872.502    -2722059.17149  -2111879.77246  22757871.753    22757877.589
       226.000         174.000
  21667064.191    -8536218.22549  -6443989.25846  21667064.393    21667069.722
       232.000         183.000
  24129530.144    11570568.41749   8999156.26445  24129529.424    24129538.114
       214.000         152.000
 03  6 25 15 58  0.0000000  0 11G23G21G18G17G16G 6G15G30G29G26G10
  23686183.060    -7388104.68949  -5733271.47745  23686182.097    23686190.694
       214.000         148.000
  20847347.310    -4472631.21049  -3383782.10447  20847346.462    20847350.099
       244.000         208.000
  21639627.717   -11581452.89049  -9013183.33847  21639626.758    21639631.631
       239.000         192.000
  20879976.851     -772504.28949   -599601.98447  20879975.873    20879981.805
       242.000         206.000
  23518757.365    -6979294.89049  -5430547.26945  23518757.273    23518762.242
       218.000         157.000
  20347370.855    -1045799.92349   -810539.59048  20347370.199    20347375.565
       246.000         213.000
  23054720.147    -9557888.68349  -7438552.89646  23054718.900    23054724.988
       224.000         163.000
  24398968.154    12106470.80649   9422431.34845  24398968.855    24398976.560
       212.000         147.000
  22760112.500    -2710288.12549  -2102707.53646  22760111.533    22760118.950
       226.000         174.000
  21659841.349    -8574174.19549  -6473565.32146  21659840.804    21659847.426
       233.000         183.000
  24149447.385    11675233.86149   9080713.68845  24149446.706    24149454.030
       212.000         152.000
 03  6 25 15 58 30.0000000  0 11G23G21G18G17G16G 6G15G30G29G26G10
  23668779.607    -7479560.49149  -5804535.65045  23668778.126    23668786.106
       214.000         149.000
  20843079.572    -4495058.59949  -3401257.99947  20843078.857    20843082.430
       245.000         208.000
  21626055.520   -11652775.02249  -9068758.97947  21626054.494    21626059.157
       239.000         193.000
  20881235.444     -765890.37149   -594448.29847  20881234.432    20881240.235
       242.000         206.000
  23512661.509    -7011328.21049  -5455508.31945  23512661.263    23512666.131
       219.000         157.000
  20351592.012    -1023617.76449   -793254.80948  20351591.456    20351596.620
       246.000         213.000
  23041543.898    -9627130.13449  -7492507.25546  23041542.962    23041549.080
       224.000         164.000
  24418343.234    12208287.19349   9501768.65645  24418344.322    24418350.223
       211.000         146.000
  22762456.101    -2697972.36649  -2093110.84346  22762455.430    22762462.155
       226.000         173.000
  21652729.293    -8611547.93549  -6502687.68546  21652729.188    21652735.619
       233.000         183.000
  24169374.520    11779950.55549   9162311.05045  24169373.911    24169380.980
       214.000         150.000
 03  6 25 15 59  0.0000000  0 11G23G21G18G17G16G 6G15G30G29G26G10
  23651421.782    -7570776.42449  -5875612.90745  23651420.442    23651429.125
       213.000         150.000
  20838846.772    -4517302.24049  -3418590.71847  20838845.787    20838849.700
       244.000         207.000
  21612554.261   -11723724.60349  -9124044.32747  21612553.161    21612557.893
       239.000         193.000
  20882526.066     -759108.15149   -589163.47047  20882525.039    20882530.946
       243.000         206.000
  23506666.312    -7042833.69349  -5480058.06645  23506665.684    23506670.529
       220.000         158.000
  20355906.136    -1000946.76849   -775589.11748  20355905.620    20355910.730
       246.000         213.000
  23028384.092    -9696284.96349  -7546394.10046  23028382.912    23028389.700
       225.000         165.000
  24437705.616    12310036.70549   9581053.83245  24437705.369    24437713.647
       212.000         145.000
  22764903.481    -2685111.26049  -2083089.20746  22764901.796    22764909.525
       225.000         174.000
  21645728.610    -8648336.71749  -6531354.24646  21645728.284    21645734.972
       232.000         183.000
  24189310.937    11884716.86049   9243947.08145  24189309.539    24189317.641
       212.000         149.000
 03  6 25 15 59 30.0000000  0 11G23G21G18G17G16G 6G15G30G29G26G10
  23634109.737    -7661751.24549  -5946502.29345  23634108.657    23634117.311
       214.000         150.000
  20834648.799    -4539362.64849  -3435780.65247  20834647.883    20834651.477
       243.000         207.000
  21599123.983   -11794301.16949  -9179039.00747  21599123.028    21599127.910
       239.000         193.000
  20883848.698     -752157.79249   -583747.62147  20883847.633    20883853.626
       242.000         206.000
  23500771.509    -7073810.91849  -5504196.19045  23500770.595    23500775.916
       220.000         158.000
  20360313.354     -977786.77949   -757542.38248  20360312.779    20360317.887
       246.000         213.000
  23015240.759    -9765353.24149  -7600213.51646  23015239.321    23015245.997
       225.000         166.000
  24457054.760    12411716.39849   9660284.63445  24457053.644    24457062.437
       208.000         143.000
  22767454.575    -2671705.17649  -2072642.90446  22767454.349    22767460.232
       226.000         174.000
  21638839.522    -8684538.68149  -6559563.53246  21638839.413    21638844.975
       233.000         183.000
  24209256.309    11989530.73049   9325620.18045  24209255.661    24209263.209
       212.000         150.000
 03  6 25 16  0  0.0000000  0 11G23G21G18G17G16G 6G15G30G29G26G10
  23616843.742    -7752483.25849  -6017202.48245  23616842.860    23616851.207
       213.000         149.000
  20830485.789    -4561239.55149  -3452827.59547  20830484.875    20830488.624
       244.000         207.000
  21585764.885   -11864503.19749  -9233741.85147  21585763.947    21585768.766
       239.000         194.000
  20885203.330     -745039.10449   -578200.61547  20885202.455    20885208.298
       243.000         206.000
  23494977.469    -7104258.91649  -5527921.92545  23494976.566    23494983.116
       219.000         158.000
  20364813.653     -954137.54349   -739114.42348  20364813.023    20364818.200
       246.000         213.000
  23002113.987    -9834335.12649  -7653965.61446  23002113.358    23002119.503
       225.000         166.000
  24476390.038    12513323.91749   9739459.15745  24476391.127    24476398.364
       208.000         141.000
  22770109.407    -2657754.08149  -2061771.91846  22770109.401    22770114.678
       226.000         173.000
  21632062.600    -8720151.52749  -6587313.76846  21632062.635    21632068.688
       233.000         183.000
  24229210.378    12094389.86049   9407328.53645  24229208.768    24229216.943
       213.000         151.000
 03  6 25 16  0 30.0000000  0 11G23G21G18G17G16G 6G15G30G29G26G10
  23599624.295    -7842971.19349  -6087712.51045  23599622.901    23599631.853
       214.000         150.000
  20826357.779    -4582932.53049  -3469731.23047  20826356.823    20826360.661
       245.000         208.000
  21572477.284   -11934329.98849  -9288152.31147  21572476.365    21572481.071
       240.000         194.000
  20886590.063     -737752.11049   -572522.46047  20886589.175    20886595.212
       243.000         206.000
  23489284.221    -7134177.55149  -5551235.17645  23489283.537    23489289.103
       219.000         158.000
  20369407.077     -929998.98049   -720305.16647  20369406.473    20369411.562
       246.000         212.000
  22989003.635    -9903230.79749  -7707650.53546  22989002.775    22989009.196
       225.000         166.000
  24495711.160    12614856.35849   9818575.23645  24495709.123    24495717.603
       206.000         137.000
  22772867.877    -2643258.08249  -2050476.33946  22772868.032    22772874.544
       225.000         174.000
  21625398.113    -8755173.43049  -6614603.53246  21625398.098    21625404.380
       234.000         183.000
  24249172.550    12199292.00849   9489070.41845  24249171.228    24249178.822
       212.000         151.000
 03  6 25 16  1  0.0000000  0 11G23G21G18G17G16G 6G15G30G29G26G10
  23582451.782    -7933213.37049  -6158031.02945  23582451.419    23582459.432
       216.000         151.000
  20822264.826    -4604441.28749  -3486491.31147  20822263.967    20822267.534
       244.000         208.000
  21559261.414   -12003780.07349  -9342269.22847  21559260.554    21559265.498
       240.000         194.000
  20888008.823     -730296.64249   -566713.02147  20888008.093    20888013.576
       242.000         206.000
  23483691.870    -7163565.72949  -5574135.06445  23483691.449    23483696.333
       217.000         158.000
  20374093.683     -905370.63449   -701114.25747  20374093.009    20374098.423
       245.000         212.000
  22975909.749    -9972039.81849  -7761267.93946  22975908.170    22975916.627
       223.000         167.000
  24515017.448    12716311.55049   9897631.06645  24515019.055    24515027.219
       201.000         132.000
  22775730.030    -2628217.33649  -2038756.28246  22775729.071    22775734.763
       225.000         174.000
  21618846.581    -8789601.94649  -6641430.91246  21618846.404    21618852.459
       233.000         183.000
  24269142.646    12304235.25849   9570844.32145  24269141.633    24269148.978
       213.000         152.000
 03  6 25 16  1 30.0000000  0 11G23G21G18G17G16G 6G15G30G29G26G10
  23565326.371    -8023208.34449  -6228156.90945  23565325.984    23565333.874
       218.000         153.000
  20818206.910    -4625765.87249  -3503107.88547  20818206.186    20818209.688
       245.000         208.000
  21546117.358   -12072852.57749  -9396091.93247  21546116.484    21546121.068
       239.000         195.000
  20889459.659     -722672.62449   -560772.25047  20889458.789    20889464.656
       242.000         206.000
  23478200.435    -7192422.89449  -5596621.18545  23478199.970    23478205.267
       216.000         157.000
  20378873.567     -880252.30949   -681541.55247  20378873.050    20378878.198
       246.000         212.000
  22962832.329   -10040762.01749  -7814817.69046  22962831.523    22962838.172
       223.000         166.000
  24534308.669    12817686.65349   9976624.50244  24534308.572    24534316.120
       198.000         128.000
  22778695.815    -2612631.66649  -2026611.60346  22778695.757    22778701.679
       225.000         173.000
  21612408.370    -8823435.11149  -6667794.37546  21612408.001    21612414.054
       233.000         183.000
  24289120.343    12409217.55849   9652648.66245  24289118.753    24289127.324
       211.000         151.000
 03  6 25 16  2  0.0000000  0 11G23G21G18G17G16G 6G15G30G29G26G10
  23548248.322    -8112954.60449  -6298089.00845  23548246.718    23548255.848
       218.000         154.000
  20814184.129    -4646906.17849  -3519580.86747  20814183.271    20814186.731
       244.000         208.000
  21533045.282   -12141546.58649  -9449619.70847  21533044.454    21533049.098
       239.000         195.000
  20890942.556     -714879.98449   -554700.08947  20890941.682    20890947.708
       242.000         206.000
  23472810.175    -7220748.43849  -5618693.05745  23472809.252    23472813.973
       216.000         157.000
  20383746.748     -854643.75149   -661586.85147  20383746.116    20383751.361
       245.000         212.000
  22949771.454   -10109397.45949  -7868299.83146  22949770.465    22949777.258
       223.000         167.000
  24553584.148    12918979.29849  10055553.68044  24553582.648    24553594.201
       201.000         128.000
  22781765.411    -2596501.30649  -2014042.49946  22781764.732    22781771.748
       226.000         174.000
  21606083.722    -8856670.89949  -6693692.34646  21606083.280    21606089.840
       233.000         183.000
  24309104.781    12514236.74349   9734481.73345  24309104.507    24309112.499
       212.000         149.000
 03  6 25 16  2 30.0000000  0 11G23G21G18G17G16G 6G15G30G29G26G10
  23531217.663    -8202450.88649  -6367826.28945  23531216.108    23531224.993
       214.000         153.000
  20810196.325    -4667862.10249  -3535910.17347  20810195.372    20810199.089
       244.000         208.000
  21520045.413   -12209861.07649  -9502851.74147  21520044.853    21520049.126
       240.000         195.000
  20892457.474     -706919.06349   -548496.79847  20892456.593    20892462.526
       242.000         206.000
  23467521.269    -7248542.13049  -5640350.47945  23467520.464    23467526.060
       216.000         157.000
  20388713.226     -828544.81549   -641250.02947  20388712.628    20388717.746
       245.000         212.000
  22936727.025   -10177946.05749  -7921714.31146  22936726.045    22936732.477
       223.000         167.000
  24572843.374    13020186.82849  10134416.53744  24572844.464    24572851.503
       204.000         127.000
  22784938.566    -2579826.55749  -2001049.19046  22784938.245    22784945.308
       225.000         174.000
  21599873.206    -8889307.37649  -6719123.32946  21599873.349    21599878.898
       232.000         183.000
  24329095.759    12619290.45949   9816341.72945  24329094.219    24329102.920
       211.000         145.000
 03  6 25 16  3  0.0000000  0 11G23G21G18G17G16G 6G15G30G29G26G10
  23514234.803    -8291696.00349  -6437367.86845  23514234.244    23514242.691
       217.000         153.000
  20806243.615    -4688633.54749  -3552095.72747  20806242.398    20806246.640
       243.000         207.000
  21507117.989   -12277795.08749  -9555787.30547  21507117.143    21507121.793
       240.000         195.000
  20894004.378     -698789.93649   -542162.43747  20894003.552    20894009.614
       242.000         206.000
  23462333.643    -7275803.26349  -5661592.94845  23462333.365    23462338.969
       217.000         158.000
  20393772.940     -801955.86049   -620531.37347  20393772.375    20393777.415
       245.000         212.000
  22923699.151   -10246408.10249  -7975061.33346  22923698.504    22923704.572
       223.000         167.000
  24592085.855    13121306.31449  10213210.80744  24592083.765    24592093.316
       207.000         129.000
  22788215.131    -2562607.80549  -1987631.98646  22788215.217    22788220.764
       226.000         174.000
  21593777.040    -8921343.05849  -6744086.15146  21593776.380    21593783.303
       232.000         183.000
  24349093.031    12724376.49849   9898226.92045  24349091.814    24349097.771
       210.000         142.000
 03  6 25 16  3 30.0000000  0 11G23G21G18G17G16G 6G15G30G29G26G10
  23497300.174    -8380688.16449  -6506712.33645  23497299.358    23497307.209
       215.000         153.000
  20802326.102    -4709220.24149  -3568137.32347  20802325.340    20802329.211
       244.000         208.000
  21494263.199   -12345347.44449  -9608425.46547  21494262.492    21494267.216
       239.000         196.000
  20895583.439     -690492.09349   -535696.61147  20895582.439    20895588.560
       242.000         206.000
  23457247.603    -7302531.09749  -5682419.83945  23457246.576    23457252.753
       218.000         158.000
  20398926.010     -774876.29049   -599430.42247  20398925.328    20398930.816
       246.000         212.000
  22910687.785   -10314782.94449  -8028340.42246  22910686.552    22910694.325
       223.000         166.000
  24611311.277    13222335.68249  10291934.89244  24611312.093    24611319.755
       213.000         129.000
  22791595.314    -2544844.86649  -1973790.73446  22791594.657    22791600.864
       226.000         173.000
  21587795.600    -8952775.33649  -6768578.78846  21587795.100    21587801.341
       232.000         183.000
  24369096.282    12829492.97649   9980135.82945  24369095.107    24369102.687
       209.000         141.000
 03  6 25 16  4  0.0000000  0 11G23G21G18G17G16G 6G15G30G29G26G10
  23480413.887    -8469426.19049  -6575858.77345  23480412.798    23480420.916
       216.000         153.000
  20798443.699    -4729622.58349  -3584035.27347  20798443.117    20798446.718
       245.000         208.000
  21481481.160   -12412517.33549  -9660765.60847  21481480.421    21481484.976
       240.000         196.000
  20897194.573     -682025.66349   -529099.42547  20897193.734    20897199.694
       242.000         206.000
  23452263.042    -7328725.56849  -5702831.13245  23452262.586    23452268.590
       217.000         158.000
  20404172.343     -747306.53149   -577947.51147  20404171.846    20404176.743
       245.000         212.000
  22897692.923   -10383071.12549  -8081551.98046  22897691.778    22897697.816
       222.000         165.000
  24630519.111    13323271.90349  10370586.40044  24630519.406    24630527.402
       210.000         131.000
  22795078.882    -2526538.41749  -1959525.96946  22795078.695    22795084.633
       226.000         173.000
  21581929.322    -8983602.78849  -6792600.14346  21581929.031    21581935.331
       234.000         184.000
  24389104.850    12934637.65449  10062066.72345  24389102.116    24389113.217
       206.000         140.000
 03  6 25 16  4 30.0000000  0 11G23G21G18G17G16G 6G15G30G29G26G10
  23463576.164    -8557908.37849  -6644805.83545  23463575.165    23463582.627
       215.000         153.000
  20794596.548    -4749839.88749  -3599789.03747  20794595.581    20794599.418
       245.000         209.000
  21468772.125   -12479303.70449  -9712806.89747  21468770.839    21468775.866
       240.000         196.000
  20898837.812     -673390.65949   -522370.88147  20898836.926    20898842.884
       242.000         206.000
  23447380.152    -7354385.69149  -5722826.06145  23447379.297    23447384.937
       217.000         158.000
  20409512.087     -719246.06249   -556082.22547  20409511.359    20409516.704
       245.000         212.000
  22884714.582   -10451272.15949  -8134695.62546  22884712.833    22884719.482
       222.000         164.000
  24649708.631    13424112.84149  10449163.65945  24649708.702    24649718.668
       212.000         134.000
  22798665.945    -2507688.37349  -1944837.62546  22798665.322    22798672.157
       225.000         173.000
  21576178.581    -9013823.15949  -6816148.43846  21576178.173    21576184.473
       234.000         184.000
  24409118.119    13039808.67749  10144018.11045  24409115.751    24409126.062
       208.000         140.000
 03  6 25 16  5  0.0000000  0 11G23G21G18G17G16G 6G15G30G29G26G10
  23446787.488    -8646133.45149  -6713552.57745  23446786.487    23446794.305
       213.000         153.000
  20790784.587    -4769871.89549  -3615398.41747  20790783.720    20790787.489
       245.000         209.000
  21456136.225   -12545705.69049  -9764548.66347  21456135.037    21456139.952
       240.000         196.000
  20900513.192     -664586.53749   -515510.56047  20900512.226    20900518.228
       241.000         206.000
  23442598.792    -7379511.36649  -5742404.51745  23442597.368    23442603.531
       218.000         158.000
  20414945.233     -690694.81149   -533834.50847  20414944.618    20414950.108
       246.000         212.000
  22871752.968   -10519385.89849  -8187771.24546  22871752.415    22871758.641
       222.000         164.000
  24668879.563    13524856.11249  10527664.76945  24668878.930    24668889.688
       214.000         138.000
  22802356.317    -2488295.03349  -1929725.93746  22802356.037    22802363.299
       225.000         173.000
  21570543.647    -9043434.70649  -6839222.32946  21570543.244    21570549.423
       233.000         185.000
  24429136.205    13145004.03049  10225988.46345  24429134.782    24429143.253
       207.000         141.000
 03  6 25 16  5 30.0000000  0 11G23G21G18G17G16G 6G15G30G29G26G10
  23430047.845    -8734100.27049  -6782098.05445  23430046.736    23430054.384
       216.000         153.000
  20787007.915    -4789718.51149  -3630863.33047  20787006.965    20787010.798
       244.000         208.000
  21443573.635   -12611722.33149  -9815990.16347  21443572.714    21443577.493
       240.000         196.000
  20902220.659     -655613.66149   -508518.73247  20902219.754    20902225.703
       242.000         206.000
  23437919.353    -7404102.10049  -5761566.12945  23437918.746    23437924.781
       219.000         159.000
  20420471.734     -661652.90049   -511204.45047  20420471.262    20420476.763
       245.000         212.000
  22858807.930   -10587412.61849  -8240779.06346  22858807.317    22858813.949
       223.000         164.000
  24688031.419    13625498.85149  10606087.55945  24688032.131    24688040.217
       211.000         142.000
  22806150.088    -2468358.80249  -1914191.21146  22806149.701    22806156.178
       225.000         173.000
  21565024.939    -9072435.71449  -6861820.46946  21565024.094    21565030.847
       233.000         185.000
  24449158.299    13250221.48649  10307976.04645  24449156.901    24449165.285
       211.000         143.000
 03  6 25 16  6  0.0000000  0 11G23G21G18G17G16G 6G15G30G29G26G10
  23413357.651    -8821807.42849  -6850441.21645  23413356.900    23413364.749
       216.000         155.000
  20783266.751    -4809378.50349  -3646182.82647  20783265.914    20783269.585
       245.000         208.000
  21431084.560   -12677352.67449  -9867130.65247  21431083.689    21431088.177
       240.000         196.000
  20903960.332     -646471.61649   -501395.08647  20903959.300    20903965.270
       242.000         205.000
  23433341.808    -7428157.54149  -5780310.64745  23433340.586    23433346.311
       218.000         159.000
  20426091.623     -632120.30549   -488192.04247  20426091.081    20426096.409
       246.000         212.000
  22845879.530   -10655352.12949  -8293718.91546  22845877.808    22845884.212
       222.000         164.000
  24707163.677    13726038.55749  10684430.04445  24707164.136    24707172.738
       215.000         145.000
  22810047.044    -2447880.16749  -1898233.84446  22810046.463    22810052.715
       226.000         173.000
  21559622.712    -9100824.28949  -6883941.40346  21559622.374    21559628.951
       234.000         185.000
  24469184.452    13355459.02249  10389979.27145  24469183.577    24469192.321
       214.000         147.000
 03  6 25 16  6 30.0000000  0 11G23G21G18G17G16G 6G15G30G29G26G10
  23396717.271    -8909252.84449  -6918580.41245  23396716.260    23396724.505
       217.000         155.000
  20779560.973    -4828852.53849  -3661357.42047  20779560.120    20779563.805
       245.000         208.000
  21418669.367   -12742594.94749  -9917968.75147  21418668.265    21418673.142
       241.000         197.000
  20905732.316     -637159.90049   -494139.23047  20905731.373    20905737.302
       242.000         205.000
  23428866.292    -7451676.61449  -5798637.22545  23428865.134    23428870.840
       219.000         159.000
  20431805.031     -602096.27949   -464796.70847  20431804.436    20431809.639
       245.000         212.000
  22832967.731   -10723203.66549  -8346590.23246  22832966.106    22832973.627
       223.000         164.000
  24726276.050    13826473.50149  10762690.89645  24726275.636    24726285.731
       211.000         146.000
  22814047.325    -2426858.68549  -1881853.47446  22814046.384    22814052.972
       226.000         174.000
  21554337.539    -9128598.07049  -6905583.27546  21554337.153    21554343.682
       235.000         186.000
  24489214.175    13460715.36249  10471997.15045  24489212.771    24489220.790
       214.000         149.000
 03  6 25 16  7  0.0000000  0 11G23G21G18G17G16G 6G15G30G29G26G10
  23380126.775    -8996436.49249  -6986515.61945  23380125.776    23380133.322
       218.000         156.000
  20775890.451    -4848141.55449  -3676387.84347  20775889.701    20775893.158
       245.000         209.000
  21406327.844   -12807449.93249  -9968505.06847  21406326.918    21406331.605
       240.000         197.000
  20907536.349     -627679.87549   -486752.22647  20907535.344    20907541.645
       242.000         205.000
  23424492.687    -7474660.27949  -5816546.57545  23424492.002    23424497.535
       219.000         159.000
  20437611.700     -571582.30449   -441019.59147  20437611.176    20437616.422
       246.000         212.000
  22820072.467   -10790968.42849  -8399393.92746  22820071.133    22820077.804
       223.000         164.000
  24745367.563    13926799.76849  10840867.08045  24745367.109    24745376.064
       207.000         146.000
  22818150.617    -2405296.14249  -1865051.49046  22818150.663    22818156.506
       227.000         174.000
  21549169.444    -9155756.63249  -6926745.76246  21549169.031    21549175.723
       234.000         186.000
  24509246.907    13565986.97149  10554026.93445  24509245.862    24509254.079
       215.000         152.000
 03  6 25 16  7 30.0000000  0 11G23G21G18G17G16G 6G15G30G29G26G10
  23363586.443    -9083356.24049  -7054245.22545  23363585.147    23363592.343
       219.000         156.000
  20772255.462    -4867243.66349  -3691272.62347  20772254.567    20772258.324
       245.000         209.000
  21394060.387   -12871915.72249 -10018738.11647  21394059.471    21394064.294
       240.000         197.000
  20909372.600     -618030.23449   -479233.05747  20909371.603    20909377.937
       242.000         205.000
  23420221.215    -7497107.41449  -5834037.87445  23420219.689    23420225.592
       218.000         159.000
  20443511.735     -540577.44149   -416859.97047  20443511.242    20443516.298
       246.000         212.000
  22807193.963   -10858645.34349  -8452129.16546  22807192.409    22807199.041
       224.000         164.000
  24764438.021    14027015.68249  10918957.26345  24764437.717    24764448.361
       205.000         144.000
  22822356.954    -2383192.01149  -1847827.50846  22822356.212    22822362.885
       226.000         174.000
  21544118.904    -9182297.44249  -6947426.88346  21544118.427    21544124.531
       235.000         186.000
  24529282.166    13671272.71749  10636067.73445  24529281.292    24529288.759
       216.000         153.000
 03  6 25 16  8  0.0000000  0 11G23G21G18G17G16G 6G15G30G29G26G10
  23347096.542    -9170010.89849  -7121768.27045  23347094.643    23347103.806
       218.000         156.000
  20768655.948    -4886159.34849  -3706012.13447  20768654.929    20768658.831
       244.000         209.000
  21381867.143   -12935991.54149 -10068667.27947  21381866.492    21381870.836
       240.000         198.000
  20911241.100     -608211.42349   -471582.07047  20911240.180    20911246.557
       242.000         206.000
  23416051.629    -7519017.68349  -5851110.81545  23416050.775    23416057.060
       218.000         159.000
  20449505.168     -509081.81149   -392317.93647  20449504.663    20449509.731
       245.000         212.000
  22794332.094   -10926234.50949  -8504796.03146  22794331.882    22794337.021
       224.000         165.000
  24783487.430    14127118.75649  10996959.49945  24783488.478    24783496.125
       203.000         141.000
  22826666.268    -2360546.93749  -1830181.98946  22826665.668    22826672.573
       226.000         174.000
  21539186.191    -9208218.85449  -6967625.35646  21539185.642    21539192.089
       235.000         187.000
  24549319.652    13776570.64049  10718118.02945  24549318.251    24549326.185
       213.000         153.000
 03  6 25 16  8 30.0000000  0 10G23G21G18G17G16G 6G15G29G26G10
  23330658.218    -9256394.53049  -7189080.09445  23330657.172    23330664.568
       216.000         156.000
  20765092.705    -4904884.15349  -3720602.90647  20765091.836    20765095.607
       244.000         208.000
  21369749.170   -12999671.81049 -10118288.22247  21369748.281    21369752.797
       239.000         198.000
  20913142.784     -598218.33349   -463795.27247  20913142.063    20913147.950
       242.000         206.000
  23411985.393    -7540386.06949  -5867761.52145  23411984.720    23411990.881
       218.000         159.000
  20455592.870     -477090.77349   -367389.87347  20455592.368    20455597.590
       245.000         212.000
  22781487.885   -10993731.30049  -8557390.91746  22781487.035    22781494.066
       225.000         167.000
  22831079.189    -2337356.72449  -1812111.69946  22831078.883    22831085.278
       226.000         173.000
  21534372.575    -9233514.56249  -6987336.26546  21534372.774    21534378.597
       235.000         187.000
  24569360.052    13881883.46549  10800179.93345  24569359.316    24569366.605
       212.000         151.000
 03  6 25 16  9  0.0000000  0 10G23G21G18G17G16G 6G15G29G26G10
  23314270.617    -9342511.11349  -7256183.83445  23314270.097    23314277.247
       218.000         156.000
  20761564.954    -4923422.78749  -3735048.61247  20761564.028    20761567.794
       244.000         208.000
  21357705.465   -13062961.45749 -10167604.78047  21357704.569    21357709.237
       240.000         198.000
  20915076.539     -588056.58149   -455877.05247  20915075.874    20915081.666
       242.000         206.000
  23408021.319    -7561217.90549  -5883994.14745  23408020.325    23408025.333
       218.000         159.000
  20461773.735     -444610.00149   -342080.19947  20461773.099    20461778.330
       245.000         212.000
  22768660.287   -11061140.94949  -8609917.88846  22768659.815    22768665.761
       226.000         168.000
  22835594.770    -2313627.08749  -1793621.07446  22835594.057    22835600.055
       225.000         173.000
  21529677.342    -9258188.44349  -7006562.63846  21529677.305    21529682.911
       236.000         187.000
  24589401.762    13987203.67049  10882247.56545  24589400.682    24589408.746
       212.000         149.000
 03  6 25 16  9 30.0000000  0 10G23G21G18G17G16G 6G15G29G26G10
  23297934.121    -9428359.88849  -7323078.87445  23297932.517    23297940.543
       218.000         157.000
  20758072.313    -4941776.69649  -3749350.37647  20758071.386    20758075.244
       244.000         208.000
  21345736.235   -13125860.06349 -10216616.63747  21345735.535    21345739.929
       240.000         198.000
  20917042.421     -577726.12949   -447827.38547  20917041.553    20917047.620
       242.000         205.000
  23404159.169    -7581513.57349  -5899808.97645  23404158.308    23404163.990
       220.000         160.000
  20468047.690     -411640.20549   -316389.46847  20468047.186    20468052.293
       245.000         212.000
  22755849.181   -11128464.01149  -8662377.39946  22755848.334    22755853.921
       226.000         168.000
  22840212.747    -2289359.29049  -1774711.09246  22840212.630    22840217.925
       224.000         172.000
  21525100.560    -9282239.51649  -7025303.70946  21525100.253    21525106.438
       235.000         187.000
  24609444.506    14092528.77249  10964319.05545  24609443.667    24609451.047
       210.000         146.000
 03  6 25 16 10  0.0000000  0 10G23G21G18G17G16G 6G15G29G26G10
  23281648.939    -9513939.12549  -7389763.90045  23281648.030    23281655.909
       218.000         156.000
  20754615.285    -4959943.60849  -3763506.43247  20754614.599    20754618.193
       245.000         208.000
  21333841.658   -13188366.25349 -10265322.70947  21333840.819    21333845.418
       240.000         198.000
  20919040.410     -567226.56649   -439645.93947  20919039.460    20919045.620
       242.000         205.000
  23400399.252    -7601272.38249  -5915205.47545  23400398.701    23400404.074
       220.000         160.000
  20474414.830     -378180.90049   -290317.30747  20474414.298    20474419.537
       245.000         212.000
  22743054.695   -11195699.72149  -8714768.83846  22743053.102    22743060.767
       226.000         168.000
  22844933.058    -2264553.13249  -1755381.62346  22844932.083    22844939.106
       226.000         172.000
  21520642.740    -9305665.44149  -7043557.65546  21520642.189    21520648.448
       235.000         187.000
  24629487.644    14197857.21949  11046393.14445  24629486.052    24629495.816
       205.000         139.000
 03  6 25 16 10 30.0000000  0 10G23G21G18G17G16G 6G15G29G26G10
  23265415.415    -9599246.93949  -7456237.43045  23265414.389    23265421.981
       219.000         156.000
  20751193.915    -4977923.19549  -3777516.51747  20751193.098    20751196.704
       244.000         208.000
  21322022.019   -13250478.88349 -10313722.12247  21322021.082    21322025.561
       240.000         198.000
  20921070.719     -556557.39149   -431332.31947  20921069.625    20921075.823
       242.000         205.000
  23396741.391    -7620493.76249  -5930183.17845  23396741.593    23396746.479
       221.000         159.000
  20480875.188     -344231.59249   -263863.32147  20480874.616    20480879.978
       245.000         211.000
  22730276.938   -11262847.32949  -8767091.63046  22730275.887    22730282.310
       226.000         169.000
  22849755.902    -2239208.97549  -1735632.91646  22849754.964    22849762.092
       225.000         172.000
  21516304.220    -9328464.34349  -7061323.02146  21516304.312    21516309.887
       235.000         187.000
  24649531.364    14303187.50349  11128468.68745  24649532.844    24649538.677
       205.000         135.000
 03  6 25 16 11  0.0000000  0 10G23G21G18G17G16G 6G15G29G26G10
  23249233.723    -9684282.27149  -7522498.60845  23249232.881    23249239.634
       219.000         157.000
  20747808.260    -4995715.01249  -3791380.28447  20747807.362    20747811.053
       244.000         208.000
  21310277.400   -13312197.19049 -10361814.26847  21310276.353    21310281.144
       240.000         199.000
  20923133.360     -545718.39949   -422886.37647  20923132.497    20923138.470
       242.000         205.000
  23393186.042    -7639177.26949  -5944741.78345  23393185.185    23393191.174
       222.000         159.000
  20487428.702     -309792.75949   -237027.88147  20487428.109    20487433.341
       245.000         211.000
  22717515.956   -11329906.83149  -8819345.77546  22717515.461    22717520.998
       225.000         169.000
  22854681.044    -2213327.17449  -1715465.27746  22854680.734    22854686.979
       226.000         173.000
  21512085.280    -9350634.87549  -7078598.73846  21512084.674    21512090.927
       234.000         187.000
  24669574.872    14408517.73749  11210544.18744  24669573.700    24669580.692
       203.000         131.000
 03  6 25 16 11 30.0000000  0 10G23G21G18G17G16G 6G15G29G26G10
  23233104.061    -9769043.43449  -7588546.17945  23233102.518    23233109.792
       220.000         158.000
  20744458.293    -5013319.08649  -3805097.75847  20744457.361    20744461.246
       244.000         208.000
  21298608.013   -13373519.75649 -10409598.04647  21298607.231    21298611.321
       240.000         199.000
  20925228.428     -534708.91949   -414307.59847  20925227.806    20925233.576
       242.000         205.000
  23389733.192    -7657322.63749  -5958881.06145  23389732.295    23389739.314
       220.000         160.000
  20494075.402     -274864.05549   -209810.73547  20494074.957    20494080.064
       245.000         211.000
  22704771.829   -11396877.77449  -8871530.89546  22704770.684    22704776.603
       225.000         170.000
  22859708.355    -2186907.98349  -1694878.88846  22859707.384    22859714.357
       225.000         172.000
  21507986.353    -9372174.92949  -7095383.18246  21507986.181    21507992.265
       235.000         187.000
  24689618.178    14513846.62349  11292618.62144  24689615.665    24689625.727
       203.000         131.000
 03  6 25 16 12  0.0000000  0 10G23G21G18G17G16G 6G15G29G26G10
  23217026.883    -9853529.24349  -7654379.17145  23217025.368    23217034.046
       219.000         159.000
  20741144.164    -5030734.84049  -3818668.49147  20741143.275    20741147.230
       244.000         208.000
  21287014.107   -13434446.12749 -10457073.09547  21287013.477    21287017.661
       240.000         199.000
  20927355.925     -523529.06149   -405596.05047  20927355.253    20927361.037
       242.000         205.000
  23386382.679    -7674929.57749  -5972600.79845  23386382.175    23386388.482
       219.000         160.000
  20500815.309     -239445.70249   -182212.03947  20500814.861    20500820.082
       245.000         211.000
  22692044.485   -11463760.18849  -8923647.04146  22692043.415    22692050.546
       224.000         169.000
  22864837.882    -2159952.07449  -1673874.28446  22864837.313    22864844.827
       226.000         172.000
  21504007.654    -9393083.14149  -7111675.28146  21504007.845    21504013.663
       236.000         187.000
  24709660.912    14619171.75849  11374690.11344  24709658.859    24709667.745
       204.000         131.000
 03  6 25 16 12 30.0000000  0  9G23G21G18G17G16G 6G15G29G26
  23201002.820    -9937735.61149  -7719994.41445  23201001.401    23201009.675
       223.000         160.000
  20737866.515    -5047959.20149  -3832090.08847  20737865.794    20737869.426
       245.000         209.000
  21275496.300   -13494972.39949 -10504236.38447  21275495.241    21275499.790
       241.000         199.000
  20929516.465     -512175.48249   -396749.14747  20929515.798    20929521.611
       242.000         205.000
  23383135.372    -7691995.17649  -5985898.66645  23383134.943    23383140.498
       222.000         160.000
  20507648.925     -203534.89549   -154229.61447  20507648.360    20507653.768
       245.000         211.000
  22679334.607   -11530550.94549  -8975691.77346  22679332.994    22679340.024
       224.000         169.000
  22870070.016    -2132457.15849  -1652449.67146  22870069.680    22870076.186
       226.000         172.000
  21500149.984    -9413355.34349  -7127471.79746  21500149.246    21500155.761
       235.000         187.000
 03  6 25 16 13  0.0000000  0  9G23G21G18G17G16G 6G15G29G26
  23185031.826   -10021663.53349  -7785392.68345  23185030.108    23185038.001
       222.000         160.000
  20734624.937    -5064994.16249  -3845364.10147  20734624.078    20734627.663
       244.000         209.000
  21264054.327   -13555100.20149 -10551089.17247  21264053.392    21264057.853
       240.000         199.000
  20931709.533     -500651.03049   -387769.07747  20931708.720    20931714.955
       242.000         205.000
  23379990.616    -7708521.62549  -5998776.45445  23379989.100    23379995.311
       220.000         161.000
  20514575.750     -167134.27549   -125865.51047  20514575.245    20514580.652
       245.000         211.000
  22666641.769   -11597252.12649  -9027666.68746  22666640.891    22666647.895
       224.000         169.000
  22875404.255    -2104426.14049  -1630607.30646  22875404.277    22875409.962
       226.000         173.000
  21496413.159    -9432992.19649  -7142773.22946  21496412.513    21496418.983
       234.000         187.000
 03  6 25 16 13 30.0000000  0  9G23G21G18G17G16G 6G15G29G26
  23169113.548   -10105314.12149  -7850574.85045  23169113.047    23169119.409
       222.000         161.000
  20731418.985    -5081841.59049  -3858491.98447  20731418.158    20731421.886
       244.000         208.000
  21252687.803   -13614831.22649 -10597632.78247  21252686.791    21252691.646
       240.000         199.000
  20933934.805     -488957.29249   -378657.09947  20933933.839    20933940.107
       242.000         205.000
  23376947.845    -7724511.25649  -6011235.93345  23376947.286    23376953.285
       221.000         160.000
  20521595.302     -130246.44149    -97121.76047  20521594.796    20521600.091
       245.000         211.000
  22653965.579   -11663865.86049  -9079573.48446  22653964.707    22653971.258
       225.000         169.000
  22880839.858    -2075862.10749  -1608349.61846  22880839.305    22880845.424
       225.000         173.000
  21492797.044    -9451994.67849  -7157580.34946  21492796.417    21492803.055
       235.000         187.000
 03  6 25 16 14  0.0000000  0  9G23G21G18G17G16G 6G15G29G26
  23153248.445   -10188685.32249  -7915539.32345  23153247.310    23153254.234
       222.000         161.000
  20728248.896    -5098500.41249  -3871472.89847  20728248.062    20728251.766
       244.000         208.000
  21241397.119   -13674163.95049 -10643866.04247  21241396.247    21241400.782
       240.000         200.000
  20936192.521     -477092.93449   -369412.17547  20936191.396    20936197.617
       242.000         205.000
  23374007.524    -7739962.97549  -6023276.27145  23374007.251    23374012.653
       222.000         161.000
  20528707.703      -92870.86349    -67997.95747  20528707.192    20528712.571
       245.000         211.000
  22641306.160   -11730391.24849  -9131411.41646  22641305.101    22641312.197
       225.000         170.000
  22886376.903    -2046764.88449  -1585676.45846  22886375.482    22886382.465
       224.000         172.000
  21489302.074    -9470360.71949  -7171891.53647  21489301.496    21489307.693
       236.000         188.000
 03  6 25 16 14 30.0000000  0  9G23G21G18G17G16G 6G15G29G26
  23137436.805   -10271775.43949  -7980284.78045  23137436.616    23137443.254
       222.000         160.000
  20725114.907    -5114969.59249  -3884306.03847  20725114.062    20725117.859
       244.000         208.000
  21230182.512   -13733097.01849 -10689787.88247  21230181.551    21230186.317
       240.000         200.000
  20938482.887     -465057.19849   -360033.70347  20938482.021    20938488.151
       242.000         205.000
  23371169.751    -7754876.30549  -6034897.07945  23371168.757    23371174.021
       219.000         161.000
  20535912.942      -55007.17749    -38493.81247  20535912.374    20535917.677
       245.000         211.000
  22628663.856   -11796827.46849  -9183179.88646  22628663.093    22628669.005
       225.000         171.000
  22892015.321    -2017134.55449  -1562587.89646  22892014.488    22892021.633
       224.000         172.000
  21485928.692    -9488088.22149  -7185705.16047  21485928.201    21485934.416
       235.000         188.000
 03  6 25 16 15  0.0000000  0  9G23G21G18G17G16G 6G15G29G26
  23121679.044   -10354583.14449  -8044810.16645  23121677.875    23121685.160
       222.000         161.000
  20722016.984    -5131249.47749  -3896991.67347  20722016.127    20722020.135
       244.000         209.000
  21219044.045   -13791629.80449 -10735397.80947  21219043.002    21219047.822
       240.000         200.000
  20940805.852     -452850.24849   -350521.81547  20940804.932    20940811.090
       242.000         205.000
  23368434.281    -7769251.25549  -6046098.37645  23368433.390    23368439.556
       221.000         161.000
  20543211.017      -16655.50849     -8609.41747  20543210.461    20543215.669
       245.000         210.000
  22616038.418   -11863174.39749  -9234878.76646  22616037.123    22616044.631
       227.000         171.000
  22897755.135    -1986971.70649  -1539084.36846  22897754.464    22897760.736
       223.000         172.000
  21482677.042    -9505176.02349  -7199020.31147  21482676.562    21482682.963
       236.000         189.000
 03  6 25 16 15 30.0000000  0  9G23G21G18G17G16G 6G15G29G26
  23105975.200   -10437107.32449  -8109114.62745  23105974.087    23105980.756
       221.000         161.000
  20718955.163    -5147339.50749  -3909529.37147  20718954.466    20718958.324
       244.000         209.000
  21207981.942   -13849761.52449 -10780695.21447  21207980.930    21207985.542
       240.000         200.000
  20943161.383     -440472.02949   -340876.47347  20943160.552    20943166.414
       242.000         205.000
  23365801.264    -7783087.81049  -6056880.12845  23365800.673    23365805.991
       221.000         161.000
  20550601.926       22183.83749     21654.98047  20550601.455    20550606.549
       245.000         210.000
  22603430.132   -11929431.51449  -9286507.68046  22603429.292    22603435.382
       226.000         171.000
  22903595.977    -1956277.31249  -1515166.67346  22903595.741    22903602.213
       224.000         171.000
  21479547.337    -9521622.74449  -7211835.92947  21479547.059    21479552.866
       236.000         189.000
 03  6 25 16 16  0.0000000  0  9G23G21G18G17G16G 6G15G29G26
  23090325.530   -10519346.58949  -8173197.09645  23090323.602    23090331.248
       222.000         160.000
  20715929.625    -5163238.94549  -3921918.55447  20715928.991    20715932.570
       244.000         209.000
  21196996.250   -13907491.16949 -10825679.32147  21196995.455    21196999.989
       240.000         200.000
  20945549.712     -427921.43649   -331096.81747  20945548.818    20945554.758
       242.000         205.000
  23363270.817    -7796385.64349  -6067242.11145  23363270.275    23363276.848
       220.000         161.000
  20558085.593       61510.61249     52299.19147  20558085.114    20558090.207
       245.000         210.000
  22590838.900   -11995598.68449  -9338066.49446  22590838.338    22590844.621
       228.000         172.000
  22909538.015    -1925051.83249  -1490835.13846  22909537.897    22909543.856
       225.000         172.000
  21476539.915    -9537426.99049  -7224150.90647  21476539.661    21476545.927
       236.000         189.000
 03  6 25 16 16 30.0000000  0  9G23G21G18G17G16G 6G15G29G26
  23074730.256   -10601299.79649  -8237056.65745  23074728.398    23074736.391
       221.000         160.000
  20712940.451    -5178947.21849  -3934158.78047  20712939.670    20712943.175
       244.000         209.000
  21186087.283   -13964818.27149 -10870349.76947  21186086.488    21186091.217
       241.000         201.000
  20947970.793     -415198.57349   -321182.91947  20947969.732    20947975.981
       241.000         204.000
  23360842.842    -7809145.06249  -6077184.54645  23360842.016    23360846.560
       223.000         161.000
  20565661.910      101324.36549     83322.86647  20565661.499    20565666.563
       245.000         210.000
  22578264.944   -12061675.73049  -9389555.08446  22578263.394    22578269.479
       227.000         172.000
  22915580.932    -1893296.15449  -1466090.45546  22915580.394    22915586.791
       225.000         172.000
  21473654.914    -9552587.62849  -7235964.37347  21473654.428    21473660.758
       236.000         189.000
 03  6 25 16 17  0.0000000  0  9G23G21G18G17G16G 6G15G29G26
  23059189.531   -10682965.93849  -8300692.52645  23059187.487    23059195.747
       222.000         160.000
  20709987.627    -5194464.49049  -3946250.17747  20709986.685    20709990.501
       244.000         208.000
  21175254.999   -14021742.34349 -10914706.17847  21175254.267    21175258.398
       240.000         201.000
  20950424.694     -402303.22449   -311134.62747  20950423.743    20950429.959
       241.000         204.000
  23358517.233    -7821366.54649  -6086707.82745  23358516.825    23358522.564
       221.000         161.000
  20573330.869      141624.79749    114725.76547  20573330.190    20573335.600
       245.000         210.000
  22565708.031   -12127662.56149  -9440973.38546  22565706.916    22565712.861
       228.000         172.000
  22921724.646    -1861010.95149  -1440933.15146  22921724.850    22921729.879
       226.000         172.000
  21470892.650    -9567103.46949  -7247275.40447  21470892.740    21470898.221
       236.000         189.000
 03  6 25 16 17 30.0000000  0  9G23G21G18G17G16G 6G15G29G26
  23043703.703   -10764343.49749  -8364103.56245  23043702.906    23043710.658
       222.000         162.000
  20707071.211    -5209790.23249  -3958192.33547  20707070.483    20707074.171
       244.000         208.000
  21164499.581   -14078262.52149 -10958747.87447  21164498.762    21164503.615
       241.000         201.000
  20952911.485     -389235.00649   -300951.62847  20952910.462    20952916.644
       241.000         204.000
  23356294.070    -7833049.49049  -6095811.44945  23356293.055    23356300.479
       220.000         161.000
  20581092.387      182411.84549    146507.84347  20581091.847    20581097.145
       245.000         210.000
  22553168.456   -12193558.60649  -9492320.93446  22553167.257    22553172.587
       228.000         172.000
  22927969.019    -1828197.02849  -1415363.86446  22927968.837    22927974.420
       227.000         172.000
  21468253.296    -9580973.16449  -7258082.94047  21468252.558    21468258.703
       236.000         189.000
 03  6 25 16 18  0.0000000  0  9G23G21G18G17G16G 6G15G29G26
  23028273.185   -10845431.32449  -8427288.81845  23028270.820    23028279.097
       222.000         162.000
  20704191.401    -5224923.93249  -3969984.84247  20704190.617    20704194.249
       245.000         209.000
  21153821.168   -14134377.99249 -11002474.20947  21153820.335    21153824.998
       241.000         201.000
  20955431.228     -375993.82749   -290633.85047  20955430.457    20955436.513
       242.000         204.000
  23354173.334    -7844193.88349  -6104495.41745  23354172.833    23354177.898
       221.000         161.000
  20588946.440      223685.10649    178668.79347  20588945.779    20588951.223
       245.000         210.000
  22540646.213   -12259363.54549  -9543597.48846  22540645.316    22540651.462
       227.000         172.000
  22934313.785    -1794855.13549  -1389383.17146  22934313.015    22934320.111
       226.000         172.000
  21465737.093    -9594195.66749  -7268386.16947  21465736.700    21465743.080
       236.000         189.000
 03  6 25 16 18 30.0000000  0  9G23G21G18G17G16G 6G15G29G26
  23012897.794   -10926228.68549  -8490247.73546  23012897.253    23012905.254
       222.000         163.000
  20701348.147    -5239865.64049  -3981627.75147  20701347.445    20701351.193
       244.000         209.000
  21143219.807   -14190088.38149 -11045884.90547  21143219.104    21143223.233
       240.000         201.000
  20957983.941     -362579.47249   -280181.13247  20957983.100    20957988.713
       242.000         204.000
  23352154.929    -7854800.52049  -6112760.36345  23352153.521    23352160.607
       221.000         162.000
  20596892.839      265443.74649    211207.95347  20596892.558    20596897.499
       245.000         210.000
  22528141.192   -12325077.52749  -9594803.16746  22528140.283    22528145.741
       227.000         172.000
  22940758.791    -1760986.44549  -1362991.99146  22940758.194    22940763.765
       227.000         172.000
  21463344.154    -9606770.08649  -7278184.40347  21463343.786    21463349.738
       235.000         189.000
 03  6 25 16 19  0.0000000  0  9G23G21G18G17G16G 6G15G29G26
  22997578.042   -11006734.63949  -8552979.59346  22997577.199    22997584.674
       222.000         163.000
  20698541.419    -5254615.23949  -3993120.96347  20698540.519    20698544.474
       244.000         209.000
  21132695.604   -14245393.65449 -11088979.91947  21132694.800    21132699.337
       241.000         202.000
  20960569.594     -348992.05949   -269593.56747  20960568.660    20960574.496
       241.000         204.000
  23350238.865    -7864869.85549  -6120606.63145  23350237.967    23350243.934
       221.000         162.000
  20604931.532      307687.06649    244124.78447  20604931.103    20604936.463
       245.000         210.000
  22515653.536   -12390700.61749  -9645938.02746  22515651.649    22515658.189
       227.000         172.000
  22947303.800    -1726592.07049  -1336191.17746  22947303.382    22947309.823
       227.000         172.000
  21461074.865    -9618695.58549  -7287476.98747  21461074.118    21461080.787
       236.000         189.000
 03  6 25 16 19 30.0000000  0  9G23G21G18G17G16G 6G15G29G26
  22982313.921   -11086947.83949  -8615483.32546  22982311.947    22982319.917
       222.000         163.000
  20695771.343    -5269171.97049  -4004463.88247  20695770.316    20695774.300
       244.000         209.000
  21122248.640   -14300292.80949 -11131758.47647  21122247.602    21122252.436
       241.000         202.000
  20963188.326     -335230.65349   -258870.41547  20963187.437    20963193.631
       242.000         204.000
  23348425.092    -7874401.77249  -6128034.14445  23348424.342    23348428.970
       220.000         162.000
  20613062.449      350415.05149    277419.27947  20613062.134    20613067.297
       245.000         210.000
  22503183.212   -12456232.31949  -9697001.66346  22503181.062    22503188.532
       227.000         172.000
  22953948.683    -1691672.60949  -1308981.20946  22953948.942    22953955.729
       226.000         172.000
  21458929.200    -9629970.85949  -7296262.90047  21458929.282    21458934.692
       236.000         189.000
 03  6 25 16 20  0.0000000  0  9G23G21G18G17G16G 6G15G29G26
  22967105.805   -11166866.93449  -8677757.88646  22967105.394    22967112.318
       222.000         163.000
  20693038.104    -5283535.33049  -4015656.13347  20693037.168    20693041.042
       244.000         209.000
  21111879.053   -14354785.12949 -11174220.00547  21111878.171    21111882.720
       241.000         202.000
  20965840.136     -321295.31649   -248011.74247  20965839.162    20965845.314
       242.000         204.000
  23346713.456    -7883396.36949  -6135042.95345  23346713.846    23346718.899
       223.000         162.000
  20621285.521      393627.31149    311091.12347  20621284.991    20621290.320
       245.000         210.000
  22490730.374   -12521672.25449  -9747993.81346  22490728.463    22490736.038
       227.000         172.000
  22960693.409    -1656229.08049  -1281362.88346  22960692.503    22960699.092
       226.000         172.000
  21456907.565    -9640594.71549  -7304541.21847  21456907.362    21456913.335
       236.000         189.000
 03  6 25 16 20 30.0000000  0  9G23G21G18G17G16G 6G15G29G26
  22951953.707   -11246491.52749  -8739802.97946  22951952.954    22951960.065
       224.000         163.000
  20690341.600    -5297705.59349  -4026697.91947  20690340.775    20690344.535
       244.000         209.000
  21101586.956   -14408870.70549 -11216364.58547  21101586.296    21101590.473
       241.000         202.000
  20968524.991     -307186.36749   -237017.78547  20968524.163    20968530.359
       241.000         204.000
  23345104.091    -7891854.32849  -6141633.61045  23345103.061    23345108.308
       222.000         162.000
  20629600.503      437322.79549    345139.51047  20629600.065    20629605.557
       244.000         210.000
  22478294.919   -12587020.93349  -9798914.83046  22478294.061    22478300.667
       227.000         172.000
  22967537.521    -1620262.82849  -1253337.24346  22967536.675    22967544.266
       226.000         172.000
  21455009.990    -9650566.76249  -7312311.63047  21455009.556    21455016.055
       237.000         189.000
 03  6 25 16 21  0.0000000  0  9G23G21G18G17G16G 6G15G29G26
  22936857.901   -11325820.78749  -8801617.92346  22936856.784    22936863.961
       224.000         164.000
  20687681.866    -5311682.66749  -4037589.16947  20687681.136    20687684.803
       245.000         209.000
  21091372.198   -14462549.33049 -11258192.06447  21091371.317    21091375.772
       241.000         202.000
  20971242.931     -292903.59749   -225888.37947  20971241.961    20971248.351
       243.000         204.000
  23343596.618    -7899776.18949  -6147806.52545  23343596.394    23343602.542
       222.000         162.000
  20638007.320      481500.71349    379563.81847  20638006.725    20638012.182
       244.000         209.000
  22465876.903   -12652278.00749  -9849764.47546  22465875.638    22465882.489
       227.000         173.000
  22974480.935    -1583775.01649  -1224905.17846  22974479.929    22974487.497
       227.000         171.000
  21453236.551    -9659886.42949  -7319573.68847  21453236.673    21453242.372
       237.000         190.000
 03  6 25 16 21 30.0000000  0  9G23G21G18G17G16G 6G15G29G26
  22921818.653   -11404852.78249  -8863201.23946  22921818.415    22921825.643
       223.000         165.000
  20685059.163    -5325465.29849  -4048328.90147  20685058.252    20685062.110
       244.000         209.000
  21081235.206   -14515819.46349 -11299701.24547  21081234.375    21081238.837
       241.000         202.000
  20973994.175     -278445.87849   -214622.64947  20973993.426    20973999.324
       241.000         204.000
  23342191.319    -7907161.66549  -6153561.49045  23342189.648    23342196.273
       222.000         162.000
  20646505.938      526161.21649    414364.16947  20646505.422    20646510.676
       244.000         209.000
  22453476.534   -12717442.42849  -9900541.92846  22453475.053    22453481.452
       228.000         173.000
  22981523.537    -1546766.05549  -1196067.03446  22981523.462    22981529.618
       226.000         171.000
  21451587.542    -9668552.04649  -7326326.09647  21451587.275    21451592.994
       237.000         190.000
 03  6 25 16 22  0.0000000  0  9G23G21G18G17G16G 6G15G29G26
  22906836.017   -11483587.02849  -8924552.53446  22906835.028    22906842.955
       224.000         165.000
  20682473.406    -5339053.64149  -4058917.24347  20682472.332    20682476.704
       244.000         209.000
  21071175.922   -14568681.27649 -11340892.26547  21071174.959    21071179.591
       241.000         202.000
  20976778.635     -263813.65249   -203220.94747  20976777.659    20976783.696
       241.000         204.000
  23340887.839    -7914011.50749  -6158899.06445  23340887.230    23340892.162
       222.000         161.000
  20655096.253      571303.34849    449539.79947  20655095.765    20655101.052
       244.000         209.000
  22441093.733   -12782514.71749  -9951247.59846  22441091.705    22441099.340
       228.000         174.000
  22988665.072    -1509237.24949  -1166823.81946  22988664.579    22988671.171
       227.000         171.000
  21450063.093    -9676563.17149  -7332568.51947  21450062.321    21450068.548
       236.000         190.000
 03  6 25 16 22 30.0000000  0  9G23G21G18G17G16G 6G15G29G26
  22891910.307   -11562022.07749  -8985670.71046  22891909.531    22891916.634
       224.000         166.000
  20679924.778    -5352446.88549  -4069353.55147  20679923.797    20679927.767
       244.000         209.000
  21061194.554   -14621133.89449 -11381764.42547  21061193.609    21061198.289
       241.000         202.000
  20979596.447     -249006.12149   -191682.63747  20979595.558    20979601.564
       241.000         204.000
  23339686.332    -7920325.57149  -6163819.14145  23339685.272    23339691.037
       222.000         161.000
  20663778.196      616927.03349    485090.67247  20663777.724    20663783.078
       244.000         209.000
  22428728.500   -12847494.13849 -10001880.88846  22428727.425    22428733.432
       228.000         174.000
  22995905.317    -1471189.47649  -1137176.20146  22995904.926    22995910.826
       226.000         170.000
  21448663.414    -9683918.44849  -7338299.88747  21448663.040    21448669.029
       237.000         190.000
 03  6 25 16 23  0.0000000  0  9G23G21G18G17G16G 6G15G29G26
  22877041.614   -11640157.37149  -9046555.29346  22877040.604    22877048.460
       224.000         165.000
  20677413.233    -5365645.10049  -4079637.88547  20677412.345    20677416.081
       244.000         209.000
  21051291.075   -14673176.96249 -11422317.44447  21051290.115    21051294.470
       241.000         203.000
  20982447.600     -234023.33049   -180007.75247  20982446.674    20982452.841
       241.000         204.000
  23338586.573    -7926104.72949  -6168322.40445  23338585.873    23338591.264
       222.000         161.000
  20672551.626      663031.37749    521016.07847  20672551.211    20672556.419
       244.000         209.000
  22416380.959   -12912380.68949 -10052441.83046  22416379.933    22416386.638
       229.000         174.000
  23003244.086    -1432623.86749  -1107125.07146  23003243.276    23003250.321
       225.000         170.000
  21447388.623    -9690617.54149  -7343519.94347  21447388.202    21447393.849
       236.000         190.000
 03  6 25 16 23 30.0000000  0  9G23G21G18G17G16G 6G15G29G26
  22862230.139   -11717991.60449  -9107205.30946  22862229.508    22862237.195
       222.000         165.000
  20674939.002    -5378647.42049  -4089769.58147  20674938.248    20674942.021
       244.000         209.000
  21041465.703   -14724809.67649 -11462550.72647  21041464.807    21041469.327
       241.000         203.000
  20985332.152     -218864.81349   -168195.94947  20985331.128    20985337.149
       241.000         204.000
  23337588.814    -7931348.64049  -6172408.61645  23337586.965    23337592.976
       221.000         161.000
  20681416.418      709616.06749    557315.76847  20681415.804    20681421.085
       243.000         209.000
  22404051.226   -12977174.03249 -10102930.13746  22404050.489    22404056.887
       229.000         175.000
  23010681.293    -1393541.19649  -1076671.05646  23010680.198    23010686.953
       226.000         169.000
  21446238.875    -9696659.23949  -7348227.75147  21446238.078    21446244.026
       236.000         189.000
 03  6 25 16 24  0.0000000  0  9G23G21G18G17G16G 6G15G29G26
  22847476.088   -11795524.10449  -9167620.18446  22847474.682    22847483.780
       224.000         166.000
  20672502.035    -5391453.89249  -4099748.65947  20672501.265    20672504.805
       244.000         209.000
  21031718.322   -14776032.32249 -11502464.45947  21031717.445    21031721.976
       242.000         203.000
  20988250.307     -203530.14049   -156246.87447  20988249.367    20988255.706
       242.000         204.000
  23336692.591    -7936058.53549  -6176078.69545  23336692.744    23336696.219
       221.000         162.000
  20690372.436      756679.99149    593988.90047  20690372.133    20690377.402
       243.000         208.000
  22391739.220   -13041874.10949 -10153345.76946  22391737.892    22391744.666
       228.000         175.000
  23018216.539    -1353943.15349  -1045815.43746  23018216.620    23018222.638
       226.000         169.000
  21445214.237    -9702043.28849  -7352423.09747  21445213.777    21445220.051
       236.000         189.000
 03  6 25 16 24 30.0000000  0  9G23G21G18G17G16G 6G15G29G26
  22832779.780   -11872753.53249  -9227798.92546  22832778.287    22832785.866
       224.000         166.000
  20670102.469    -5404063.76149  -4109574.55147  20670101.546    20670105.356
       243.000         209.000
  21022049.199   -14826843.89349 -11542057.87747  21022048.509    21022052.836
       242.000         203.000
  20991202.054     -188018.91249   -144160.23647  20991201.124    20991207.241
       241.000         204.000
  23335897.955    -7940234.37249  -6179332.62945  23335897.304    23335902.783
       221.000         161.000
  20699419.582      804223.03449    631035.36847  20699419.150    20699424.743
       244.000         208.000
  22379445.069   -13106480.16449 -10203688.13446  22379443.793    22379449.722
       228.000         175.000
  23025849.846    -1313830.41249  -1014558.74546  23025849.486    23025856.234
       226.000         170.000
  21444315.007    -9706768.62049  -7356105.16547  21444314.970    21444320.724
       237.000         190.000
 03  6 25 16 25  0.0000000  0  9G23G21G18G17G16G 6G15G29G26
  22818141.101   -11949679.81249  -9287741.43446  22818139.631    22818147.547
       223.000         166.000
  20667740.237    -5416477.32949  -4119247.47347  20667739.242    20667743.398
       244.000         209.000
  21012458.217   -14877244.96449 -11581331.42647  21012457.279    21012461.830
       242.000         204.000
  20994187.278     -172331.38049   -131936.21147  20994186.217    20994192.391
       241.000         204.000
  23335204.735    -7943877.59949  -6182171.56145  23335204.274    23335208.499
       220.000         161.000
  20708557.613      852243.60449    668453.93747  20708557.184    20708562.820
       244.000         208.000
  22367168.798   -13170992.82349 -10253957.72846  22367168.252    22367173.802
       228.000         175.000
  23033580.593    -1273205.00649   -982902.58646  23033580.024    23033585.813
       226.000         169.000
  21443541.183    -9710835.35049  -7359274.03447  21443540.876    21443546.905
       236.000         190.000
 03  6 25 16 25 30.0000000  0  9G23G21G18G17G16G 6G15G29G26
  22803560.539   -12026300.92849  -9347446.14846  22803559.224    22803567.269
       223.000         166.000
  20665415.601    -5428693.31449  -4128766.43947  20665414.741    20665418.591
       244.000         209.000
  21002945.588   -14927234.10549 -11620283.99547  21002944.624    21002949.215
       242.000         204.000
  20997206.299     -156466.42949   -119573.93747  20997205.277    20997211.657
       241.000         203.000
  23334612.936    -7946987.47149  -6184594.86445  23334611.854    23334617.583
       221.000         162.000
  20717786.616      900741.99849    706244.83647  20717786.115    20717791.686
       244.000         208.000
  22354910.397   -13235410.65049 -10304153.41846  22354909.558    22354916.570
       229.000         175.000
  23041408.919    -1232067.00049   -950846.99746  23041408.535    23041414.720
       227.000         170.000
  21442892.897    -9714241.83449  -7361928.42747  21442892.035    21442898.511
       237.000         190.000
 03  6 25 16 26  0.0000000  0  9G23G21G18G17G16G 6G15G29G26
  22789038.097   -12102616.79949  -9406912.99346  22789037.038    22789045.139
       224.000         167.000
  20663128.512    -5440712.16149  -4138131.79047  20663127.504    20663131.749
       244.000         209.000
  20993511.331   -14976811.57049 -11658915.76647  20993510.785    20993515.085
       241.000         204.000
  21000258.917     -140424.83749   -107074.01947  21000257.854    21000264.216
       241.000         203.000
  23334122.421    -7949565.52749  -6186603.78745  23334121.394    23334127.118
       221.000         162.000
  20727106.245      949716.70149    744406.88847  20727105.793    20727111.375
       244.000         208.000
  22342669.970   -13299734.28349 -10354275.70846  22342669.032    22342675.147
       228.000         175.000
  23049334.446    -1190418.43749   -918393.57846  23049333.309    23049339.731
       225.000         169.000
  21442370.264    -9716988.28749  -7364068.50747  21442369.736    21442376.015
       236.000         190.000
 03  6 25 16 26 30.0000000  0  9G23G21G18G17G16G 6G15G29G26
  22774573.941   -12178626.37149  -9466141.17046  22774573.551    22774580.090
       224.000         168.000
  20660879.031    -5452533.35249  -4147343.12847  20660878.132    20660882.136
       244.000         209.000
  20984155.402   -15025977.25549 -11697226.68147  20984154.562    20984159.030
       242.000         204.000
  21003345.304     -124205.87249    -94435.89147  21003344.337    21003350.438
       241.000         203.000
  23333732.953    -7951612.28949  -6188198.70945  23333731.844    23333737.844
       221.000         162.000
  20736516.411      999167.12949    782939.63047  20736516.159    20736521.642
       244.000         208.000
  22330447.496   -13363963.56849 -10404324.48946  22330446.494    22330453.025
       229.000         175.000
  23057356.787    -1148260.52949   -885543.27146  23057355.665    23057362.782
       225.000         169.000
  21441973.375    -9719074.08749  -7365693.79347  21441973.171    21441979.119
       236.000         190.000
 03  6 25 16 27  0.0000000  0  9G23G21G18G17G16G 6G15G29G26
  22760168.413   -12254328.10549  -9525129.46546  22760167.594    22760174.222
       224.000         168.000
  20658667.385    -5464155.74449  -4156399.55947  20658666.563    20658670.446
       244.000         209.000
  20974878.144   -15074729.70649 -11735215.59847  20974877.395    20974881.577
       242.000         205.000
  21006465.663     -107808.59049    -81658.80847  21006464.757    21006470.722
       241.000         203.000
  23333444.667    -7953127.45749  -6189379.40445  23333443.683    23333450.002
       221.000         162.000
  20746017.073     1049093.10949    821842.93647  20746016.642    20746022.345
       244.000         208.000
  22318243.282   -13428097.27149 -10454298.78746  22318242.212    22318249.425
       228.000         176.000
  23065475.968    -1105593.85549   -852296.52546  23065475.364    23065481.640
       226.000         169.000
  21441702.383    -9720497.99249  -7366803.32447  21441702.039    21441708.180
       236.000         190.000
 03  6 25 16 27 30.0000000  0  9G23G21G18G17G16G 6G15G29G26
  22745821.404   -12329721.65549  -9583877.62546  22745820.336    22745826.577
       223.000         167.000
  20656493.502    -5475579.55749  -4165301.24647  20656492.738    20656496.284
       244.000         209.000
  20965679.393   -15123069.52449 -11772882.97947  20965678.533    20965682.879
       243.000         205.000
  21009619.839      -91233.28049    -68743.00947  21009618.754    21009625.302
       241.000         203.000
  23333257.237    -7954112.41149  -6190146.94245  23333255.443    23333262.396
       220.000         161.000
  20755607.972     1099493.43349    861115.85747  20755607.512    20755613.012
       244.000         208.000
  22306057.073   -13492135.75649 -10504198.88846  22306056.249    22306062.329
       229.000         176.000
  23073691.633    -1062420.15849   -818654.70146  23073690.906    23073696.825
       224.000         168.000
  21441557.377    -9721260.03149  -7367397.11547  21441556.849    21441563.222
       235.000         190.000
 03  6 25 16 28  0.0000000  0  9G23G21G18G17G16G 6G15G29G26
  22731533.292   -12404805.34349  -9642384.33146  22731532.498    22731539.830
       225.000         167.000
  20654357.699    -5486803.39949  -4174047.10547  20654356.836    20654360.945
       244.000         209.000
  20956559.410   -15170995.29949 -11810227.73047  20956558.576    20956563.103
       242.000         205.000
  21012808.172      -74478.74949    -55687.54747  21012807.286    21012813.559
       242.000         203.000
  23333170.691    -7954566.85849  -6190501.10045  23333170.362    23333175.127
       222.000         161.000
  20765289.130     1150368.00649    900758.33847  20765288.530    20765294.165
       244.000         208.000
  22293889.286   -13556077.92849 -10554023.93746  22293888.362    22293894.921
       230.000         177.000
  23082003.651    -1018739.93649   -784618.16946  23082003.102    23082009.047
       225.000         168.000
  21441538.499    -9721358.98949  -7367474.21947  21441538.172    21441544.221
       236.000         190.000
 03  6 25 16 28 30.0000000  0  9G23G21G18G17G16G 6G15G29G26
  22717304.171   -12479579.67849  -9700649.99146  22717302.819    22717310.701
       225.000         168.000
  20652259.740    -5497828.54649  -4182638.14247  20652258.949    20652262.922
       245.000         209.000
  20947517.997   -15218508.42349 -11847250.92847  20947517.226    20947521.332
       243.000         205.000
  21016030.350      -57546.21049    -42493.38547  21016029.216    21016035.724
       241.000         203.000
  23333184.815    -7954492.86249  -6190443.47245  23333184.063    23333188.961
       222.000         161.000
  20775060.128     1201714.72649    940768.71747  20775059.516    20775065.268
       244.000         207.000
  22281739.669   -13619924.89049 -10603774.80846  22281738.703    22281745.231
       230.000         178.000
  23090411.647     -974555.94949   -750189.11046  23090411.950    23090416.666
       224.000         167.000
  21441645.723    -9720795.85449  -7367035.40847  21441645.558    21441651.385
       237.000         190.000
 03  6 25 16 29  0.0000000  0  9G23G21G18G17G16G 6G15G29G26
  22703134.366   -12554042.74249  -9758673.08646  22703133.638    22703140.968
       224.000         169.000
  20650199.882    -5508653.30049  -4191073.03347  20650199.135    20650203.101
       245.000         210.000
  20938555.299   -15265607.62049 -11883951.58247  20938554.360    20938558.996
       242.000         205.000
  21019286.665      -40434.19149    -29159.37547  21019285.531    21019291.976
       241.000         203.000
  23333299.598    -7953890.25849  -6189973.96845  23333299.303    23333305.330
       222.000         160.000
  20784921.002     1253533.77149    981147.13847  20784920.439    20784926.014
       244.000         207.000
  22269608.328   -13683675.22449 -10653450.39146  22269607.422    22269614.344
       230.000         178.000
  23098915.397     -929868.34249   -715367.61246  23098915.204    23098921.616
       224.000         167.000
  21441879.180    -9719569.02949  -7366079.43347  21441878.766    21441884.557
       236.000         190.000
 03  6 25 16 29 30.0000000  0  9G23G21G18G17G16G 6G15G29G26
  22689023.704   -12628194.45449  -9816453.59946  22689022.227    22689029.763
       226.000         169.000
  20648178.054    -5519278.18049  -4199352.17247  20648177.184    20648181.211
       244.000         209.000
  20929671.318   -15312293.19849 -11920329.93047  20929670.491    20929674.848
       242.000         205.000
  21022577.026      -23143.06649    -15685.80047  21022576.083    21022582.391
       241.000         202.000
  23333514.744    -7952760.25549  -6189093.48745  23333513.954    23333519.826
       220.000         161.000
  20794871.474     1305823.51349   1021892.33847  20794870.970    20794876.423
       243.000         207.000
  22257495.268   -13747329.63049 -10703051.20746  22257493.738    22257500.329
       230.000         178.000
  23107514.569     -884679.29149   -680155.37746  23107514.870    23107520.183
       224.000         167.000
  21442238.782    -9717679.07649  -7364606.72847  21442237.978    21442244.189
       236.000         190.000
 03  6 25 16 30  0.0000000  0  9G23G21G18G17G16G 6G15G29G26
  22674972.532   -12702033.72149  -9873990.63546  22674971.494    22674978.666
       225.000         169.000
  20646194.417    -5529702.19849  -4207474.80047  20646193.458    20646197.488
       244.000         209.000
  20920866.155   -15358564.38749 -11956385.38247  20920865.406    20920869.754
       243.000         206.000
  21025901.587       -5672.33049     -2072.25847  21025900.932    21025906.850
       240.000         202.000
  23333829.983    -7951103.26049  -6187802.37245  23333829.996    23333835.423
       221.000         161.000
  20804911.377     1358583.43049   1063003.90547  20804911.050    20804916.519
       243.000         207.000
  22245400.620   -13810887.39749 -10752576.72146  22245399.301    22245405.746
       230.000         179.000
  23116208.951     -838989.96249   -644553.32546  23116208.912    23116214.825
       224.000         167.000
  21442724.753    -9715125.27149  -7362616.73847  21442724.451    21442730.672
       236.000         191.000
 03  6 25 16 30 30.0000000  0  9G23G21G18G17G16G 6G15G29G26
  22660980.931   -12775559.75649  -9931283.58146  22660980.000    22660986.778
       225.000         169.000
  20644249.095    -5539925.06949  -4215440.69247  20644248.224    20644252.078
       244.000         209.000
  20912139.835   -15404421.50149 -11992118.17047  20912138.927    20912143.435
       242.000         206.000
  21029260.481       11978.63749     11681.71547  21029259.447    21029265.790
       240.000         202.000
  23334245.466    -7948920.30849  -6186101.42645  23334244.399    23334250.414
       221.000         161.000
  20815040.568     1411812.63149   1104481.14447  20815040.138    20815045.826
       243.000         207.000
  22233324.457   -13874348.21249 -10802026.68846  22233323.480    22233329.953
       231.000         179.000
  23124998.319     -792801.65649   -608562.44646  23124997.597    23125005.226
       224.000         167.000
  21443337.093    -9711907.42049  -7360109.31447  21443337.017    21443342.333
       236.000         191.000
 03  6 25 16 31  0.0000000  0  9G23G21G18G17G16G 6G15G29G26
  22647049.148   -12848771.69049  -9988331.78646  22647048.764    22647055.743
       226.000         170.000
  20642342.145    -5549946.12849  -4223249.33247  20642341.394    20642345.221
       245.000         209.000
  20903492.378   -15449864.05649 -12027527.93047  20903491.564    20903496.035
       242.000         206.000
  21032653.792       29810.25649     25576.45347  21032652.857    21032659.250
       240.000         202.000
  23334760.814    -7946212.05049  -6183991.14845  23334759.532    23334767.322
       220.000         161.000
  20825258.928     1465510.24849   1146323.38147  20825258.384    20825264.220
       243.000         206.000
  22221266.809   -13937711.51149 -10851400.66946  22221266.098    22221271.984
       230.000         178.000
  23133882.382     -746115.69349   -572183.79646  23133881.437    23133888.242
       224.000         167.000
  21444075.934    -9708024.99549  -7357084.04047  21444075.675    21444081.786
       236.000         190.000
 03  6 25 16 31 30.0000000  0 10G23G21G18G17G16G 6G15G29G26G 2
  22633177.005   -12921670.19349 -10045135.75446  22633176.228    22633182.282
       227.000         170.000
  20640473.476    -5559766.45149  -4230901.55447  20640472.728    20640476.446
       245.000         210.000
  20894923.608   -15494893.12849 -12062615.49647  20894922.926    20894927.142
       242.000         206.000
  21036081.141       47820.98149     39610.76247  21036080.265    21036086.609
       240.000         202.000
  23335375.819    -7942980.65149  -6181473.22845  23335375.066    23335381.205
       221.000         161.000
  20835565.892     1519673.66449   1188528.57547  20835565.338    20835571.322
       243.000         206.000
  22209227.470   -14000978.60649 -10900699.68946  22209226.193    22209232.482
       231.000         179.000
  23142860.621     -698934.93549   -535419.58646  23142859.472    23142867.166
       224.000         167.000
  21444940.918    -9703479.40649  -7353542.01047  21444940.367    21444946.102
       236.000         190.000
  25192525.370    -5907621.52249  -4429935.95245  25192522.759    25192531.402
       207.000         133.000
 03  6 25 16 32  0.0000000  0 10G23G21G18G17G16G 6G15G29G26G 2
  22619365.063   -12994252.53949 -10101693.37346  22619364.100    22619370.856
       227.000         171.000
  20638643.441    -5569383.69649  -4238395.53347  20638642.585    20638646.521
       245.000         210.000
  20886433.959   -15539506.50549 -12097379.14847  20886433.103    20886437.462
       242.000         206.000
  21039543.112       66013.51049     53786.72947  21039542.088    21039548.545
       240.000         202.000
  23336090.546    -7939224.92449  -6178546.74145  23336089.591    23336095.807
       220.000         160.000
  20845961.812     1574304.19149   1231097.76147  20845961.391    20845967.113
       242.000         206.000
  22197206.907   -14064147.05549 -10949921.84746  22197206.314    22197212.103
       231.000         178.000
  23151933.072     -651258.85049   -498269.40446  23151932.421    23151940.183
       222.000         167.000
  21445932.487    -9698268.35949  -7349481.44147  21445932.320    21445938.017
       235.000         190.000
  25186476.703    -5939408.27749  -4454704.88045  25186477.265    25186482.938
       206.000         133.000
 03  6 25 16 32 30.0000000  0 10G23G21G18G17G16G 6G15G29G26G 2
  22605613.427   -13066517.59449 -10158003.73046  22605612.140    22605619.126
       226.000         172.000
  20636852.168    -5578796.95749  -4245730.55847  20636851.265    20636855.202
       244.000         210.000
  20878023.457   -15583704.01649 -12131818.74747  20878022.726    20878026.946
       242.000         206.000
  21043039.788       84388.56849     68104.92747  21043038.837    21043045.169
       240.000         202.000
  23336904.895    -7934945.49449  -6175212.18745  23336904.307    23336909.894
       220.000         161.000
  20856446.482     1629401.25649   1274030.49047  20856446.063    20856451.907
       242.000         206.000
  22185205.329   -14127216.19249 -10999066.60446  22185204.303    22185210.356
       231.000         178.000
  23161099.491     -603088.69449   -460734.24246  23161099.145    23161104.975
       223.000         167.000
  21447050.833    -9692391.34249  -7344901.93547  21447050.516    21447056.493
       236.000         190.000
  25180506.203    -5970783.49349  -4479153.15444  25180505.489    25180510.975
       206.000         131.000
 03  6 25 16 33  0.0000000  0 10G23G21G18G17G16G 6G15G29G26G 2
  22591922.195   -13138465.30449 -10214066.82146  22591921.188    22591928.027
       227.000         172.000
  20635099.617    -5588006.63649  -4252906.94047  20635098.559    20635102.753
       244.000         209.000
  20869692.035   -15627485.83749 -12165934.43847  20869691.074    20869695.732
       243.000         207.000
  21046571.049      102945.62149     82564.94347  21046570.333    21046576.315
       240.000         202.000
  23337818.666    -7930143.78349  -6171470.63545  23337817.925    23337822.997
       220.000         161.000
  20867019.604     1684963.16249   1317325.43347  20867019.143    20867025.196
       243.000         206.000
  22173222.478   -14190186.20949 -11048134.13446  22173221.748    22173227.543
       231.000         179.000
  23170359.660     -554426.46149   -422815.64046  23170359.074    23170365.898
       225.000         168.000
  21448295.794    -9685848.96749  -7339803.97547  21448295.614    21448301.514
       236.000         190.000
  25174613.828    -6001747.42849  -4503280.91544  25174611.239    25174622.155
       204.000         131.000
 03  6 25 16 33 30.0000000  0 10G23G21G18G17G16G 6G15G29G26G 2
  22578291.415   -13210095.51649 -10269882.52746  22578290.225    22578297.288
       226.000         172.000
  20633385.833    -5597012.50249  -4259924.50847  20633384.915    20633388.735
       244.000         209.000
  20861439.642   -15670852.52249 -12199726.64247  20861438.746    20861443.188
       243.000         207.000
  21050137.022      121684.75849     97166.84747  21050135.974    21050142.291
       241.000         202.000
  23338831.589    -7924821.22149  -6167323.23245  23338831.493    23338835.938
       220.000         160.000
  20877680.903     1740988.36349   1360981.38747  20877680.513    20877686.200
       243.000         206.000
  22161258.559   -14253057.36549 -11097124.63046  22161258.140    22161263.993
       232.000         179.000
  23179713.052     -505274.20649   -384515.19846  23179712.029    23179719.222
       225.000         169.000
  21449667.286    -9678641.52949  -7334187.78047  21449667.074    21449672.905
       236.000         190.000
  25168799.877    -6032300.14249  -4527088.26644  25168797.064    25168807.675
       204.000         131.000
 03  6 25 16 34  0.0000000  0 10G23G21G18G17G16G 6G15G29G26G 2
  22564721.398   -13281406.17049 -10325449.22246  22564718.710    22564727.706
       227.000         171.000
  20631711.203    -5605812.87949  -4266781.96447  20631710.274    20631714.309
       245.000         209.000
  20853266.475   -15713802.70049 -12233194.30047  20853265.655    20853270.056
       243.000         207.000
  21053737.910      140607.47449    111911.78947  21053736.601    21053743.145
       240.000         201.000
  23339943.699    -7918977.34849  -6162769.62845  23339943.034    23339949.185
       220.000         160.000
  20888430.377     1797477.06749   1404998.51547  20888429.931    20888435.305
       242.000         205.000
  22149313.751   -14315827.90849 -11146036.73246  22149312.460    22149319.093
       232.000         180.000
  23189159.685     -455632.08749   -345833.04246  23189159.599    23189165.246
       224.000         169.000
  21451165.632    -9670767.61049  -7328052.25247  21451164.987    21451171.351
       236.000         190.000
  25163064.405    -6062439.81349  -4550573.77444  25163064.163    25163070.969
       204.000         130.000
 03  6 25 16 34 30.0000000  0 10G23G21G18G17G16G 6G15G29G26G 2
  22551212.136   -13352397.77349 -10380767.31046  22551210.572    22551217.688
       228.000         172.000
  20630075.512    -5614408.58149  -4273479.93347  20630074.816    20630078.572
       245.000         210.000
  20845172.406   -15756337.42149 -12266338.22647  20845171.618    20845175.883
       242.000         207.000
  21057373.560      159713.09249    126799.26147  21057372.664    21057379.121
       241.000         201.000
  23341154.586    -7912614.59149  -6157811.69645  23341154.315    23341159.788
       220.000         160.000
  20899267.618     1854427.09749   1449375.11447  20899267.038    20899273.047
       242.000         205.000
  22137387.879   -14378498.77449 -11194871.16146  22137387.136    22137393.375
       231.000         180.000
  23198698.901     -405502.77549   -306771.27446  23198698.425    23198705.349
       225.000         169.000
  21452790.588    -9662228.58249  -7321398.45747  21452790.462    21452796.276
       237.000         190.000
  25157407.465    -6092167.16049  -4573737.95844  25157406.240    25157415.067
       206.000         131.000
 03  6 25 16 35  0.0000000  0 10G23G21G18G17G16G 6G15G29G26G 2
  22537763.766   -13423068.88349 -10435835.67446  22537762.931    22537770.156
       226.000         172.000
  20628479.086    -5622798.04549  -4280017.19647  20628478.242    20628482.114
       244.000         210.000
  20837157.557   -15798455.58749 -12299157.56247  20837156.727    20837161.154
       242.000         207.000
  21061044.313      179002.78949    141830.16847  21061043.443    21061049.927
       240.000         202.000
  23342464.130    -7905733.09349  -6152449.53245  23342463.269    23342469.328
       220.000         160.000
  20910192.612     1911838.15849   1494110.95447  20910192.165    20910197.920
       242.000         204.000
  22125481.191   -14441068.92249 -11243627.09146  22125480.009    22125485.935
       232.000         180.000
  23208330.793     -354887.32849   -267330.68446  23208330.037    23208337.047
       223.000         169.000
  21454542.295    -9653023.53349  -7314225.69347  21454541.730    21454547.843
       236.000         190.000
  25151829.222    -6121481.01649  -4596579.94645  25151828.302    25151836.515
       202.000         133.000
 03  6 25 16 35 30.0000000  0 10G23G21G18G17G16G 6G15G29G26G 2
  22524376.372   -13493420.02349 -10490654.70046  22524375.609    22524382.106
       228.000         172.000
  20626921.661    -5630982.14549  -4286394.43047  20626920.640    20626924.751
       244.000         209.000
  20829221.743   -15840158.65249 -12331653.44247  20829221.160    20829225.307
       242.000         207.000
  21064749.963      198475.75649    157003.88347  21064749.417    21064755.561
       241.000         202.000
  23343871.951    -7898335.18049  -6146684.99145  23343871.004    23343877.524
       220.000         160.000
  20921204.951     1969708.05549   1539204.31747  20921204.442    20921210.438
       241.000         204.000
  22113593.397   -14503539.20649 -11292305.21946  22113592.279    22113598.568
       231.000         180.000
  23218054.688     -303788.41349   -227513.37246  23218054.166    23218061.053
       225.000         169.000
  21456420.472    -9643153.73849  -7306534.94847  21456420.349    21456426.186
       237.000         190.000
  25146329.395    -6150382.31449  -4619100.46145  25146328.909    25146336.453
       208.000         133.000
 03  6 25 16 36  0.0000000  0 10G23G21G18G17G16G 6G15G29G26G 2
  22511050.201   -13563449.06049 -10545222.74746  22511048.395    22511055.933
       227.000         172.000
  20625403.634    -5638959.48649  -4292610.55547  20625402.761    20625406.753
       244.000         209.000
  20821365.174   -15881445.15049 -12363824.72547  20821364.409    20821368.643
       243.000         207.000
  21068490.710      218133.42849    172321.51747  21068489.778    21068495.986
       240.000         202.000
  23345378.105    -7890420.26249  -6140517.57145  23345377.432    23345382.600
       220.000         160.000
  20932304.604     2028036.98649   1584655.37347  20932304.167    20932309.947
       242.000         204.000
  22101725.059   -14565907.79849 -11340904.10646  22101723.735    22101729.787
       231.000         180.000
  23227870.478     -252206.25649   -187319.51646  23227870.120    23227876.614
       225.000         170.000
  21458425.389    -9632617.94349  -7298325.24847  21458425.361    21458431.001
       236.000         190.000
  25140908.538    -6178869.47249  -4641298.25745  25140906.233    25140915.903
       206.000         133.000
 03  6 25 16 36 30.0000000  0 10G23G21G18G17G16G 6G15G29G26G 2
  22497785.377   -13633155.67649 -10599539.54946  22497784.438    22497791.651
       228.000         173.000
  20623925.009    -5646729.80249  -4298665.35947  20623924.124    20623928.121
       244.000         209.000
  20813587.841   -15922315.28949 -12395671.57447  20813586.864    20813591.349
       242.000         208.000
  21072266.662      237976.05049    187783.27447  21072265.514    21072272.309
       241.000         201.000
  23346982.351    -7881989.63349  -6133948.30745  23346981.111    23346988.151
       219.000         160.000
  20943491.359     2086823.62649   1630463.11247  20943490.833    20943496.862
       242.000         204.000
  22089876.074   -14628174.44049 -11389423.54946  22089874.978    22089880.856
       231.000         179.000
  23237777.841     -200142.64449   -146750.50846  23237777.062    23237783.830
       224.000         169.000
  21460556.941    -9621416.43849  -7289596.81047  21460556.766    21460562.590
       236.000         190.000
  25135566.598    -6206942.31549  -4663173.22045  25135566.779    25135572.026
       205.000         135.000
 03  6 25 16 37  0.0000000  0 10G23G21G18G17G16G 6G15G29G26G 2
  22484581.916   -13702540.60049 -10653605.67546  22484580.799    22484587.538
       227.000         173.000
  20622485.624    -5654294.03749  -4304559.58547  20622484.821    20622488.559
       245.000         209.000
  20805889.530   -15962770.12949 -12427194.81447  20805888.643    20805893.105
       243.000         208.000
  21076077.624      258002.77449    203388.47847  21076076.686    21076082.882
       240.000         201.000
  23348684.419    -7873045.62549  -6126979.01745  23348684.352    23348689.920
       221.000         161.000
  20954764.749     2146065.58149   1676625.62647  20954764.349    20954770.104
       241.000         204.000
  22078046.263   -14690340.26649 -11437864.43446  22078045.107    22078051.519
       230.000         179.000
  23247776.188     -147600.50449   -105808.61246  23247775.410    23247782.681
       224.000         169.000
  21462814.974    -9609550.62749  -7280350.74447  21462814.653    21462820.838
       237.000         191.000
  25130303.015    -6234601.95949  -4684726.21745  25130301.284    25130311.247
       201.000         135.000
 03  6 25 16 37 30.0000000  0 10G23G21G18G17G16G 6G15G29G26G 2
  22471439.944   -13771601.94349 -10707419.66746  22471438.827    22471446.626
       227.000         174.000
  20621085.909    -5661649.69849  -4310291.28447  20621084.880    20621089.015
       244.000         210.000
  20798270.448   -16002808.52449 -12458393.54747  20798269.598    20798273.931
       243.000         208.000
  21079923.950      278215.20949    219138.39547  21079923.143    21079929.660
       241.000         201.000
  23350484.186    -7863588.23749  -6119609.66545  23350483.557    23350490.257
       220.000         161.000
  20966124.791     2205762.82249   1723142.91047  20966124.144    20966130.222
       242.000         204.000
  22066235.980   -14752403.56649 -11486225.43146  22066234.963    22066240.860
       231.000         180.000
  23257865.609      -94580.20649    -64494.12346  23257865.075    23257871.199
       221.000         168.000
  21465199.626    -9597019.49949  -7270586.24747  21465199.502    21465204.965
       236.000         191.000
  25125118.548    -6261846.70849  -4705955.92445  25125117.813    25125126.358
       207.000         136.000
 03  6 25 16 38  0.0000000  0 10G23G21G18G17G16G 6G15G29G26G 2
  22458359.617   -13840339.17449 -10760981.10546  22458358.402    22458365.372
       227.000         174.000
  20619725.939    -5668796.46049  -4315860.20547  20619724.901    20619729.051
       244.000         210.000
  20790730.649   -16042430.57149 -12489267.85447  20790729.637    20790734.106
       242.000         208.000
  21083805.778      298614.20749    235033.69147  21083805.006    21083811.447
       240.000         201.000
  23352381.320    -7853618.59249  -6111841.17745  23352379.804    23352386.583
       221.000         161.000
  20977571.291     2265914.13649   1770014.01247  20977570.850    20977576.620
       242.000         204.000
  22054445.269   -14814364.00249 -11534506.27446  22054443.856    22054450.326
       231.000         180.000
  23268045.621      -41083.58049    -22808.48246  23268045.487    23268051.906
       222.000         167.000
  21467710.794    -9583823.28749  -7260303.50647  21467710.203    21467716.330
       236.000         190.000
  25120013.161    -6288676.41249  -4726862.20245  25120012.617    25120019.803
       204.000         137.000
 03  6 25 16 38 30.0000000  0 10G23G21G18G17G16G 6G15G29G26G 2
  22445341.013   -13908751.95149 -10814289.72446  22445340.364    22445347.151
       228.000         174.000
  20618405.620    -5675734.69749  -4321266.63847  20618404.705    20618408.737
       244.000         210.000
  20783269.969   -16081636.49849 -12519817.91947  20783269.122    20783273.513
       242.000         208.000
  21087723.041      319199.00849    251073.76847  21087722.244    21087728.543
       240.000         201.000
  23354375.785    -7843137.89749  -6103674.46045  23354375.672    23354381.561
       220.000         160.000
  20989103.901     2326518.13549   1817237.86647  20989103.656    20989109.210
       241.000         204.000
  22042674.177   -14876221.34049 -11582706.79646  22042673.225    22042679.004
       231.000         181.000
  23278316.083       12887.57749     19246.92446  23278316.287    23278321.441
       223.000         167.000
  21470348.433    -9569962.30949  -7249502.76647  21470348.137    21470354.313
       236.000         190.000
  25114986.614    -6315090.88549  -4747444.92145  25114985.367    25114993.443
       207.000         136.000
 03  6 25 16 39  0.0000000  0 10G23G21G18G17G16G 6G15G29G26G 2
  22432384.304   -13976839.94349 -10867345.26646  22432383.664    22432390.664
       228.000         174.000
  20617125.147    -5682463.76249  -4326510.08147  20617124.352    20617128.368
       244.000         210.000
  20775888.407   -16120426.86549 -12550044.16547  20775887.602    20775891.840
       243.000         208.000
  21091675.682      339970.30349    267259.16947  21091674.647    21091681.097
       240.000         201.000
  23356467.164    -7832147.98749  -6095110.94845  23356465.945    23356473.612
       219.000         160.000
  21000722.403     2387573.33449   1864813.30047  21000722.143    21000727.808
       242.000         204.000
  22030922.868   -14937975.22749 -11630826.69846  22030921.990    22030927.984
       232.000         181.000
  23288676.506       67331.17349     61670.49346  23288675.705    23288681.475
       223.000         167.000
  21473112.455    -9555437.16649  -7238184.49347  21473111.984    21473118.033
       236.000         190.000
  25110039.364    -6341090.16849  -4767704.14045  25110038.252    25110045.789
       206.000         137.000
 03  6 25 16 39 30.0000000  0 10G23G21G18G17G16G 6G15G29G26G 2
  22419489.545   -14044602.14049 -10920146.95146  22419488.781    22419494.786
       228.000         174.000
  20615884.665    -5688982.71349  -4331589.80147  20615883.871    20615887.832
       244.000         210.000
  20768586.014   -16158801.19549 -12579946.22647  20768585.228    20768589.297
       243.000         208.000
  21095663.888      360928.43449    283590.15747  21095663.086    21095669.242
       240.000         201.000
  23358655.211    -7820649.40649  -6086151.07445  23358654.640    23358660.783
       219.000         159.000
  21012426.549     2449078.84649   1912739.62747  21012426.100    21012432.036
       242.000         203.000
  22019191.251   -14999625.22449 -11678865.64046  22019190.302    22019196.734
       232.000         182.000
  23299126.584      122245.89649    104461.14446  23299125.991    23299132.893
       221.000         166.000
  21476002.874    -9540248.07349  -7226348.85747  21476002.583    21476008.697
       236.000         190.000
  25105171.072    -6366673.78149  -4787639.45545  25105170.432    25105178.178
       205.000         137.000
 03  6 25 16 40  0.0000000  0 10G23G21G18G17G16G 6G15G29G26G 2
  22406657.101   -14112037.28049 -10972693.78846  22406656.315    22406663.457
       227.000         174.000
  20614684.315    -5695290.89149  -4336505.28647  20614683.442    20614687.414
       244.000         210.000
  20761362.947   -16196758.76849 -12609523.54547  20761361.998    20761366.316
       243.000         209.000
  21099687.903      382074.58249    300067.65247  21099686.811    21099693.424
       239.000         201.000
  23360940.061    -7808642.99049  -6076795.48345  23360939.688    23360946.229
       220.000         159.000
  21024216.290     2511034.13949   1961016.42547  21024215.918    21024221.735
       241.000         203.000
  22007479.604   -15061170.24949 -11726822.78946  22007478.280    22007485.105
       232.000         182.000
  23309665.991      177630.53949    147617.97646  23309665.285    23309671.920
       222.000         166.000
  21479019.703    -9524394.35349  -7213995.34147  21479019.304    21479025.384
       236.000         190.000
  25100382.050    -6391840.86349  -4807250.20745  25100381.158    25100389.334
       206.000         137.000
 03  6 25 16 40 30.0000000  0 10G23G21G18G17G16G 6G15G29G26G 2
  22393886.500   -14179146.73449 -11024986.82746  22393885.246    22393893.479
       227.000         175.000
  20613523.843    -5701389.13849  -4341257.18647  20613522.795    20613527.034
       244.000         210.000
  20754218.819   -16234301.41749 -12638777.54347  20754217.884    20754222.047
       243.000         209.000
  21103747.464      403407.75749    316690.88747  21103746.720    21103752.777
       239.000         200.000
  23363320.967    -7796131.56449  -6067046.37345  23363320.220    23363327.102
       221.000         159.000
  21036091.102     2573436.23349   2009641.39047  21036090.578    21036096.487
       242.000         203.000
  21995787.695   -15122611.64349 -11774699.19246  21995786.284    21995793.045
       233.000         182.000
  23320294.157      233481.64949    191138.28146  23320293.407    23320299.635
       223.000         165.000
  21482162.584    -9507878.38149  -7201125.77747  21482162.328    21482168.331
       236.000         190.000
  25095671.899    -6416592.90249  -4826537.53345  25095670.309    25095678.937
       204.000         137.000
 03  6 25 16 41  0.0000000  0 10G23G21G18G17G16G 6G15G29G26G 2
  22381178.391   -14245928.24549 -11077024.33446  22381177.883    22381184.734
       229.000         175.000
  20612403.715    -5707275.39249  -4345843.89047  20612402.681    20612406.861
       245.000         210.000
  20747153.935   -16271427.51549 -12667706.95547  20747153.035    20747157.606
       242.000         209.000
  21107842.997      424929.77349    333461.27447  21107842.275    21107848.422
       239.000         200.000
  23365798.104    -7783114.70249  -6056903.42345  23365797.585    23365803.419
       220.000         159.000
  21048050.955     2636285.36749   2058614.70247  21048050.468    21048056.195
       241.000         203.000
  21984115.960   -15183947.27149 -11822493.17146  21984114.524    21984121.540
       233.000         183.000
  23331011.056      289799.29349    235022.12646  23331010.058    23331017.536
       222.000         165.000
  21485431.739    -9490698.83249  -7187739.14447  21485431.565    21485437.562
       236.000         190.000
  25091040.861    -6440928.13849  -4845500.09245  25091038.006    25091047.339
       204.000         135.000
 03  6 25 16 41 30.0000000  0 10G23G21G18G17G16G 6G15G29G26G 2
  22368532.828   -14312380.85249 -11128805.54446  22368531.828    22368538.656
       229.000         175.000
  20611324.208    -5712948.29549  -4350264.35647  20611323.248    20611327.670
       245.000         210.000
  20740168.387   -16308136.80649 -12696311.58447  20740167.511    20740171.902
       242.000         209.000
  21111974.656      446641.50649    350379.48747  21111973.475    21111980.031
       240.000         200.000
  23368371.227    -7769593.08349  -6046367.14245  23368370.704    23368376.958
       221.000         159.000
  21060095.706     2699580.83249   2107935.79747  21060095.169    21060101.069
       241.000         202.000
  21972464.474   -15245176.15849 -11870203.98246  21972463.720    21972469.699
       232.000         183.000
  23341816.350      346581.85649    279268.23046  23341815.957    23341821.831
       222.000         164.000
  21488827.264    -9472855.51549  -7173835.28347  21488827.075    21488833.102
       237.000         190.000
  25086489.437    -6464845.80249  -4864137.27145  25086486.527    25086496.615
       201.000         132.000
 03  6 25 16 42  0.0000000  0 10G23G21G18G17G16G 6G15G29G26G 2
  22355949.830   -14378504.95949 -11180330.76846  22355948.759    22355955.038
       229.000         176.000
  20610285.226    -5718408.34349  -4354518.96047  20610284.287    20610288.430
       244.000         210.000
  20733261.933   -16344430.36849 -12724592.26547  20733261.012    20733265.356
       243.000         209.000
  21116142.306      468542.56549    367445.22847  21116141.370    21116147.792
       240.000         200.000
  23371039.970    -7755569.04049  -6035439.38445  23371039.906    23371044.793
       221.000         160.000
  21072224.983     2763320.36049   2157602.91547  21072224.353    21072230.279
       241.000         202.000
  21960833.114   -15306298.94749 -11917832.11546  21960832.192    21960838.835
       232.000         183.000
  23352709.761      403826.85849    323874.68746  23352709.216    23352715.857
       221.000         164.000
  21492348.822    -9454349.89349  -7159415.34247  21492348.287    21492354.524
       237.000         190.000
  25082017.485    -6488346.60349  -4882449.59744  25082015.692    25082023.263
       202.000         131.000
 03  6 25 16 42 30.0000000  0 10G23G21G18G17G16G 6G15G29G26G 2
  22343429.337   -14444300.57949 -11231600.04246  22343428.047    22343435.797
       227.000         176.000
  20609286.689    -5723655.93049  -4358608.01447  20609285.858    20609289.754
       245.000         210.000
  20726434.489   -16380308.84349 -12752549.50847  20726433.629    20726437.931
       242.000         209.000
  21120345.988      490632.97749    384658.51047  21120344.999    21120351.421
       240.000         200.000
  23373803.990    -7741044.55549  -6024121.65645  23373803.932    23373810.084
       221.000         160.000
  21084438.426     2827502.15149   2207614.64547  21084437.987    21084443.872
       241.000         202.000
  21949222.056   -15367315.71149 -11965377.64346  21949220.871    21949227.639
       232.000         184.000
  23363690.666      461531.93949    368839.63646  23363688.845    23363697.291
       221.000         163.000
  21495996.193    -9435182.96549  -7144480.09847  21495995.682    21496002.176
       236.000         190.000
  25077624.634    -6511431.06649  -4900437.55644  25077623.852    25077631.269
       203.000         131.000
 03  6 25 16 43  0.0000000  0 10G23G21G18G17G16G 6G15G29G26G 2
  22330971.481   -14509766.83149 -11282612.64646  22330970.411    22330977.104
       228.000         176.000
  20608328.825    -5728689.72749  -4362530.46847  20608327.961    20608331.847
       245.000         210.000
  20719686.052   -16415772.01149 -12780183.12947  20719685.150    20719689.648
       243.000         209.000
  21124585.926      512913.85049    402020.20947  21124584.784    21124591.342
       239.000         200.000
  23376663.061    -7726020.34349  -6012414.53845  23376663.263    23376667.885
       221.000         160.000
  21096735.848     2892125.26549   2257970.25947  21096735.384    21096741.395
       241.000         201.000
  21937631.295   -15428225.54049 -12012839.83746  21937630.444    21937636.765
       233.000         184.000
  23374758.903      519695.73849    414162.03746  23374758.172    23374764.829
       221.000         163.000
  21499769.393    -9415354.91149  -7129029.68447  21499769.319    21499775.126
       237.000         189.000
  25073311.264    -6534098.65549  -4918100.65644  25073309.389    25073319.025
       200.000         131.000
 03  6 25 16 43 30.0000000  0 10G23G21G18G17G16G 6G15G29G26G 2
  22318576.459   -14574902.75649 -11333367.84846  22318575.372    22318582.943
       228.000         176.000
  20607411.766    -5733508.97149  -4366285.74847  20607410.926    20607414.905
       245.000         210.000
  20713016.773   -16450819.34149 -12807492.72547  20713015.877    20713020.254
       242.000         209.000
  21128862.151      535385.64049    419530.67147  21128861.024    21128867.245
       240.000         200.000
  23379617.050    -7710497.29249  -6000318.70745  23379615.529    23379623.368
       219.000         160.000
  21109117.063     2957188.84549   2308669.10147  21109116.633    21109122.700
       241.000         201.000
  21926061.075   -15489027.21049 -12060217.75746  21926059.955    21926066.423
       233.000         184.000
  23385914.244      578316.81649    459840.75446  23385913.509    23385919.933
       221.000         163.000
  21503668.360    -9394865.64449  -7113064.04447  21503667.940    21503673.920
       236.000         189.000
  25069077.163    -6556348.73249  -4935438.37944  25069074.551    25069084.922
       200.000         131.000
 03  6 25 16 44  0.0000000  0 10G23G21G18G17G16G 6G15G29G26G 2
  22306244.310   -14639708.62949 -11383865.88946  22306243.739    22306250.358
       230.000         177.000
  20606535.517    -5738113.71349  -4369873.88547  20606534.633    20606538.709
       245.000         210.000
  20706426.438   -16485451.61649 -12834478.90447  20706425.480    20706429.861
       242.000         209.000
  21133174.694      558048.13249    437189.72547  21133173.838    21133180.051
       239.000         199.000
  23382665.501    -7694477.63949  -5987835.94445  23382664.568    23382671.224
       219.000         160.000
  21121581.722     3022690.97749   2359709.67747  21121581.134    21121587.353
       240.000         201.000
  21914511.379   -15549721.18549 -12107511.76446  21914510.270    21914516.666
       233.000         184.000
  23397155.973      637392.57849    505873.78146  23397156.146    23397162.230
       221.000         163.000
  21507692.981    -9373716.34849  -7096584.09947  21507692.714    21507698.715
       236.000         189.000
  25064922.197    -6578182.00149  -4952451.33444  25064921.556    25064928.050
       205.000         131.000
 03  6 25 16 44 30.0000000  0 10G23G21G18G17G16G 6G15G29G26G 2
  22293975.176   -14704183.27449 -11434105.82046  22293974.403    22293981.337
       230.000         177.000
  20605700.416    -5742502.61049  -4373293.83047  20605699.591    20605703.421
       245.000         210.000
  20699915.164   -16519668.59949 -12861141.47247  20699914.318    20699918.615
       243.000         209.000
  21137523.820      580902.69849    454998.45647  21137522.987    21137529.289
       239.000         199.000
  23385808.371    -7677961.79249  -5974966.52745  23385807.682    23385813.300
       220.000         159.000
  21134129.638     3088630.85549   2411091.35247  21134128.887    21134135.226
       240.000         201.000
  21902982.478   -15610306.26749 -12154720.90946  21902981.841    21902987.679
       233.000         184.000
  23408484.009      696922.05449    552260.33845  23408483.954    23408489.802
       221.000         162.000
  21511843.155    -9351907.06149  -7079589.86747  21511842.741    21511848.834
       236.000         189.000
  25060847.307    -6599597.73549  -4969138.94345  25060844.348    25060855.678
       202.000         132.000
 03  6 25 16 45  0.0000000  0 10G23G21G18G17G16G 6G15G29G26G 2
  22281769.305   -14768325.51749 -11484086.73546  22281768.832    22281775.053
       230.000         177.000
  20604906.620    -5746674.05749  -4376544.33247  20604905.801    20604909.662
       245.000         210.000
  20693483.047   -16553469.44549 -12887479.78047  20693482.240    20693486.365
       242.000         209.000
  21141909.644      603950.37849    472957.66247  21141908.771    21141915.139
       240.000         200.000
  23389045.543    -7660950.61149  -5961711.10545  23389044.781    23389051.028
       219.000         158.000
  21146760.814     3155008.05249   2462813.78347  21146760.312    21146766.434
       240.000         200.000
  21891474.502   -15670781.14649 -12201844.19046  21891473.828    21891479.864
       233.000         184.000
  23419898.162      756904.07449    598999.52445  23419897.862    23419904.708
       221.000         162.000
  21516118.919    -9329437.59949  -7062081.22347  21516118.951    21516124.600
       236.000         189.000
  25056851.538    -6620594.97449  -4985500.46645  25056848.625    25056859.754
       201.000         132.000
 03  6 25 16 45 30.0000000  0 10G23G21G18G17G16G 6G15G29G26G 2
  22269626.454   -14832136.44749 -11533809.47746  22269624.660    22269632.183
       230.000         177.000
  20604153.964    -5750629.26749  -4379626.33247  20604153.142    20604157.297
       245.000         210.000
  20687129.802   -16586855.92849 -12913495.21347  20687128.979    20687133.275
       243.000         209.000
  21146332.037      627190.17049    491066.56647  21146331.010    21146337.808
       239.000         199.000
  23392376.446    -7643447.06349  -5948072.03145  23392376.075    23392381.223
       219.000         158.000
  21159474.696     3221819.52449   2514874.61947  21159474.181    21159480.187
       240.000         200.000
  21879987.264   -15731146.77949 -12248882.33546  21879986.201    21879992.413
       233.000         184.000
  23431397.890      817335.26049    646088.71745  23431397.271    23431404.417
       221.000         162.000
  21520519.988    -9306310.01149  -7044059.74847  21520519.814    21520525.648
       236.000         189.000
  25052935.038    -6641175.11149  -5001536.96044  25052932.945    25052941.987
       201.000         131.000
 03  6 25 16 46  0.0000000  0 10G23G21G18G17G16G 6G15G29G26G 2
  22257546.673   -14895616.00249 -11583274.00846  22257546.471    22257552.492
       231.000         177.000
  20603442.500    -5754368.11149  -4382539.74047  20603441.734    20603445.710
       245.000         210.000
  20680855.275   -16619828.61349 -12939188.20847  20680854.412    20680858.726
       243.000         209.000
  21150791.027      650622.16449    509325.22747  21150790.183    21150796.527
       239.000         199.000
  23395800.665    -7625452.78049  -5934050.57545  23395799.705    23395806.244
       218.000         157.000
  21172270.800     3289063.43249   2567272.41547  21172270.402    21172276.545
       240.000         200.000
  21868520.909   -15791402.93749 -12295835.17846  21868519.979    21868526.265
       233.000         184.000
  23442982.658      878213.34749    693526.14746  23442982.391    23442988.587
       219.000         163.000
  21525046.038    -9282525.47349  -7025526.36547  21525045.721    21525052.010
       236.000         189.000
  25049098.149    -6661338.71649  -5017248.89044  25049095.782    25049103.601
       202.000         131.000
 03  6 25 16 46 30.0000000  0 10G23G21G18G17G16G 6G15G29G26G 2
  22245530.092   -14958763.32349 -11632479.64746  22245528.991    22245535.838
       230.000         178.000
  20602772.405    -5757889.58649  -4385283.76647  20602771.758    20602775.422
       245.000         210.000
  20674659.496   -16652387.47749 -12964558.74447  20674658.602    20674663.011
       242.000         209.000
  21155286.762      674247.23749    527734.34647  21155285.810    21155292.252
       239.000         199.000
  23399318.086    -7606968.98249  -5919647.67845  23399318.279    23399324.539
       220.000         157.000
  21185149.043     3356738.87249   2620006.47147  21185148.677    21185154.805
       240.000         200.000
  21857075.535   -15851548.83749 -12342702.10346  21857074.592    21857080.805
       233.000         185.000
  23454652.178      939536.82849    741310.64045  23454651.902    23454659.207
       219.000         162.000
  21529697.106    -9258084.36549  -7006481.36647  21529697.151    21529702.731
       236.000         189.000
  25045340.690    -6681085.23749  -5032635.83645  25045338.723    25045348.227
       202.000         133.000
 03  6 25 16 47  0.0000000  0 10G23G21G18G17G16G 6G15G29G26G 2
  22233577.265   -15021575.80749 -11681424.38846  22233576.745    22233583.603
       230.000         178.000
  20602144.252    -5761190.89649  -4387856.24047  20602143.483    20602147.288
       245.000         210.000
  20668542.876   -16684530.56549 -12989605.29647  20668542.146    20668546.344
       243.000         209.000
  21159819.707      698067.97349    546295.92447  21159818.762    21159824.932
       240.000         199.000
  23402928.841    -7587994.76349  -5904862.63945  23402928.260    23402933.913
       220.000         157.000
  21198109.605     3424846.74449   2673077.47947  21198109.064    21198115.077
       240.000         200.000
  21845651.607   -15911581.69049 -12389480.93746  21845651.120    21845657.090
       233.000         185.000
  23466406.516     1001306.03649    789442.43546  23466406.405    23466412.683
       221.000         163.000
  21534473.419    -9232984.99349  -6986923.43947  21534473.114    21534479.276
       237.000         189.000
  25041662.976    -6700412.40849  -5047696.00044  25041662.338    25041670.380
       201.000         131.000
 03  6 25 16 47 30.0000000  0 10G23G21G18G17G16G 6G15G29G26G 2
  22221687.681   -15084055.53049 -11730109.81746  22221686.557    22221693.659
       230.000         178.000
  20601557.488    -5764274.51549  -4390259.08147  20601556.549    20601560.802
       244.000         210.000
  20662504.830   -16716260.54749 -13014329.94647  20662504.116    20662508.604
       242.000         210.000
  21164389.547      722082.51549    565008.53147  21164388.649    21164395.153
       239.000         199.000
  23406632.061    -7568534.40149  -5889698.79345  23406631.356    23406637.910
       219.000         158.000
  21211151.607     3493382.94549   2726482.26347  21211151.146    21211157.437
       240.000         199.000
  21834248.876   -15971503.47449 -12436173.22146  21834247.975    21834254.479
       235.000         186.000
  23478244.893     1063516.35649    837917.96946  23478244.729    23478251.521
       222.000         163.000
  21539374.318    -9207230.75549  -6966855.22847  21539374.241    21539379.870
       236.000         189.000
  25038064.551    -6719322.94349  -5062431.50544  25038063.809    25038071.408
       199.000         131.000
 03  6 25 16 48  0.0000000  0 10G23G21G18G17G16G 6G15G29G26G 2
  22209861.526   -15146202.15949 -11778535.70946  22209860.374    22209867.498
       230.000         178.000
  20601012.379    -5767139.10749  -4392491.24847  20601011.497    20601015.566
       244.000         210.000
  20656545.448   -16747577.41549 -13038732.69547  20656544.692    20656548.930
       242.000         210.000
  21168996.445      746291.61049    583872.73247  21168995.589    21169002.071
       239.000         199.000
  23410427.516    -7548589.16549  -5874157.10145  23410426.489    23410432.523
       218.000         158.000
  21224274.936     3562346.08849   2780219.71947  21224274.590    21224280.480
       239.000         199.000
  21822867.454   -16031313.62449 -12482778.53046  21822866.474    21822872.767
       234.000         186.000
  23490166.850     1126166.12549    886735.92546  23490166.666    23490172.608
       221.000         163.000
  21544399.686    -9180822.35649  -6946277.28547  21544399.363    21544404.914
       236.000         189.000
  25034545.365    -6737816.77949  -5076842.34544  25034546.554    25034553.415
       204.000         130.000
 03  6 25 16 48 30.0000000  0 10G23G21G18G17G16G 6G15G29G26G 2
  22198098.848   -15208015.00249 -11826701.50246  22198098.286    22198104.518
       230.000         178.000
  20600509.146    -5769783.46349  -4394551.80147  20600508.325    20600512.451
       245.000         210.000
  20650664.642   -16778481.37249 -13062813.68647  20650663.753    20650668.021
       242.000         210.000
  21173640.457      770695.84949    602889.00147  21173639.674    21173646.083
       239.000         199.000
  23414315.107    -7528160.16049  -5858238.45245  23414313.658    23414321.267
       219.000         158.000
  21237479.186     3631734.81949   2834288.80747  21237479.069    21237484.871
       240.000         199.000
  21811507.384   -16091011.15549 -12529296.07846  21811506.468    21811512.206
       235.000         186.000
  23502172.072     1189253.58349    935894.95046  23502171.315    23502177.779
       219.000         163.000
  21549549.414    -9153760.50249  -6925190.14647  21549549.287    21549555.252
       237.000         189.000
  25031105.608    -6755893.54149  -5090928.20944  25031106.046    25031110.843
       201.000         130.000
 03  6 25 16 49  0.0000000  0 10G23G21G18G17G16G 6G15G29G26G 2
  22186399.854   -15269493.51649 -11874606.78046  22186399.185    22186404.881
       231.000         179.000
  20600047.883    -5772207.55049  -4396440.70547  20600046.974    20600051.156
       245.000         210.000
  20644862.402   -16808972.38649 -13086572.90147  20644861.660    20644865.683
       242.000         210.000
  21178321.676      795295.64049    622057.65147  21178320.424    21178327.371
       239.000         199.000
  23418294.484    -7507249.28449  -5841944.30545  23418293.823    23418299.888
       220.000         158.000
  21250764.281     3701547.98349   2888688.63647  21250763.832    21250769.975
       239.000         198.000
  21800168.869   -16150595.46449 -12575725.39246  21800168.258    21800173.786
       234.000         185.000
  23514260.188     1252776.98149    985393.65146  23514259.307    23514267.095
       221.000         163.000
  21554823.393    -9126045.61149  -6903594.13547  21554823.057    21554829.185
       236.000         189.000
  25027744.995    -6773553.15949  -5104688.95644  25027741.805    25027751.804
       201.000         131.000
 03  6 25 16 49 30.0000000  0 10G23G21G18G17G16G 6G15G29G26G 2
  22174764.563   -15330637.12049 -11922251.09946  22174763.431    22174770.412
       231.000         179.000
  20599628.788    -5774409.93449  -4398156.87547  20599628.044    20599631.852
       245.000         210.000
  20639138.742   -16839050.36549 -13110010.28447  20639137.752    20639142.325
       243.000         210.000
  21183040.356      820092.30649    641379.68647  21183039.307    21183045.896
       239.000         199.000
  23422365.156    -7485857.60149  -5825275.53345  23422363.775    23422371.701
       219.000         158.000
  21264129.845     3771784.35149   2943418.21447  21264129.360    21264135.601
       239.000         198.000
  21788852.035   -16210065.53649 -12622065.70846  21788850.523    21788857.498
       234.000         185.000
  23526430.851     1316734.58349   1035230.69946  23526431.151    23526436.703
       219.000         163.000
  21560221.501    -9097678.42849  -6881489.86747  21560220.730    21560227.128
       236.000         188.000
  25024464.002    -6790795.48049  -5118124.57644  25024463.125    25024469.585
       196.000         130.000
 03  6 25 16 50  0.0000000  0 10G23G21G18G17G16G 6G15G29G26G 2
  22163193.182   -15391445.05049 -11969633.84446  22163192.371    22163199.116
       232.000         179.000
  20599252.063    -5776389.76949  -4399699.61447  20599251.325    20599255.181
       245.000         210.000
  20633493.674   -16868715.30549 -13133125.80947  20633492.870    20633497.040
       243.000         210.000
  21187796.553      845086.38449    660855.56547  21187795.364    21187802.349
       238.000         198.000
  23426527.224    -7463985.98849  -5808232.77145  23426526.033    23426533.149
       220.000         158.000
  21277575.785     3842442.92849   2998476.80147  21277575.471    21277581.423
       239.000         198.000
  21777557.210   -16269420.50049 -12668316.32146  21777556.441    21777562.641
       236.000         186.000
  23538683.857     1381124.78749   1085404.83146  23538683.459    23538689.462
       220.000         163.000
  21565743.655    -9068659.36649  -6858877.63047  21565743.027    21565749.629
       236.000         188.000
  25021262.253    -6807620.18849  -5131234.79044  25021261.071    25021267.857
       196.000         128.000
 03  6 25 16 50 30.0000000  0 10G23G21G18G17G16G 6G15G29G26G 2
  22151685.624   -15451917.82549 -12016755.43646  22151685.048    22151690.995
       231.000         180.000
  20598917.737    -5778146.92149  -4401068.83747  20598916.967    20598920.830
       245.000         210.000
  20627927.033   -16897968.08849 -13155920.17647  20627926.354    20627930.641
       242.000         210.000
  21192590.185      870277.12949    680484.68347  21192589.106    21192596.000
       238.000         198.000
  23430780.094    -7441637.10149  -5790818.14445  23430780.148    23430786.012
       218.000         158.000
  21291101.608     3913521.23949   3053862.43747  21291101.207    21291107.376
       239.000         197.000
  21766284.264   -16328660.39249 -12714477.27146  21766282.866    21766289.550
       235.000         186.000
  23551018.675     1445944.93649   1135913.99846  23551017.880    23551024.761
       219.000         163.000
  21571389.450    -9038990.21749  -6835758.84147  21571389.378    21571395.499
       235.000         188.000
  25018139.556    -6824028.10649  -5144020.21544  25018139.213    25018148.065
       196.000         127.000
 03  6 25 16 51  0.0000000  0 10G23G21G18G17G16G 6G15G29G26G 2
  22140242.115   -15512053.67149 -12063614.48446  22140241.070    22140247.558
       231.000         180.000
  20598626.136    -5779679.59349  -4402263.13647  20598625.358    20598629.399
       244.000         210.000
  20622439.003   -16926807.87849 -13178392.73647  20622438.233    20622442.639
       242.000         210.000
  21197421.835      895667.42349    700269.28847  21197420.831    21197427.351
       238.000         198.000
  23435123.742    -7418811.24749  -5773031.83545  23435123.572    23435129.282
       219.000         159.000
  21304707.254     3985019.23349   3109575.10447  21304706.658    21304712.836
       238.000         197.000
  21755033.535   -16387783.31149 -12760547.06646  21755032.135    21755038.569
       236.000         187.000
  23563435.155     1511194.29049   1186757.59945  23563435.373    23563441.716
       218.000         162.000
  21577159.144    -9008670.50249  -6812133.12046  21577158.914    21577165.056
       235.000         187.000
  25015096.912    -6840018.02849  -5156479.94544  25015095.360    25015103.193
       200.000         127.000
 03  6 25 16 51 30.0000000  0 10G23G21G18G17G16G 6G15G29G26G 2
  22128862.324   -15571854.36949 -12110212.37246  22128861.188    22128867.806
       231.000         180.000
  20598376.884    -5780989.37349  -4403283.75147  20598375.871    20598380.185
       245.000         210.000
  20617029.075   -16955237.25349 -13200545.47947  20617028.238    20617032.827
       243.000         211.000
  21202291.081      921255.37749    720207.91947  21202290.240    21202296.629
       239.000         198.000
  23439557.407    -7395512.18549  -5754876.77845  23439556.663    23439563.606
       220.000         159.000
  21318392.005     4056933.01549   3165611.77047  21318391.345    21318397.850
       238.000         197.000
  21743804.752   -16446790.80049 -12806526.92246  21743803.918    21743809.808
       235.000         187.000
  23575932.459     1576868.71249   1237932.42745  23575932.252    23575939.531
       219.000         162.000
  21583052.005    -8977703.42449  -6788002.94846  21583051.664    21583057.840
       236.000         187.000
  25012133.569    -6855592.16149  -5168615.66844  25012132.181    25012143.079
       199.000         129.000
 03  6 25 16 52  0.0000000  0 10G23G21G18G17G16G 6G15G29G26G 2
  22117546.696   -15631318.60249 -12156548.08046  22117545.732    22117552.544
       231.000         181.000
  20598170.317    -5782074.85349  -4404129.58747  20598169.314    20598173.509
       245.000         210.000
  20611697.445   -16983255.30449 -13222377.71647  20611696.699    20611700.936
       243.000         211.000
  21207198.289      947042.55049    740301.78747  21207197.303    21207203.827
       238.000         197.000
  23444081.132    -7371740.35149  -5736353.32345  23444080.201    23444086.333
       218.000         159.000
  21332155.866     4129262.22649   3221972.14047  21332155.326    21332161.559
       238.000         196.000
  21732598.273   -16505681.14749 -12852415.49746  21732597.226    21732603.698
       236.000         187.000
  23588510.696     1642967.52049   1289437.93345  23588510.284    23588517.245
       219.000         162.000
  21589068.061    -8946088.77149  -6763368.18146  21589067.689    21589074.222
       236.000         187.000
  25009249.148    -6870749.66449  -5180426.75944  25009247.069    25009255.659
       197.000         130.000
 03  6 25 16 52 30.0000000  0 10G23G21G18G17G16G 6G15G29G26G 2
  22106294.932   -15690447.13349 -12202622.21446  22106294.041    22106300.815
       232.000         181.000
  20598006.469    -5782935.94849  -4404800.58647  20598005.537    20598009.808
       245.000         210.000
  20606443.837   -17010863.20449 -13243890.35847  20606443.046    20606447.344
       243.000         211.000
  21212143.250      973028.52549    760550.56347  21212142.170    21212149.240
       238.000         197.000
  23448694.214    -7347498.33349  -5717463.49645  23448694.307    23448699.531
       219.000         159.000
  21345998.216     4202004.24249   3278654.18147  21345997.913    21346003.800
       238.000         196.000
  21721414.011   -16564454.65749 -12898213.03847  21721412.959    21721419.483
       237.000         188.000
  23601169.199     1709487.51649   1341271.64045  23601168.751    23601175.695
       218.000         162.000
  21595206.994    -8913828.52249  -6738230.35346  21595206.450    21595212.774
       236.000         187.000
  25006443.793    -6885491.87449  -5191914.25344  25006443.050    25006452.011
       200.000         129.000
 03  6 25 16 53  0.0000000  0 10G23G21G18G17G16G 6G15G29G26G 2
  22095107.204   -15749238.60349 -12248433.71346  22095105.637    22095112.655
       232.000         181.000
  20597885.724    -5783570.73749  -4405295.24547  20597884.871    20597888.985
       245.000         210.000
  20601268.391   -17038060.34549 -13265082.92247  20601267.549    20601271.937
       243.000         211.000
  21217126.317      999214.73749    780955.37447  21217125.350    21217132.328
       238.000         197.000
  23453396.782    -7322786.83749  -5698207.86245  23453395.712    23453402.177
       218.000         159.000
  21359919.073     4275158.62849   3335657.55547  21359918.626    21359924.622
       238.000         196.000
  21710252.354   -16623109.70249 -12943918.26947  21710251.236    21710257.760
       236.000         188.000
  23613907.622     1776427.68649   1393432.75445  23613907.202    23613914.446
       220.000         161.000
  21601468.818    -8880922.80649  -6712589.56347  21601468.485    21601474.714
       237.000         188.000
  25003717.786    -6899817.72649  -5203077.32144  25003718.536    25003725.610
       196.000         128.000
 03  6 25 16 53 30.0000000  0 10G23G21G18G17G16G 6G15G29G26G 2
  22083983.535   -15807693.62449 -12293983.02646  22083982.557    22083989.047
       232.000         181.000
  20597807.873    -5783979.95949  -4405614.13547  20597806.985    20597811.109
       245.000         210.000
  20596170.855   -17064848.16549 -13285956.54147  20596170.148    20596174.282
       243.000         211.000
  21222147.397     1025600.66749    801515.80147  21222146.574    21222153.015
       238.000         197.000
  23458188.019    -7297608.84449  -5678588.70245  23458187.175    23458194.118
       218.000         159.000
  21373917.889     4348722.71149   3392980.16347  21373917.345    21373923.763
       237.000         195.000
  21699113.151   -16681646.53049 -12989531.37947  21699112.027    21699118.571
       236.000         188.000
  23626725.449     1843784.95049   1445918.86745  23626725.099    23626731.918
       218.000         161.000
  21607853.062    -8847373.77049  -6686447.48247  21607852.985    21607858.766
       236.000         188.000
  25001070.668    -6913728.51848  -5213916.93844  25001067.921    25001079.382
       194.000         129.000
 03  6 25 16 54  0.0000000  0 10G23G21G18G17G16G 6G15G29G26G 2
  22072924.134   -15865810.91049 -12339269.17646  22072923.033    22072929.218
       232.000         181.000
  20597773.358    -5784161.55549  -4405755.65147  20597772.659    20597776.579
       245.000         210.000
  20591151.362   -17091225.99849 -13306510.68247  20591150.543    20591154.781
       243.000         211.000
  21227206.920     1052188.26349    822233.38147  21227206.201    21227212.418
       238.000         197.000
  23463067.927    -7271964.85749  -5658606.44545  23463068.336    23463073.388
       219.000         159.000
  21387994.580     4422695.86449   3450621.54047  21387993.890    21387999.893
       238.000         195.000
  21687996.811   -16740063.58849 -13035051.15647  21687995.813    21688002.245
       237.000         189.000
  23639622.378     1911558.40449   1498729.27045  23639621.720    23639628.849
       217.000         161.000
  21614359.647    -8813181.59549  -6659804.24647  21614359.920    21614365.628
       236.000         188.000
  24998502.644    -6927223.29749  -5224432.40344  24998502.147    24998510.517
       197.000         129.000
 03  6 25 16 54 30.0000000  0 10G23G21G18G17G16G 6G15G29G26G 2
  22061928.978   -15923590.69749 -12384292.34446  22061928.085    22061934.332
       232.000         181.000
  20597782.085    -5784115.65349  -4405719.90047  20597781.203    20597785.371
       245.000         211.000
  20586209.680   -17117194.76449 -13326746.08347  20586208.974    20586213.221
       243.000         211.000
  21232304.876     1078977.86949    843108.36047  21232304.172    21232310.530
       238.000         197.000
  23468036.159    -7245857.03849  -5638262.75845  23468035.387    23468042.369
       217.000         157.000
  21402148.705     4497076.09149   3508580.10347  21402148.201    21402154.564
       237.000         195.000
  21676903.203   -16798360.61049 -13080477.40747  21676902.203    21676908.507
       237.000         189.000
  23652597.971     1979745.23849   1551861.80245  23652597.787    23652604.525
       218.000         161.000
  21620988.336    -8778347.66649  -6632660.95146  21620988.061    21620994.008
       236.000         187.000
  24996013.698    -6940302.80849  -5234624.27644  24996012.431    24996021.578
       201.000         130.000
 03  6 25 16 55  0.0000000  0 10G23G21G18G17G16G 6G15G29G26G 2
  22050998.011   -15981033.16849 -12429052.66546  22050996.783    22051003.877
       232.000         181.000
  20597834.199    -5783841.66649  -4405506.41847  20597833.397    20597837.493
       245.000         211.000
  20581345.726   -17142755.07749 -13346663.19947  20581344.961    20581349.155
       243.000         211.000
  21237441.115     1105968.70749    864140.15447  21237440.036    21237446.930
       238.000         197.000
  23473092.188    -7219287.63449  -5617559.39945  23473091.867    23473096.984
       218.000         157.000
  21416379.918     4571861.31749   3566854.24847  21416379.709    21416385.846
       237.000         194.000
  21665832.612   -16856537.21049 -13125809.80447  21665831.677    21665837.619
       237.000         189.000
  23665651.693     2048343.12949   1605314.63145  23665651.530    23665659.050
       218.000         160.000
  21627738.830    -8742873.47449  -6605018.74446  21627738.638    21627744.545
       235.000         187.000
  24993603.844    -6952967.59849  -5244492.96844  24993602.159    24993611.924
       198.000         130.000
 03  6 25 16 55 30.0000000  0 10G23G21G18G17G16G 6G15G29G26G 2
  22040131.091   -16038139.09049 -12473550.75246  22040129.786    22040136.489
       233.000         182.000
  20597929.685    -5783339.95249  -4405115.48847  20597929.000    20597932.982
       245.000         211.000
  20576559.242   -17167908.16849 -13366263.00447  20576558.355    20576562.662
       243.000         211.000
  21242615.564     1133160.67349    885328.66947  21242614.454    21242621.515
       238.000         196.000
  23478235.542    -7192259.24249  -5596498.36045  23478233.667    23478242.301
       218.000         157.000
  21430687.696     4647049.04049   3625442.03247  21430687.034    21430693.244
       236.000         194.000
  21654784.865   -16914593.65949 -13171048.58847  21654783.335    21654790.267
       237.000         189.000
  23678783.226     2117349.34149   1659085.64245  23678783.160    23678789.827
       218.000         159.000
  21634610.776    -8706761.30549  -6576879.41746  21634610.841    21634616.606
       235.000         187.000
  24991272.205    -6965219.17149  -5254039.68044  24991270.374    24991281.562
       198.000         129.000
 03  6 25 16 56  0.0000000  0 10G23G21G18G17G16G 6G15G29G26G 2
  22029328.743   -16094905.60349 -12517784.35946  22029327.754    22029334.284
       234.000         183.000
  20598069.138    -5782607.37849  -4404544.66347  20598068.374    20598072.305
       245.000         211.000
  20571850.616   -17192652.05149 -13385543.94347  20571849.635    20571854.070
       243.000         212.000
  21247828.987     1160557.31549    906676.67247  21247828.085    21247834.679
       238.000         196.000
  23483466.311    -7164771.24049  -5575079.21945  23483466.095    23483472.003
       218.000         156.000
  21445072.230     4722640.15449   3684344.14047  21445071.946    21445078.112
       237.000         194.000
  21643760.510   -16972526.77149 -13216191.26547  21643759.607    21643766.247
       238.000         189.000
  23691992.610     2186764.11049   1713175.00945  23691992.255    23691999.249
       218.000         159.000
  21641604.347    -8670009.78749  -6548241.89546  21641604.399    21641610.329
       234.000         187.000
  24989020.055    -6977055.07649  -5263262.50744  24989019.862    24989027.297
       200.000         130.000
 03  6 25 16 56 30.0000000  0 10G23G21G18G17G16G 6G15G29G26G 2
  22018590.832   -16151333.98249 -12561754.47946  22018590.147    22018596.387
       233.000         183.000
  20598252.401    -5781644.40949  -4403794.30847  20598251.517    20598255.571
       245.000         211.000
  20567219.565   -17216988.38249 -13404507.30747  20567218.771    20567223.090
       242.000         212.000
  21253081.187     1188157.46349    928183.25447  21253080.299    21253086.577
       237.000         196.000
  23488784.030    -7136826.91649  -5553304.48945  23488782.944    23488790.259
       216.000         155.000
  21459532.932     4798631.48349   3743558.10947  21459532.735    21459539.126
       237.000         194.000
  21632759.551   -17030337.28849 -13261238.41147  21632758.453    21632764.571
       238.000         190.000
  23705279.000     2256583.83049   1767579.93245  23705278.937    23705286.156
       218.000         158.000
  21648719.060    -8632621.66149  -6519108.31046  21648718.444    21648724.721
       234.000         186.000
  24986846.656    -6988476.99249  -5272162.74444  24986846.756    24986854.027
       199.000         128.000
 03  6 25 16 57  0.0000000  0 10G23G21G18G17G16G 6G15G29G26G 2
  22007917.137   -16207424.55149 -12605461.38046  22007916.067    22007922.780
       232.000         183.000
  20598479.496    -5780451.07549  -4402864.44947  20598478.640    20598482.631
       245.000         210.000
  20562665.779   -17240918.58949 -13423154.21247  20562664.983    20562669.098
       243.000         212.000
  21258372.112     1215961.32949    949848.58147  21258371.006    21258377.952
       238.000         196.000
  23494188.147    -7108428.48849  -5531175.91345  23494186.673    23494194.934
       216.000         155.000
  21474069.380     4875020.94249   3803082.30547  21474068.772    21474075.427
       236.000         194.000
  21621781.972   -17088024.91349 -13306189.80247  21621781.072    21621787.127
       238.000         190.000
  23718641.888     2326806.01249   1822298.45645  23718641.826    23718648.804
       219.000         157.000
  21655954.532    -8594598.71449  -6489480.06246  21655954.235    21655960.289
       235.000         186.000
  24984751.740    -6999485.71249  -5280741.00844  24984750.247    24984759.716
       197.000         129.000
 03  6 25 16 57 30.0000000  0 10G23G21G18G17G16G 6G15G29G26G 2
  21997307.918   -16263176.29449 -12648904.25346  21997307.251    21997313.657
       233.000         184.000
  20598750.695    -5779025.84249  -4401753.89047  20598749.652    20598753.995
       245.000         210.000
  20558189.402   -17264442.12749 -13441484.23947  20558188.902    20558192.903
       243.000         212.000
  21263702.046     1243970.24949    971673.69547  21263700.956    21263707.590
       238.000         196.000
  23499678.427    -7079577.19549  -5508694.48345  23499678.001    23499683.458
       217.000         154.000
  21488681.342     4951807.41849   3862915.86547  21488681.076    21488687.650
       236.000         193.000
  21610828.042   -17145588.20149 -13351044.30847  21610826.986    21610833.476
       237.000         190.000
  23732081.006     2397429.10049   1877329.37445  23732080.712    23732087.129
       219.000         157.000
  21663310.840    -8555941.50049  -6459357.58146  21663310.902    21663317.200
       235.000         187.000
  24982735.429    -7010080.87249  -5288996.99844  24982734.323    24982741.355
       201.000         128.000
 03  6 25 16 58  0.0000000  0 10G23G21G18G17G16G 6G15G29G26G 2
  21986763.129   -16318589.47549 -12692083.32046  21986762.201    21986768.931
       234.000         184.000
  20599066.096    -5777368.49749  -4400462.46547  20599065.214    20599069.323
       245.000         210.000
  20553790.242   -17287559.89749 -13459498.08247  20553789.418    20553793.737
       242.000         212.000
  21269071.015     1272184.28049    993658.63247  21269070.389    21269076.858
       238.000         196.000
  23505254.456    -7050275.10149  -5485861.75745  23505253.691    23505260.218
       215.000         153.000
  21503368.529     5028988.86549   3923057.19447  21503368.268    21503374.847
       237.000         193.000
  21599897.861   -17203026.52749 -13395801.44147  21599896.733    21599902.981
       236.000         190.000
  23745596.058     2468450.86049   1932670.95245  23745595.626    23745602.138
       218.000         157.000
  21670787.560    -8516651.62949  -6428742.11946  21670787.696    21670794.032
       235.000         187.000
  24980798.049    -7020263.23449  -5296931.36344  24980797.004    24980805.984
       198.000         128.000
 03  6 25 16 58 30.0000000  0 10G23G21G18G17G16G 6G15G29G26G 2
  21976282.922   -16373663.58349 -12734998.17246  21976282.146    21976288.532
       234.000         184.000
  20599425.901    -5775477.76949  -4398989.17947  20599424.995    20599428.967
       245.000         210.000
  20549468.292   -17310271.86749 -13477195.71447  20549467.520    20549471.882
       242.000         212.000
  21274479.243     1300604.37549   1015804.13047  21274478.075    21274484.892
       238.000         196.000
  23510915.952    -7020523.69949  -5462678.91545  23510915.782    23510922.549
       216.000         154.000
  21518130.642     5106563.96849   3983505.27447  21518130.228    21518137.195
       237.000         193.000
  21588991.653   -17260338.94449 -13440460.45847  21588990.343    21588996.932
       238.000         190.000
  23759186.613     2539869.33149   1988321.64145  23759187.407    23759193.020
       219.000         157.000
  21678384.439    -8476730.07249  -6397634.43346  21678384.167    21678390.520
       235.000         187.000
  24978938.786    -7030032.80949  -5304544.05744  24978935.533    24978945.795
       196.000         129.000
 03  6 25 16 59  0.0000000  0 10G23G21G18G17G16G 6G15G29G26G 2
  21965866.919   -16428399.72249 -12777649.67346  21965865.528    21965872.383
       234.000         185.000
  20599830.008    -5773354.27349  -4397334.51847  20599829.235    20599833.378
       245.000         210.000
  20545223.210   -17332579.82349 -13494578.53647  20545222.398    20545226.769
       242.000         212.000
  21279926.512     1329230.18549   1038109.92747  21279925.844    21279932.269
       238.000         195.000
  23516662.494    -6990326.26649  -5439148.51745  23516661.784    23516669.771
       217.000         154.000
  21532967.112     5184529.87749   4044257.88447  21532967.017    21532973.360
       237.000         192.000
  21578109.336   -17317526.07249 -13485021.85547  21578108.207    21578114.651
       237.000         191.000
  23772852.080     2611681.17049   2044278.86545  23772851.437    23772859.095
       217.000         157.000
  21686101.006    -8436179.58149  -6366036.67546  21686100.795    21686106.840
       235.000         187.000
  24977157.990    -7039391.14749  -5311836.28744  24977157.524    24977165.588
       200.000         128.000
 03  6 25 16 59 30.0000000  0 10G23G21G18G17G16G 6G15G29G26G 2
  21955515.314   -16482797.54649 -12820037.54246  21955513.994    21955521.105
       234.000         185.000
  20600278.644    -5770996.85749  -4395497.57947  20600277.814    20600281.682
       246.000         211.000
  20541055.058   -17354483.55249 -13511646.37547  20541054.354    20541058.531
       243.000         212.000
  21285413.171     1358062.54349   1060576.67647  21285412.556    21285418.692
       238.000         196.000
  23522493.620    -6959684.16049  -5415271.62645  23522493.766    23522499.621
       216.000         154.000
  21547877.629     5262885.09449   4105313.84547  21547877.135    21547884.416
       237.000         192.000
  21567251.031   -17374586.87949 -13529484.81947  21567249.964    21567256.274
       237.000         191.000
  23786591.832     2683884.59749   2100541.20145  23786591.675    23786597.267
       218.000         159.000
  21693937.039    -8395001.04349  -6333949.52446  21693936.770    21693942.646
       235.000         187.000
  24975455.448    -7048338.27349  -5318808.13944  24975455.962    24975460.671
       202.000         128.000
 03  6 25 17  0  0.0000000  0 10G23G21G18G17G16G 6G15G29G26G 2
  21945228.091   -16536856.96549 -12862161.71746  21945227.455    21945234.008
       234.000         185.000
  20600771.874    -5768404.92249  -4393477.89947  20600771.123    20600775.040
       246.000         210.000
  20536963.680   -17375984.13449 -13528400.07647  20536962.697    20536967.109
       242.000         212.000
  21290939.225     1387101.89249   1083204.71647  21290938.210    21290945.446
       237.000         195.000
  23528408.921    -6928599.58849  -5391049.96345  23528406.933    23528413.763
       214.000         153.000
  21562861.975     5341627.69849   4166671.67147  21562861.691    21562868.093
       237.000         192.000
  21556416.944   -17431520.57649 -13573848.73747  21556415.764    21556422.370
       238.000         191.000
  23800405.833     2756477.27949   2157106.85945  23800405.032    23800412.030
       219.000         161.000
  21701892.286    -8353196.06549  -6301374.24546  21701891.703    21701898.335
       235.000         186.000
  24973831.334    -7056874.78349  -5325460.01244  24973830.697    24973839.785
       201.000         130.000
 03  6 25 17  0 30.0000000  0 10G23G21G18G17G16G 6G15G29G26G 2
  21935005.481   -16590576.87649 -12904021.34346  21935004.622    21935011.235
       234.000         185.000
  20601310.013    -5765577.05749  -4391274.38047  20601309.100    20601313.094
       245.000         211.000
  20532949.020   -17397081.19849 -13544839.34547  20532948.296    20532952.480
       243.000         212.000
  21296504.850     1416349.70949   1105995.19847  21296503.827    21296510.690
       237.000         195.000
  23534407.987    -6897073.61149  -5366484.32945  23534406.739    23534414.665
       216.000         153.000
  21577919.809     5420756.84149   4228330.70747  21577919.457    21577925.784
       237.000         191.000
  21545607.236   -17488325.51549 -13618112.32147  21545606.117    21545612.470
       237.000         191.000
  23814293.613     2829458.05249   2213974.93645  23814292.798    23814299.936
       219.000         161.000
  21709966.573    -8310765.31549  -6268311.35146  21709966.133    21709972.675
       234.000         186.000
  24972285.282    -7065000.22849  -5331791.59544  24972283.978    24972293.305
       200.000         131.000
 03  6 25 17  1  0.0000000  0 10G23G21G18G17G16G 6G15G29G26G 2
  21924847.312   -16643958.19749 -12945617.13746  21924846.185    21924852.875
       234.000         185.000
  20601893.021    -5762513.48249  -4388887.19147  20601892.137    20601896.226
       246.000         211.000
  20529010.879   -17417776.24949 -13560965.36047  20529010.102    20529014.280
       243.000         212.000
  21302110.059     1445805.33249   1128947.60947  21302109.197    21302115.900
       238.000         195.000
  23540490.662    -6865109.43249  -5341577.27745  23540490.158    23540496.793
       217.000         153.000
  21593050.689     5500269.88049   4290288.87447  21593050.102    21593056.505
       237.000         191.000
  21534822.109   -17545001.83849 -13662275.68647  21534820.664    21534827.219
       238.000         191.000
  23828254.648     2902823.56249   2271142.79645  23828254.133    23828261.182
       219.000         161.000
  21718159.454    -8267711.26649  -6234762.76546  21718159.011    21718165.580
       236.000         186.000
  24970817.155    -7072716.01349  -5337803.97644  24970816.673    24970824.984
       204.000         131.000
